Wetterdaten: Samstag, 06.08.2016
Datum Zeit Temp. A. Temp. A. max Feuchte A. Luftdruck Regen Wind Richtung Richtung Sonnenschein ET UV Solar Taupunkt Windben
06.08.2016 00:00 10,1 C 10,1 C 95 % 1023,0 hPa 0,0 mm 0,0 km/h (0 Bft) W 270 0 min 0,000 mm 0,0 UV-I 0 W/m 9,3 C 1,6 km/h (1 Bft)
06.08.2016 00:01 10,0 C 10,1 C 95 % 1023,0 hPa 0,0 mm 0,0 km/h (0 Bft) W 270 0 min 0,000 mm 0,0 UV-I 0 W/m 9,2 C 1,6 km/h (1 Bft)
06.08.2016 00:02 9,9 C 10,0 C 95 % 1023,0 hPa 0,0 mm 0,0 km/h (0 Bft) W 270 0 min 0,000 mm 0,0 UV-I 0 W/m 9,1 C 1,6 km/h (1 Bft)
06.08.2016 00:03 9,9 C 10,0 C 95 % 1023,0 hPa 0,0 mm 1,6 km/h (1 Bft) W 270 0 min 0,000 mm 0,0 UV-I 0 W/m 9,1 C 1,6 km/h (1 Bft)
06.08.2016 00:04 9,9 C 9,9 C 95 % 1023,0 hPa 0,0 mm 3,2 km/h (1 Bft) S-SO 157 0 min 0,000 mm 0,0 UV-I 0 W/m 9,1 C 6,4 km/h (2 Bft)
06.08.2016 00:05 9,9 C 9,9 C 95 % 1023,0 hPa 0,0 mm 1,6 km/h (1 Bft) W 270 0 min 0,000 mm 0,0 UV-I 0 W/m 9,1 C 3,2 km/h (1 Bft)
06.08.2016 00:06 9,8 C 9,9 C 95 % 1023,2 hPa 0,0 mm 0,0 km/h (0 Bft) W 270 0 min 0,000 mm 0,0 UV-I 0 W/m 9,0 C 1,6 km/h (1 Bft)
06.08.2016 00:07 9,8 C 9,9 C 95 % 1023,1 hPa 0,0 mm 0,0 km/h (0 Bft) W 270 0 min 0,000 mm 0,0 UV-I 0 W/m 9,0 C 1,6 km/h (1 Bft)
06.08.2016 00:08 9,8 C 9,8 C 95 % 1023,2 hPa 0,0 mm 0,0 km/h (0 Bft) W 270 0 min 0,000 mm 0,0 UV-I 0 W/m 9,0 C 1,6 km/h (1 Bft)
06.08.2016 00:09 9,8 C 9,8 C 95 % 1023,2 hPa 0,0 mm 0,0 km/h (0 Bft) W 270 0 min 0,000 mm 0,0 UV-I 0 W/m 9,0 C 1,6 km/h (1 Bft)
06.08.2016 00:10 9,8 C 9,8 C 95 % 1023,2 hPa 0,0 mm 0,0 km/h (0 Bft) W 270 0 min 0,000 mm 0,0 UV-I 0 W/m 9,0 C 1,6 km/h (1 Bft)
06.08.2016 00:11 9,8 C 9,8 C 95 % 1023,2 hPa 0,0 mm 4,8 km/h (1 Bft) O-SO 112 0 min 0,000 mm 0,0 UV-I 0 W/m 9,0 C 9,7 km/h (2 Bft)
06.08.2016 00:12 9,8 C 9,8 C 95 % 1023,1 hPa 0,0 mm 1,6 km/h (1 Bft) SO 135 0 min 0,000 mm 0,0 UV-I 0 W/m 9,0 C 3,2 km/h (1 Bft)
06.08.2016 00:13 9,8 C 9,8 C 95 % 1023,2 hPa 0,0 mm 3,2 km/h (1 Bft) W 270 0 min 0,000 mm 0,0 UV-I 0 W/m 9,0 C 4,8 km/h (1 Bft)
06.08.2016 00:14 9,9 C 9,9 C 96 % 1023,2 hPa 0,0 mm 3,2 km/h (1 Bft) W-NW 292 0 min 0,000 mm 0,0 UV-I 0 W/m 9,3 C 4,8 km/h (1 Bft)
06.08.2016 00:15 9,9 C 9,9 C 96 % 1023,2 hPa 0,0 mm 3,2 km/h (1 Bft) O 90 0 min 0,000 mm 0,0 UV-I 0 W/m 9,3 C 6,4 km/h (2 Bft)
06.08.2016 00:16 9,9 C 10,0 C 96 % 1023,2 hPa 0,0 mm 3,2 km/h (1 Bft) S-SW 202 0 min 0,000 mm 0,0 UV-I 0 W/m 9,3 C 6,4 km/h (2 Bft)
06.08.2016 00:17 10,0 C 10,0 C 96 % 1023,3 hPa 0,0 mm 3,2 km/h (1 Bft) W 270 0 min 0,000 mm 0,0 UV-I 0 W/m 9,4 C 6,4 km/h (2 Bft)
06.08.2016 00:18 10,1 C 10,1 C 96 % 1023,2 hPa 0,0 mm 4,8 km/h (1 Bft) W-SW 247 0 min 0,000 mm 0,0 UV-I 0 W/m 9,5 C 8,0 km/h (2 Bft)
06.08.2016 00:19 10,1 C 10,1 C 96 % 1023,3 hPa 0,0 mm 3,2 km/h (1 Bft) SW 225 0 min 0,000 mm 0,0 UV-I 0 W/m 9,5 C 4,8 km/h (1 Bft)
06.08.2016 00:20 10,2 C 10,2 C 96 % 1023,3 hPa 0,0 mm 3,2 km/h (1 Bft) SW 225 0 min 0,000 mm 0,0 UV-I 0 W/m 9,6 C 4,8 km/h (1 Bft)
06.08.2016 00:21 10,2 C 10,2 C 95 % 1023,4 hPa 0,0 mm 4,8 km/h (1 Bft) W 270 0 min 0,000 mm 0,0 UV-I 0 W/m 9,4 C 6,4 km/h (2 Bft)
06.08.2016 00:22 10,2 C 10,2 C 95 % 1023,4 hPa 0,0 mm 4,8 km/h (1 Bft) W 270 0 min 0,000 mm 0,0 UV-I 0 W/m 9,4 C 6,4 km/h (2 Bft)
06.08.2016 00:23 10,3 C 10,3 C 95 % 1023,4 hPa 0,0 mm 4,8 km/h (1 Bft) W-SW 247 0 min 0,000 mm 0,0 UV-I 0 W/m 9,5 C 6,4 km/h (2 Bft)
06.08.2016 00:24 10,3 C 10,3 C 95 % 1023,4 hPa 0,0 mm 4,8 km/h (1 Bft) S-SW 202 0 min 0,000 mm 0,0 UV-I 0 W/m 9,5 C 6,4 km/h (2 Bft)
06.08.2016 00:25 10,3 C 10,3 C 95 % 1023,3 hPa 0,0 mm 1,6 km/h (1 Bft) S-SW 202 0 min 0,000 mm 0,0 UV-I 0 W/m 9,5 C 3,2 km/h (1 Bft)
06.08.2016 00:26 10,3 C 10,4 C 95 % 1023,3 hPa 0,0 mm 1,6 km/h (1 Bft) S-SW 202 0 min 0,000 mm 0,0 UV-I 0 W/m 9,5 C 1,6 km/h (1 Bft)
06.08.2016 00:27 10,3 C 10,4 C 95 % 1023,4 hPa 0,0 mm 0,0 km/h (0 Bft) S-SW 202 0 min 0,000 mm 0,0 UV-I 0 W/m 9,5 C 1,6 km/h (1 Bft)
06.08.2016 00:28 10,3 C 10,3 C 95 % 1023,3 hPa 0,0 mm 1,6 km/h (1 Bft) W-NW 292 0 min 0,000 mm 0,0 UV-I 0 W/m 9,5 C 3,2 km/h (1 Bft)
06.08.2016 00:29 10,3 C 10,3 C 95 % 1023,4 hPa 0,0 mm 1,6 km/h (1 Bft) W-NW 292 0 min 0,000 mm 0,0 UV-I 0 W/m 9,5 C 3,2 km/h (1 Bft)
06.08.2016 00:30 10,3 C 10,3 C 95 % 1023,4 hPa 0,0 mm 3,2 km/h (1 Bft) W 270 0 min 0,000 mm 0,0 UV-I 0 W/m 9,5 C 4,8 km/h (1 Bft)
06.08.2016 00:31 10,3 C 10,3 C 95 % 1023,4 hPa 0,0 mm 1,6 km/h (1 Bft) W-SW 247 0 min 0,000 mm 0,0 UV-I 0 W/m 9,5 C 4,8 km/h (1 Bft)
06.08.2016 00:32 10,3 C 10,3 C 95 % 1023,4 hPa 0,0 mm 3,2 km/h (1 Bft) S 180 0 min 0,000 mm 0,0 UV-I 0 W/m 9,5 C 4,8 km/h (1 Bft)
06.08.2016 00:33 10,3 C 10,3 C 95 % 1023,4 hPa 0,0 mm 1,6 km/h (1 Bft) S-SO 157 0 min 0,000 mm 0,0 UV-I 0 W/m 9,5 C 3,2 km/h (1 Bft)
06.08.2016 00:34 10,3 C 10,3 C 95 % 1023,4 hPa 0,0 mm 0,0 km/h (0 Bft) S-SO 157 0 min 0,000 mm 0,0 UV-I 0 W/m 9,5 C 1,6 km/h (1 Bft)
06.08.2016 00:35 10,3 C 10,3 C 95 % 1023,4 hPa 0,0 mm 0,0 km/h (0 Bft) S 180 0 min 0,000 mm 0,0 UV-I 0 W/m 9,5 C 1,6 km/h (1 Bft)
06.08.2016 00:36 10,3 C 10,3 C 95 % 1023,4 hPa 0,0 mm 0,0 km/h (0 Bft) S 180 0 min 0,000 mm 0,0 UV-I 0 W/m 9,5 C 1,6 km/h (1 Bft)
06.08.2016 00:37 10,3 C 10,3 C 95 % 1023,4 hPa 0,0 mm 1,6 km/h (1 Bft) S 180 0 min 0,000 mm 0,0 UV-I 0 W/m 9,5 C 1,6 km/h (1 Bft)
06.08.2016 00:38 10,3 C 10,3 C 95 % 1023,4 hPa 0,0 mm 1,6 km/h (1 Bft) S 180 0 min 0,000 mm 0,0 UV-I 0 W/m 9,5 C 3,2 km/h (1 Bft)
06.08.2016 00:39 10,3 C 10,3 C 95 % 1023,4 hPa 0,0 mm 1,6 km/h (1 Bft) S 180 0 min 0,000 mm 0,0 UV-I 0 W/m 9,5 C 1,6 km/h (1 Bft)
06.08.2016 00:40 10,3 C 10,3 C 95 % 1023,4 hPa 0,0 mm 0,0 km/h (0 Bft) S 180 0 min 0,000 mm 0,0 UV-I 0 W/m 9,5 C 1,6 km/h (1 Bft)
06.08.2016 00:41 10,3 C 10,3 C 95 % 1023,4 hPa 0,0 mm 1,6 km/h (1 Bft) S 180 0 min 0,000 mm 0,0 UV-I 0 W/m 9,5 C 3,2 km/h (1 Bft)
06.08.2016 00:42 10,3 C 10,3 C 95 % 1023,4 hPa 0,0 mm 1,6 km/h (1 Bft) W-SW 247 0 min 0,000 mm 0,0 UV-I 0 W/m 9,5 C 3,2 km/h (1 Bft)
06.08.2016 00:43 10,3 C 10,3 C 95 % 1023,3 hPa 0,0 mm 1,6 km/h (1 Bft) W-SW 247 0 min 0,000 mm 0,0 UV-I 0 W/m 9,5 C 3,2 km/h (1 Bft)
06.08.2016 00:44 10,3 C 10,3 C 95 % 1023,4 hPa 0,0 mm 1,6 km/h (1 Bft) W-SW 247 0 min 0,000 mm 0,0 UV-I 0 W/m 9,5 C 3,2 km/h (1 Bft)
06.08.2016 00:45 10,3 C 10,3 C 95 % 1023,3 hPa 0,0 mm 0,0 km/h (0 Bft) W-SW 247 0 min 0,000 mm 0,0 UV-I 0 W/m 9,5 C 1,6 km/h (1 Bft)
06.08.2016 00:46 10,3 C 10,3 C 95 % 1023,3 hPa 0,0 mm 0,0 km/h (0 Bft) W-SW 247 0 min 0,000 mm 0,0 UV-I 0 W/m 9,5 C 1,6 km/h (1 Bft)
06.08.2016 00:47 10,3 C 10,3 C 95 % 1023,4 hPa 0,0 mm 0,0 km/h (0 Bft) W-SW 247 0 min 0,000 mm 0,0 UV-I 0 W/m 9,5 C 1,6 km/h (1 Bft)
06.08.2016 00:48 10,2 C 10,2 C 95 % 1023,4 hPa 0,0 mm 1,6 km/h (1 Bft) W-SW 247 0 min 0,000 mm 0,0 UV-I 0 W/m 9,4 C 3,2 km/h (1 Bft)
06.08.2016 00:49 10,2 C 10,3 C 95 % 1023,4 hPa 0,0 mm 0,0 km/h (0 Bft) W-SW 247 0 min 0,000 mm 0,0 UV-I 0 W/m 9,4 C 3,2 km/h (1 Bft)
06.08.2016 00:50 10,2 C 10,2 C 95 % 1023,4 hPa 0,0 mm 0,0 km/h (0 Bft) W-SW 247 0 min 0,000 mm 0,0 UV-I 0 W/m 9,4 C 1,6 km/h (1 Bft)
06.08.2016 00:51 10,2 C 10,2 C 95 % 1023,4 hPa 0,0 mm 1,6 km/h (1 Bft) W-SW 247 0 min 0,000 mm 0,0 UV-I 0 W/m 9,4 C 3,2 km/h (1 Bft)
06.08.2016 00:52 10,2 C 10,2 C 95 % 1023,4 hPa 0,0 mm 1,6 km/h (1 Bft) SW 225 0 min 0,000 mm 0,0 UV-I 0 W/m 9,4 C 3,2 km/h (1 Bft)
06.08.2016 00:53 10,2 C 10,2 C 95 % 1023,4 hPa 0,0 mm 1,6 km/h (1 Bft) W-SW 247 0 min 0,000 mm 0,0 UV-I 0 W/m 9,4 C 1,6 km/h (1 Bft)
06.08.2016 00:54 10,2 C 10,2 C 95 % 1023,5 hPa 0,0 mm 1,6 km/h (1 Bft) W-SW 247 0 min 0,000 mm 0,0 UV-I 0 W/m 9,4 C 1,6 km/h (1 Bft)
06.08.2016 00:55 10,2 C 10,2 C 95 % 1023,4 hPa 0,0 mm 1,6 km/h (1 Bft) W 270 0 min 0,000 mm 0,0 UV-I 0 W/m 9,4 C 1,6 km/h (1 Bft)
06.08.2016 00:56 10,1 C 10,2 C 95 % 1023,5 hPa 0,0 mm 1,6 km/h (1 Bft) SW 225 0 min 0,000 mm 0,0 UV-I 0 W/m 9,3 C 4,8 km/h (1 Bft)
06.08.2016 00:57 10,1 C 10,1 C 95 % 1023,6 hPa 0,0 mm 3,2 km/h (1 Bft) W-SW 247 0 min 0,000 mm 0,0 UV-I 0 W/m 9,3 C 4,8 km/h (1 Bft)
06.08.2016 00:58 10,1 C 10,1 C 95 % 1023,6 hPa 0,0 mm 3,2 km/h (1 Bft) W-NW 292 0 min 0,000 mm 0,0 UV-I 0 W/m 9,3 C 6,4 km/h (2 Bft)
06.08.2016 00:59 10,1 C 10,1 C 95 % 1023,6 hPa 0,0 mm 3,2 km/h (1 Bft) W 270 0 min 0,000 mm 0,0 UV-I 0 W/m 9,3 C 6,4 km/h (2 Bft)
06.08.2016 01:00 10,1 C 10,1 C 95 % 1023,6 hPa 0,0 mm 6,4 km/h (2 Bft) W 270 0 min 0,000 mm 0,0 UV-I 0 W/m 9,3 C 6,4 km/h (2 Bft)
06.08.2016 01:01 10,1 C 10,1 C 95 % 1023,6 hPa 0,0 mm 4,8 km/h (1 Bft) W 270 0 min 0,000 mm 0,0 UV-I 0 W/m 9,3 C 4,8 km/h (1 Bft)
06.08.2016 01:02 10,1 C 10,1 C 95 % 1023,6 hPa 0,0 mm 3,2 km/h (1 Bft) W-NW 292 0 min 0,000 mm 0,0 UV-I 0 W/m 9,3 C 4,8 km/h (1 Bft)
06.08.2016 01:03 10,1 C 10,1 C 95 % 1023,6 hPa 0,0 mm 3,2 km/h (1 Bft) W-NW 292 0 min 0,000 mm 0,0 UV-I 0 W/m 9,3 C 3,2 km/h (1 Bft)
06.08.2016 01:04 10,1 C 10,1 C 95 % 1023,6 hPa 0,0 mm 1,6 km/h (1 Bft) W-NW 292 0 min 0,000 mm 0,0 UV-I 0 W/m 9,3 C 3,2 km/h (1 Bft)
06.08.2016 01:05 10,1 C 10,1 C 95 % 1023,6 hPa 0,0 mm 1,6 km/h (1 Bft) W-NW 292 0 min 0,000 mm 0,0 UV-I 0 W/m 9,3 C 3,2 km/h (1 Bft)
06.08.2016 01:06 10,1 C 10,1 C 95 % 1023,6 hPa 0,0 mm 0,0 km/h (0 Bft) W-NW 292 0 min 0,000 mm 0,0 UV-I 0 W/m 9,3 C 1,6 km/h (1 Bft)
06.08.2016 01:07 10,1 C 10,1 C 95 % 1023,6 hPa 0,0 mm 3,2 km/h (1 Bft) W 270 0 min 0,000 mm 0,0 UV-I 0 W/m 9,3 C 4,8 km/h (1 Bft)
06.08.2016 01:08 10,1 C 10,1 C 95 % 1023,6 hPa 0,0 mm 3,2 km/h (1 Bft) W-SW 247 0 min 0,000 mm 0,0 UV-I 0 W/m 9,3 C 4,8 km/h (1 Bft)
06.08.2016 01:09 10,1 C 10,1 C 95 % 1023,6 hPa 0,0 mm 1,6 km/h (1 Bft) W-SW 247 0 min 0,000 mm 0,0 UV-I 0 W/m 9,3 C 3,2 km/h (1 Bft)
06.08.2016 01:10 10,0 C 10,1 C 95 % 1023,6 hPa 0,0 mm 1,6 km/h (1 Bft) W-SW 247 0 min 0,000 mm 0,0 UV-I 0 W/m 9,2 C 1,6 km/h (1 Bft)
06.08.2016 01:11 10,1 C 10,1 C 95 % 1023,6 hPa 0,0 mm 1,6 km/h (1 Bft) W-SW 247 0 min 0,000 mm 0,0 UV-I 0 W/m 9,3 C 3,2 km/h (1 Bft)
06.08.2016 01:12 10,1 C 10,1 C 95 % 1023,6 hPa 0,0 mm 3,2 km/h (1 Bft) W-SW 247 0 min 0,000 mm 0,0 UV-I 0 W/m 9,3 C 4,8 km/h (1 Bft)
06.08.2016 01:13 10,1 C 10,1 C 95 % 1023,7 hPa 0,0 mm 1,6 km/h (1 Bft) W-SW 247 0 min 0,000 mm 0,0 UV-I 0 W/m 9,3 C 3,2 km/h (1 Bft)
06.08.2016 01:14 10,1 C 10,1 C 95 % 1023,6 hPa 0,0 mm 0,0 km/h (0 Bft) W-SW 247 0 min 0,000 mm 0,0 UV-I 0 W/m 9,3 C 1,6 km/h (1 Bft)
06.08.2016 01:15 10,1 C 10,1 C 95 % 1023,7 hPa 0,0 mm 1,6 km/h (1 Bft) W-SW 247 0 min 0,000 mm 0,0 UV-I 0 W/m 9,3 C 3,2 km/h (1 Bft)
06.08.2016 01:16 10,1 C 10,1 C 95 % 1023,6 hPa 0,0 mm 0,0 km/h (0 Bft) W-SW 247 0 min 0,000 mm 0,0 UV-I 0 W/m 9,3 C 1,6 km/h (1 Bft)
06.08.2016 01:17 10,1 C 10,1 C 95 % 1023,6 hPa 0,0 mm 1,6 km/h (1 Bft) W 270 0 min 0,000 mm 0,0 UV-I 0 W/m 9,3 C 1,6 km/h (1 Bft)
06.08.2016 01:18 10,1 C 10,1 C 95 % 1023,6 hPa 0,0 mm 0,0 km/h (0 Bft) W 270 0 min 0,000 mm 0,0 UV-I 0 W/m 9,3 C 3,2 km/h (1 Bft)
06.08.2016 01:19 10,1 C 10,1 C 95 % 1023,7 hPa 0,0 mm 4,8 km/h (1 Bft) W-SW 247 0 min 0,000 mm 0,0 UV-I 0 W/m 9,3 C 6,4 km/h (2 Bft)
06.08.2016 01:20 10,1 C 10,1 C 95 % 1023,7 hPa 0,0 mm 4,8 km/h (1 Bft) S-SW 202 0 min 0,000 mm 0,0 UV-I 0 W/m 9,3 C 8,0 km/h (2 Bft)
06.08.2016 01:21 10,2 C 10,2 C 94 % 1023,6 hPa 0,0 mm 3,2 km/h (1 Bft) S-SO 157 0 min 0,000 mm 0,0 UV-I 0 W/m 9,3 C 4,8 km/h (1 Bft)
06.08.2016 01:22 10,2 C 10,2 C 94 % 1023,7 hPa 0,0 mm 1,6 km/h (1 Bft) SO 135 0 min 0,000 mm 0,0 UV-I 0 W/m 9,3 C 3,2 km/h (1 Bft)
06.08.2016 01:23 10,2 C 10,2 C 95 % 1023,7 hPa 0,0 mm 1,6 km/h (1 Bft) SO 135 0 min 0,000 mm 0,0 UV-I 0 W/m 9,4 C 4,8 km/h (1 Bft)
06.08.2016 01:24 10,2 C 10,2 C 94 % 1023,7 hPa 0,0 mm 3,2 km/h (1 Bft) SW 225 0 min 0,000 mm 0,0 UV-I 0 W/m 9,3 C 4,8 km/h (1 Bft)
06.08.2016 01:25 10,2 C 10,2 C 94 % 1023,7 hPa 0,0 mm 4,8 km/h (1 Bft) W 270 0 min 0,000 mm 0,0 UV-I 0 W/m 9,3 C 6,4 km/h (2 Bft)
06.08.2016 01:26 10,3 C 10,3 C 94 % 1023,7 hPa 0,0 mm 3,2 km/h (1 Bft) W 270 0 min 0,000 mm 0,0 UV-I 0 W/m 9,4 C 4,8 km/h (1 Bft)
06.08.2016 01:27 10,3 C 10,3 C 94 % 1023,8 hPa 0,0 mm 3,2 km/h (1 Bft) W 270 0 min 0,000 mm 0,0 UV-I 0 W/m 9,4 C 4,8 km/h (1 Bft)
06.08.2016 01:28 10,3 C 10,3 C 94 % 1023,8 hPa 0,0 mm 3,2 km/h (1 Bft) W 270 0 min 0,000 mm 0,0 UV-I 0 W/m 9,4 C 4,8 km/h (1 Bft)
06.08.2016 01:29 10,3 C 10,4 C 94 % 1023,7 hPa 0,0 mm 3,2 km/h (1 Bft) S 180 0 min 0,000 mm 0,0 UV-I 0 W/m 9,4 C 4,8 km/h (1 Bft)
06.08.2016 01:30 10,3 C 10,3 C 94 % 1023,8 hPa 0,0 mm 3,2 km/h (1 Bft) W-SW 247 0 min 0,000 mm 0,0 UV-I 0 W/m 9,4 C 4,8 km/h (1 Bft)
06.08.2016 01:31 10,3 C 10,4 C 94 % 1023,7 hPa 0,0 mm 1,6 km/h (1 Bft) S 180 0 min 0,000 mm 0,0 UV-I 0 W/m 9,4 C 3,2 km/h (1 Bft)
06.08.2016 01:32 10,3 C 10,3 C 94 % 1023,7 hPa 0,0 mm 0,0 km/h (0 Bft) S 180 0 min 0,000 mm 0,0 UV-I 0 W/m 9,4 C 1,6 km/h (1 Bft)
06.08.2016 01:33 10,3 C 10,3 C 94 % 1023,6 hPa 0,0 mm 1,6 km/h (1 Bft) S 180 0 min 0,000 mm 0,0 UV-I 0 W/m 9,4 C 1,6 km/h (1 Bft)
06.08.2016 01:34 10,3 C 10,3 C 94 % 1023,7 hPa 0,0 mm 1,6 km/h (1 Bft) S-SW 202 0 min 0,000 mm 0,0 UV-I 0 W/m 9,4 C 3,2 km/h (1 Bft)
06.08.2016 01:35 10,3 C 10,3 C 94 % 1023,7 hPa 0,0 mm 1,6 km/h (1 Bft) S-SW 202 0 min 0,000 mm 0,0 UV-I 0 W/m 9,4 C 1,6 km/h (1 Bft)
06.08.2016 01:36 10,3 C 10,3 C 94 % 1023,7 hPa 0,0 mm 1,6 km/h (1 Bft) S-SW 202 0 min 0,000 mm 0,0 UV-I 0 W/m 9,4 C 3,2 km/h (1 Bft)
06.08.2016 01:37 10,3 C 10,3 C 94 % 1023,7 hPa 0,0 mm 0,0 km/h (0 Bft) O 90 0 min 0,000 mm 0,0 UV-I 0 W/m 9,4 C 1,6 km/h (1 Bft)
06.08.2016 01:38 10,2 C 10,3 C 95 % 1023,7 hPa 0,0 mm 1,6 km/h (1 Bft) S-SW 202 0 min 0,000 mm 0,0 UV-I 0 W/m 9,4 C 3,2 km/h (1 Bft)
06.08.2016 01:39 10,2 C 10,3 C 95 % 1023,7 hPa 0,0 mm 3,2 km/h (1 Bft) W 270 0 min 0,000 mm 0,0 UV-I 0 W/m 9,4 C 4,8 km/h (1 Bft)
06.08.2016 01:40 10,3 C 10,3 C 95 % 1023,8 hPa 0,0 mm 1,6 km/h (1 Bft) W 270 0 min 0,000 mm 0,0 UV-I 0 W/m 9,5 C 1,6 km/h (1 Bft)
06.08.2016 01:41 10,3 C 10,3 C 95 % 1023,8 hPa 0,0 mm 1,6 km/h (1 Bft) W 270 0 min 0,000 mm 0,0 UV-I 0 W/m 9,5 C 3,2 km/h (1 Bft)
06.08.2016 01:42 10,3 C 10,3 C 95 % 1023,8 hPa 0,0 mm 3,2 km/h (1 Bft) W 270 0 min 0,000 mm 0,0 UV-I 0 W/m 9,5 C 4,8 km/h (1 Bft)
06.08.2016 01:43 10,3 C 10,3 C 95 % 1023,8 hPa 0,0 mm 1,6 km/h (1 Bft) W-SW 247 0 min 0,000 mm 0,0 UV-I 0 W/m 9,5 C 3,2 km/h (1 Bft)
06.08.2016 01:44 10,3 C 10,3 C 94 % 1023,8 hPa 0,0 mm 1,6 km/h (1 Bft) SO 135 0 min 0,000 mm 0,0 UV-I 0 W/m 9,4 C 3,2 km/h (1 Bft)
06.08.2016 01:45 10,3 C 10,3 C 95 % 1023,7 hPa 0,0 mm 1,6 km/h (1 Bft) O-SO 112 0 min 0,000 mm 0,0 UV-I 0 W/m 9,5 C 3,2 km/h (1 Bft)
06.08.2016 01:46 10,3 C 10,3 C 95 % 1023,7 hPa 0,0 mm 1,6 km/h (1 Bft) O-SO 112 0 min 0,000 mm 0,0 UV-I 0 W/m 9,5 C 3,2 km/h (1 Bft)
06.08.2016 01:47 10,3 C 10,3 C 95 % 1023,8 hPa 0,0 mm 3,2 km/h (1 Bft) W 270 0 min 0,000 mm 0,0 UV-I 0 W/m 9,5 C 4,8 km/h (1 Bft)
06.08.2016 01:48 10,3 C 10,3 C 95 % 1023,8 hPa 0,0 mm 3,2 km/h (1 Bft) W 270 0 min 0,000 mm 0,0 UV-I 0 W/m 9,5 C 3,2 km/h (1 Bft)
06.08.2016 01:49 10,3 C 10,3 C 95 % 1023,7 hPa 0,0 mm 0,0 km/h (0 Bft) W 270 0 min 0,000 mm 0,0 UV-I 0 W/m 9,5 C 1,6 km/h (1 Bft)
06.08.2016 01:50 10,3 C 10,3 C 95 % 1023,8 hPa 0,0 mm 1,6 km/h (1 Bft) W 270 0 min 0,000 mm 0,0 UV-I 0 W/m 9,5 C 3,2 km/h (1 Bft)
06.08.2016 01:51 10,3 C 10,3 C 95 % 1023,7 hPa 0,0 mm 1,6 km/h (1 Bft) S-SO 157 0 min 0,000 mm 0,0 UV-I 0 W/m 9,5 C 3,2 km/h (1 Bft)
06.08.2016 01:52 10,3 C 10,3 C 95 % 1023,7 hPa 0,0 mm 1,6 km/h (1 Bft) W-SW 247 0 min 0,000 mm 0,0 UV-I 0 W/m 9,5 C 3,2 km/h (1 Bft)
06.08.2016 01:53 10,3 C 10,3 C 94 % 1023,8 hPa 0,0 mm 4,8 km/h (1 Bft) S 180 0 min 0,000 mm 0,0 UV-I 0 W/m 9,4 C 9,7 km/h (2 Bft)
06.08.2016 01:54 10,3 C 10,3 C 94 % 1023,7 hPa 0,0 mm 3,2 km/h (1 Bft) SO 135 0 min 0,000 mm 0,0 UV-I 0 W/m 9,4 C 4,8 km/h (1 Bft)
06.08.2016 01:55 10,3 C 10,3 C 95 % 1023,8 hPa 0,0 mm 1,6 km/h (1 Bft) SO 135 0 min 0,000 mm 0,0 UV-I 0 W/m 9,5 C 3,2 km/h (1 Bft)
06.08.2016 01:56 10,3 C 10,3 C 95 % 1023,8 hPa 0,0 mm 1,6 km/h (1 Bft) SO 135 0 min 0,000 mm 0,0 UV-I 0 W/m 9,5 C 3,2 km/h (1 Bft)
06.08.2016 01:57 10,3 C 10,3 C 95 % 1023,8 hPa 0,0 mm 3,2 km/h (1 Bft) N-NO 22 0 min 0,000 mm 0,0 UV-I 0 W/m 9,5 C 3,2 km/h (1 Bft)
06.08.2016 01:58 10,3 C 10,3 C 95 % 1023,8 hPa 0,0 mm 1,6 km/h (1 Bft) O-NO 67 0 min 0,000 mm 0,0 UV-I 0 W/m 9,5 C 3,2 km/h (1 Bft)
06.08.2016 01:59 10,3 C 10,3 C 95 % 1023,8 hPa 0,0 mm 1,6 km/h (1 Bft) W-SW 247 0 min 0,000 mm 0,0 UV-I 0 W/m 9,5 C 4,8 km/h (1 Bft)
06.08.2016 02:00 10,3 C 10,3 C 95 % 1023,8 hPa 0,0 mm 3,2 km/h (1 Bft) SW 225 0 min 0,000 mm 0,0 UV-I 0 W/m 9,5 C 6,4 km/h (2 Bft)
06.08.2016 02:01 10,4 C 10,4 C 95 % 1023,8 hPa 0,0 mm 1,6 km/h (1 Bft) SW 225 0 min 0,000 mm 0,0 UV-I 0 W/m 9,6 C 3,2 km/h (1 Bft)
06.08.2016 02:02 10,4 C 10,4 C 95 % 1023,8 hPa 0,0 mm 0,0 km/h (0 Bft) N 0 0 min 0,000 mm 0,0 UV-I 0 W/m 9,6 C 0,0 km/h (0 Bft)
06.08.2016 02:03 10,3 C 10,4 C 95 % 1023,8 hPa 0,0 mm 0,0 km/h (0 Bft) SW 225 0 min 0,000 mm 0,0 UV-I 0 W/m 9,5 C 1,6 km/h (1 Bft)
06.08.2016 02:04 10,3 C 10,4 C 95 % 1023,8 hPa 0,0 mm 0,0 km/h (0 Bft) N 0 0 min 0,000 mm 0,0 UV-I 0 W/m 9,5 C 0,0 km/h (0 Bft)
06.08.2016 02:05 10,3 C 10,4 C 95 % 1023,8 hPa 0,0 mm 1,6 km/h (1 Bft) SW 225 0 min 0,000 mm 0,0 UV-I 0 W/m 9,5 C 4,8 km/h (1 Bft)
06.08.2016 02:06 10,3 C 10,3 C 95 % 1023,8 hPa 0,0 mm 1,6 km/h (1 Bft) O-SO 112 0 min 0,000 mm 0,0 UV-I 0 W/m 9,5 C 3,2 km/h (1 Bft)
06.08.2016 02:07 10,3 C 10,3 C 95 % 1023,8 hPa 0,0 mm 3,2 km/h (1 Bft) S-SO 157 0 min 0,000 mm 0,0 UV-I 0 W/m 9,5 C 6,4 km/h (2 Bft)
06.08.2016 02:08 10,3 C 10,3 C 95 % 1023,8 hPa 0,0 mm 4,8 km/h (1 Bft) SO 135 0 min 0,000 mm 0,0 UV-I 0 W/m 9,5 C 6,4 km/h (2 Bft)
06.08.2016 02:09 10,3 C 10,3 C 95 % 1023,8 hPa 0,0 mm 3,2 km/h (1 Bft) SO 135 0 min 0,000 mm 0,0 UV-I 0 W/m 9,5 C 4,8 km/h (1 Bft)
06.08.2016 02:10 10,3 C 10,3 C 95 % 1023,8 hPa 0,0 mm 1,6 km/h (1 Bft) S 180 0 min 0,000 mm 0,0 UV-I 0 W/m 9,5 C 4,8 km/h (1 Bft)
06.08.2016 02:11 10,3 C 10,3 C 95 % 1023,8 hPa 0,0 mm 0,0 km/h (0 Bft) S-SO 157 0 min 0,000 mm 0,0 UV-I 0 W/m 9,5 C 1,6 km/h (1 Bft)
06.08.2016 02:12 10,3 C 10,3 C 95 % 1023,9 hPa 0,0 mm 3,2 km/h (1 Bft) S-SO 157 0 min 0,000 mm 0,0 UV-I 0 W/m 9,5 C 8,0 km/h (2 Bft)
06.08.2016 02:13 10,4 C 10,4 C 94 % 1023,9 hPa 0,0 mm 1,6 km/h (1 Bft) S-SW 202 0 min 0,000 mm 0,0 UV-I 0 W/m 9,5 C 4,8 km/h (1 Bft)
06.08.2016 02:14 10,4 C 10,4 C 94 % 1023,8 hPa 0,0 mm 3,2 km/h (1 Bft) S 180 0 min 0,000 mm 0,0 UV-I 0 W/m 9,5 C 4,8 km/h (1 Bft)
06.08.2016 02:15 10,4 C 10,4 C 95 % 1023,8 hPa 0,0 mm 1,6 km/h (1 Bft) SO 135 0 min 0,000 mm 0,0 UV-I 0 W/m 9,6 C 3,2 km/h (1 Bft)
06.08.2016 02:16 10,4 C 10,4 C 95 % 1023,7 hPa 0,0 mm 0,0 km/h (0 Bft) SO 135 0 min 0,000 mm 0,0 UV-I 0 W/m 9,6 C 1,6 km/h (1 Bft)
06.08.2016 02:17 10,4 C 10,4 C 95 % 1023,8 hPa 0,0 mm 1,6 km/h (1 Bft) SO 135 0 min 0,000 mm 0,0 UV-I 0 W/m 9,6 C 1,6 km/h (1 Bft)
06.08.2016 02:18 10,4 C 10,4 C 95 % 1023,8 hPa 0,0 mm 1,6 km/h (1 Bft) SO 135 0 min 0,000 mm 0,0 UV-I 0 W/m 9,6 C 3,2 km/h (1 Bft)
06.08.2016 02:19 10,4 C 10,4 C 94 % 1023,8 hPa 0,0 mm 0,0 km/h (0 Bft) SO 135 0 min 0,000 mm 0,0 UV-I 0 W/m 9,5 C 1,6 km/h (1 Bft)
06.08.2016 02:20 10,4 C 10,4 C 95 % 1023,8 hPa 0,0 mm 1,6 km/h (1 Bft) SW 225 0 min 0,000 mm 0,0 UV-I 0 W/m 9,6 C 3,2 km/h (1 Bft)
06.08.2016 02:21 10,4 C 10,4 C 94 % 1023,8 hPa 0,0 mm 1,6 km/h (1 Bft) W-SW 247 0 min 0,000 mm 0,0 UV-I 0 W/m 9,5 C 3,2 km/h (1 Bft)
06.08.2016 02:22 10,5 C 10,5 C 94 % 1023,9 hPa 0,0 mm 3,2 km/h (1 Bft) S-SO 157 0 min 0,000 mm 0,0 UV-I 0 W/m 9,6 C 6,4 km/h (2 Bft)
06.08.2016 02:23 10,5 C 10,5 C 94 % 1023,9 hPa 0,0 mm 3,2 km/h (1 Bft) S-SW 202 0 min 0,000 mm 0,0 UV-I 0 W/m 9,6 C 8,0 km/h (2 Bft)
06.08.2016 02:24 10,5 C 10,5 C 94 % 1023,9 hPa 0,0 mm 1,6 km/h (1 Bft) SO 135 0 min 0,000 mm 0,0 UV-I 0 W/m 9,6 C 3,2 km/h (1 Bft)
06.08.2016 02:25 10,5 C 10,5 C 94 % 1023,9 hPa 0,0 mm 1,6 km/h (1 Bft) SO 135 0 min 0,000 mm 0,0 UV-I 0 W/m 9,6 C 1,6 km/h (1 Bft)
06.08.2016 02:26 10,5 C 10,5 C 94 % 1024,0 hPa 0,0 mm 3,2 km/h (1 Bft) W-SW 247 0 min 0,000 mm 0,0 UV-I 0 W/m 9,6 C 3,2 km/h (1 Bft)
06.08.2016 02:27 10,6 C 10,6 C 94 % 1023,9 hPa 0,0 mm 1,6 km/h (1 Bft) W-SW 247 0 min 0,000 mm 0,0 UV-I 0 W/m 9,7 C 3,2 km/h (1 Bft)
06.08.2016 02:28 10,6 C 10,6 C 93 % 1023,8 hPa 0,0 mm 3,2 km/h (1 Bft) S 180 0 min 0,000 mm 0,0 UV-I 0 W/m 9,5 C 4,8 km/h (1 Bft)
06.08.2016 02:29 10,6 C 10,6 C 94 % 1023,9 hPa 0,0 mm 3,2 km/h (1 Bft) S-SO 157 0 min 0,000 mm 0,0 UV-I 0 W/m 9,7 C 4,8 km/h (1 Bft)
06.08.2016 02:30 10,6 C 10,6 C 94 % 1023,9 hPa 0,0 mm 3,2 km/h (1 Bft) O-SO 112 0 min 0,000 mm 0,0 UV-I 0 W/m 9,7 C 4,8 km/h (1 Bft)
06.08.2016 02:31 10,5 C 10,6 C 94 % 1023,9 hPa 0,0 mm 1,6 km/h (1 Bft) O-SO 112 0 min 0,000 mm 0,0 UV-I 0 W/m 9,6 C 3,2 km/h (1 Bft)
06.08.2016 02:32 10,4 C 10,5 C 94 % 1023,9 hPa 0,0 mm 0,0 km/h (0 Bft) O-SO 112 0 min 0,000 mm 0,0 UV-I 0 W/m 9,5 C 1,6 km/h (1 Bft)
06.08.2016 02:33 10,4 C 10,4 C 94 % 1023,9 hPa 0,0 mm 1,6 km/h (1 Bft) O-SO 112 0 min 0,000 mm 0,0 UV-I 0 W/m 9,5 C 3,2 km/h (1 Bft)
06.08.2016 02:34 10,4 C 10,4 C 94 % 1023,9 hPa 0,0 mm 1,6 km/h (1 Bft) O-SO 112 0 min 0,000 mm 0,0 UV-I 0 W/m 9,5 C 3,2 km/h (1 Bft)
06.08.2016 02:35 10,4 C 10,4 C 94 % 1023,9 hPa 0,0 mm 1,6 km/h (1 Bft) O-NO 67 0 min 0,000 mm 0,0 UV-I 0 W/m 9,5 C 4,8 km/h (1 Bft)
06.08.2016 02:36 10,4 C 10,4 C 94 % 1023,9 hPa 0,0 mm 1,6 km/h (1 Bft) O 90 0 min 0,000 mm 0,0 UV-I 0 W/m 9,5 C 3,2 km/h (1 Bft)
06.08.2016 02:37 10,4 C 10,4 C 95 % 1023,9 hPa 0,0 mm 3,2 km/h (1 Bft) O 90 0 min 0,000 mm 0,0 UV-I 0 W/m 9,6 C 6,4 km/h (2 Bft)
06.08.2016 02:38 10,4 C 10,4 C 95 % 1023,9 hPa 0,0 mm 3,2 km/h (1 Bft) O 90 0 min 0,000 mm 0,0 UV-I 0 W/m 9,6 C 3,2 km/h (1 Bft)
06.08.2016 02:39 10,4 C 10,4 C 95 % 1023,9 hPa 0,0 mm 4,8 km/h (1 Bft) W 270 0 min 0,000 mm 0,0 UV-I 0 W/m 9,6 C 6,4 km/h (2 Bft)
06.08.2016 02:40 10,4 C 10,4 C 94 % 1023,8 hPa 0,0 mm 3,2 km/h (1 Bft) S-SW 202 0 min 0,000 mm 0,0 UV-I 0 W/m 9,5 C 4,8 km/h (1 Bft)
06.08.2016 02:41 10,4 C 10,5 C 94 % 1023,9 hPa 0,0 mm 1,6 km/h (1 Bft) S-SW 202 0 min 0,000 mm 0,0 UV-I 0 W/m 9,5 C 1,6 km/h (1 Bft)
06.08.2016 02:42 10,4 C 10,5 C 94 % 1023,9 hPa 0,0 mm 1,6 km/h (1 Bft) S-SW 202 0 min 0,000 mm 0,0 UV-I 0 W/m 9,5 C 3,2 km/h (1 Bft)
06.08.2016 02:43 10,4 C 10,5 C 94 % 1023,9 hPa 0,0 mm 3,2 km/h (1 Bft) S-SO 157 0 min 0,000 mm 0,0 UV-I 0 W/m 9,5 C 6,4 km/h (2 Bft)
06.08.2016 02:44 10,4 C 10,4 C 94 % 1023,9 hPa 0,0 mm 1,6 km/h (1 Bft) S-SO 157 0 min 0,000 mm 0,0 UV-I 0 W/m 9,5 C 3,2 km/h (1 Bft)
06.08.2016 02:45 10,4 C 10,4 C 94 % 1023,9 hPa 0,0 mm 0,0 km/h (0 Bft) S-SO 157 0 min 0,000 mm 0,0 UV-I 0 W/m 9,5 C 3,2 km/h (1 Bft)
06.08.2016 02:46 10,4 C 10,4 C 95 % 1023,9 hPa 0,0 mm 1,6 km/h (1 Bft) W-SW 247 0 min 0,000 mm 0,0 UV-I 0 W/m 9,6 C 3,2 km/h (1 Bft)
06.08.2016 02:47 10,4 C 10,4 C 95 % 1023,9 hPa 0,0 mm 1,6 km/h (1 Bft) W-SW 247 0 min 0,000 mm 0,0 UV-I 0 W/m 9,6 C 3,2 km/h (1 Bft)
06.08.2016 02:48 10,4 C 10,4 C 95 % 1023,9 hPa 0,0 mm 1,6 km/h (1 Bft) S-SW 202 0 min 0,000 mm 0,0 UV-I 0 W/m 9,6 C 6,4 km/h (2 Bft)
06.08.2016 02:49 10,4 C 10,4 C 95 % 1023,9 hPa 0,0 mm 1,6 km/h (1 Bft) S-SW 202 0 min 0,000 mm 0,0 UV-I 0 W/m 9,6 C 3,2 km/h (1 Bft)
06.08.2016 02:50 10,4 C 10,4 C 95 % 1023,9 hPa 0,0 mm 0,0 km/h (0 Bft) S-SW 202 0 min 0,000 mm 0,0 UV-I 0 W/m 9,6 C 1,6 km/h (1 Bft)
06.08.2016 02:51 10,4 C 10,4 C 95 % 1023,9 hPa 0,0 mm 1,6 km/h (1 Bft) S-SW 202 0 min 0,000 mm 0,0 UV-I 0 W/m 9,6 C 3,2 km/h (1 Bft)
06.08.2016 02:52 10,3 C 10,4 C 95 % 1023,9 hPa 0,0 mm 0,0 km/h (0 Bft) S-SW 202 0 min 0,000 mm 0,0 UV-I 0 W/m 9,5 C 1,6 km/h (1 Bft)
06.08.2016 02:53 10,3 C 10,3 C 95 % 1023,9 hPa 0,0 mm 1,6 km/h (1 Bft) S-SW 202 0 min 0,000 mm 0,0 UV-I 0 W/m 9,5 C 1,6 km/h (1 Bft)
06.08.2016 02:54 10,3 C 10,3 C 95 % 1023,9 hPa 0,0 mm 3,2 km/h (1 Bft) S-SW 202 0 min 0,000 mm 0,0 UV-I 0 W/m 9,5 C 4,8 km/h (1 Bft)
06.08.2016 02:55 10,4 C 10,4 C 95 % 1023,9 hPa 0,0 mm 3,2 km/h (1 Bft) S-SW 202 0 min 0,000 mm 0,0 UV-I 0 W/m 9,6 C 4,8 km/h (1 Bft)
06.08.2016 02:56 10,4 C 10,4 C 95 % 1023,9 hPa 0,0 mm 3,2 km/h (1 Bft) S 180 0 min 0,000 mm 0,0 UV-I 0 W/m 9,6 C 6,4 km/h (2 Bft)
06.08.2016 02:57 10,3 C 10,4 C 95 % 1023,9 hPa 0,0 mm 0,0 km/h (0 Bft) S 180 0 min 0,000 mm 0,0 UV-I 0 W/m 9,5 C 1,6 km/h (1 Bft)
06.08.2016 02:58 10,3 C 10,4 C 95 % 1023,9 hPa 0,0 mm 0,0 km/h (0 Bft) S 180 0 min 0,000 mm 0,0 UV-I 0 W/m 9,5 C 1,6 km/h (1 Bft)
06.08.2016 02:59 10,4 C 10,4 C 95 % 1023,9 hPa 0,0 mm 1,6 km/h (1 Bft) S 180 0 min 0,000 mm 0,0 UV-I 0 W/m 9,6 C 3,2 km/h (1 Bft)
06.08.2016 03:00 10,4 C 10,4 C 95 % 1024,0 hPa 0,0 mm 1,6 km/h (1 Bft) S 180 0 min 0,000 mm 0,0 UV-I 0 W/m 9,6 C 3,2 km/h (1 Bft)
06.08.2016 03:01 10,4 C 10,4 C 95 % 1024,0 hPa 0,0 mm 1,6 km/h (1 Bft) S 180 0 min 0,000 mm 0,0 UV-I 0 W/m 9,6 C 3,2 km/h (1 Bft)
06.08.2016 03:02 10,4 C 10,4 C 95 % 1024,0 hPa 0,0 mm 3,2 km/h (1 Bft) S-SO 157 0 min 0,000 mm 0,0 UV-I 0 W/m 9,6 C 6,4 km/h (2 Bft)
06.08.2016 03:03 10,3 C 10,4 C 95 % 1023,9 hPa 0,0 mm 3,2 km/h (1 Bft) S-SO 157 0 min 0,000 mm 0,0 UV-I 0 W/m 9,5 C 3,2 km/h (1 Bft)
06.08.2016 03:04 10,3 C 10,4 C 95 % 1024,0 hPa 0,0 mm 1,6 km/h (1 Bft) S-SO 157 0 min 0,000 mm 0,0 UV-I 0 W/m 9,5 C 3,2 km/h (1 Bft)
06.08.2016 03:05 10,3 C 10,3 C 95 % 1024,0 hPa 0,0 mm 3,2 km/h (1 Bft) W-NW 292 0 min 0,000 mm 0,0 UV-I 0 W/m 9,5 C 3,2 km/h (1 Bft)
06.08.2016 03:06 10,3 C 10,3 C 95 % 1024,0 hPa 0,0 mm 1,6 km/h (1 Bft) W-NW 292 0 min 0,000 mm 0,0 UV-I 0 W/m 9,5 C 3,2 km/h (1 Bft)
06.08.2016 03:07 10,3 C 10,3 C 95 % 1023,9 hPa 0,0 mm 1,6 km/h (1 Bft) W-NW 292 0 min 0,000 mm 0,0 UV-I 0 W/m 9,5 C 3,2 km/h (1 Bft)
06.08.2016 03:08 10,3 C 10,4 C 95 % 1023,9 hPa 0,0 mm 3,2 km/h (1 Bft) S-SO 157 0 min 0,000 mm 0,0 UV-I 0 W/m 9,5 C 6,4 km/h (2 Bft)
06.08.2016 03:09 10,3 C 10,3 C 95 % 1024,0 hPa 0,0 mm 0,0 km/h (0 Bft) S-SO 157 0 min 0,000 mm 0,0 UV-I 0 W/m 9,5 C 1,6 km/h (1 Bft)
06.08.2016 03:10 10,3 C 10,3 C 95 % 1024,0 hPa 0,0 mm 1,6 km/h (1 Bft) S-SO 157 0 min 0,000 mm 0,0 UV-I 0 W/m 9,5 C 3,2 km/h (1 Bft)
06.08.2016 03:11 10,3 C 10,3 C 95 % 1024,0 hPa 0,0 mm 3,2 km/h (1 Bft) W 270 0 min 0,000 mm 0,0 UV-I 0 W/m 9,5 C 3,2 km/h (1 Bft)
06.08.2016 03:12 10,3 C 10,3 C 95 % 1024,0 hPa 0,0 mm 1,6 km/h (1 Bft) W-SW 247 0 min 0,000 mm 0,0 UV-I 0 W/m 9,5 C 3,2 km/h (1 Bft)
06.08.2016 03:13 10,3 C 10,3 C 95 % 1024,0 hPa 0,0 mm 3,2 km/h (1 Bft) S 180 0 min 0,000 mm 0,0 UV-I 0 W/m 9,5 C 3,2 km/h (1 Bft)
06.08.2016 03:14 10,3 C 10,3 C 95 % 1024,1 hPa 0,0 mm 3,2 km/h (1 Bft) SO 135 0 min 0,000 mm 0,0 UV-I 0 W/m 9,5 C 6,4 km/h (2 Bft)
06.08.2016 03:15 10,3 C 10,3 C 95 % 1024,1 hPa 0,0 mm 1,6 km/h (1 Bft) SO 135 0 min 0,000 mm 0,0 UV-I 0 W/m 9,5 C 3,2 km/h (1 Bft)
06.08.2016 03:16 10,3 C 10,3 C 95 % 1024,0 hPa 0,0 mm 1,6 km/h (1 Bft) W-SW 247 0 min 0,000 mm 0,0 UV-I 0 W/m 9,5 C 3,2 km/h (1 Bft)
06.08.2016 03:17 10,3 C 10,3 C 95 % 1024,1 hPa 0,0 mm 0,0 km/h (0 Bft) W-SW 247 0 min 0,000 mm 0,0 UV-I 0 W/m 9,5 C 1,6 km/h (1 Bft)
06.08.2016 03:18 10,3 C 10,3 C 95 % 1024,1 hPa 0,0 mm 1,6 km/h (1 Bft) S-SW 202 0 min 0,000 mm 0,0 UV-I 0 W/m 9,5 C 3,2 km/h (1 Bft)
06.08.2016 03:19 10,3 C 10,3 C 95 % 1024,0 hPa 0,0 mm 1,6 km/h (1 Bft) S-SW 202 0 min 0,000 mm 0,0 UV-I 0 W/m 9,5 C 1,6 km/h (1 Bft)
06.08.2016 03:20 10,3 C 10,3 C 95 % 1024,1 hPa 0,0 mm 0,0 km/h (0 Bft) S-SW 202 0 min 0,000 mm 0,0 UV-I 0 W/m 9,5 C 1,6 km/h (1 Bft)
06.08.2016 03:21 10,3 C 10,3 C 95 % 1024,1 hPa 0,0 mm 0,0 km/h (0 Bft) S-SW 202 0 min 0,000 mm 0,0 UV-I 0 W/m 9,5 C 1,6 km/h (1 Bft)
06.08.2016 03:22 10,3 C 10,3 C 95 % 1024,1 hPa 0,0 mm 1,6 km/h (1 Bft) S-SW 202 0 min 0,000 mm 0,0 UV-I 0 W/m 9,5 C 4,8 km/h (1 Bft)
06.08.2016 03:23 10,3 C 10,3 C 95 % 1024,1 hPa 0,0 mm 4,8 km/h (1 Bft) S 180 0 min 0,000 mm 0,0 UV-I 0 W/m 9,5 C 6,4 km/h (2 Bft)
06.08.2016 03:24 10,3 C 10,4 C 95 % 1024,1 hPa 0,0 mm 1,6 km/h (1 Bft) S 180 0 min 0,000 mm 0,0 UV-I 0 W/m 9,5 C 3,2 km/h (1 Bft)
06.08.2016 03:25 10,3 C 10,3 C 95 % 1024,1 hPa 0,0 mm 1,6 km/h (1 Bft) S 180 0 min 0,000 mm 0,0 UV-I 0 W/m 9,5 C 3,2 km/h (1 Bft)
06.08.2016 03:26 10,3 C 10,3 C 95 % 1024,1 hPa 0,0 mm 1,6 km/h (1 Bft) S 180 0 min 0,000 mm 0,0 UV-I 0 W/m 9,5 C 1,6 km/h (1 Bft)
06.08.2016 03:27 10,3 C 10,3 C 95 % 1024,1 hPa 0,0 mm 0,0 km/h (0 Bft) S 180 0 min 0,000 mm 0,0 UV-I 0 W/m 9,5 C 1,6 km/h (1 Bft)
06.08.2016 03:28 10,3 C 10,3 C 95 % 1024,1 hPa 0,0 mm 1,6 km/h (1 Bft) S 180 0 min 0,000 mm 0,0 UV-I 0 W/m 9,5 C 3,2 km/h (1 Bft)
06.08.2016 03:29 10,3 C 10,3 C 95 % 1024,1 hPa 0,0 mm 1,6 km/h (1 Bft) S 180 0 min 0,000 mm 0,0 UV-I 0 W/m 9,5 C 3,2 km/h (1 Bft)
06.08.2016 03:30 10,3 C 10,3 C 95 % 1024,1 hPa 0,0 mm 0,0 km/h (0 Bft) S 180 0 min 0,000 mm 0,0 UV-I 0 W/m 9,5 C 1,6 km/h (1 Bft)
06.08.2016 03:31 10,2 C 10,3 C 95 % 1024,1 hPa 0,0 mm 1,6 km/h (1 Bft) S 180 0 min 0,000 mm 0,0 UV-I 0 W/m 9,4 C 3,2 km/h (1 Bft)
06.08.2016 03:32 10,3 C 10,3 C 95 % 1024,0 hPa 0,0 mm 3,2 km/h (1 Bft) S 180 0 min 0,000 mm 0,0 UV-I 0 W/m 9,5 C 6,4 km/h (2 Bft)
06.08.2016 03:33 10,3 C 10,3 C 95 % 1024,1 hPa 0,0 mm 3,2 km/h (1 Bft) S 180 0 min 0,000 mm 0,0 UV-I 0 W/m 9,5 C 4,8 km/h (1 Bft)
06.08.2016 03:34 10,2 C 10,2 C 96 % 1024,1 hPa 0,0 mm 1,6 km/h (1 Bft) S 180 0 min 0,000 mm 0,0 UV-I 0 W/m 9,6 C 3,2 km/h (1 Bft)
06.08.2016 03:35 10,2 C 10,2 C 96 % 1024,2 hPa 0,0 mm 1,6 km/h (1 Bft) S 180 0 min 0,000 mm 0,0 UV-I 0 W/m 9,6 C 1,6 km/h (1 Bft)
06.08.2016 03:36 10,2 C 10,2 C 96 % 1024,2 hPa 0,0 mm 1,6 km/h (1 Bft) S 180 0 min 0,000 mm 0,0 UV-I 0 W/m 9,6 C 6,4 km/h (2 Bft)
06.08.2016 03:37 10,2 C 10,2 C 96 % 1024,2 hPa 0,0 mm 3,2 km/h (1 Bft) S 180 0 min 0,000 mm 0,0 UV-I 0 W/m 9,6 C 4,8 km/h (1 Bft)
06.08.2016 03:38 10,2 C 10,3 C 96 % 1024,2 hPa 0,0 mm 1,6 km/h (1 Bft) S 180 0 min 0,000 mm 0,0 UV-I 0 W/m 9,6 C 1,6 km/h (1 Bft)
06.08.2016 03:39 10,3 C 10,3 C 96 % 1024,2 hPa 0,0 mm 3,2 km/h (1 Bft) S 180 0 min 0,000 mm 0,0 UV-I 0 W/m 9,7 C 3,2 km/h (1 Bft)
06.08.2016 03:40 10,3 C 10,3 C 96 % 1024,2 hPa 0,0 mm 1,6 km/h (1 Bft) S 180 0 min 0,000 mm 0,0 UV-I 0 W/m 9,7 C 3,2 km/h (1 Bft)
06.08.2016 03:41 10,3 C 10,3 C 96 % 1024,2 hPa 0,0 mm 1,6 km/h (1 Bft) S 180 0 min 0,000 mm 0,0 UV-I 0 W/m 9,7 C 3,2 km/h (1 Bft)
06.08.2016 03:42 10,3 C 10,3 C 96 % 1024,2 hPa 0,0 mm 3,2 km/h (1 Bft) S-SW 202 0 min 0,000 mm 0,0 UV-I 0 W/m 9,7 C 6,4 km/h (2 Bft)
06.08.2016 03:43 10,4 C 10,4 C 96 % 1024,1 hPa 0,0 mm 4,8 km/h (1 Bft) S-SW 202 0 min 0,000 mm 0,0 UV-I 0 W/m 9,8 C 8,0 km/h (2 Bft)
06.08.2016 03:44 10,4 C 10,4 C 96 % 1024,2 hPa 0,0 mm 3,2 km/h (1 Bft) S-SW 202 0 min 0,000 mm 0,0 UV-I 0 W/m 9,8 C 3,2 km/h (1 Bft)
06.08.2016 03:45 10,5 C 10,5 C 95 % 1024,2 hPa 0,0 mm 4,8 km/h (1 Bft) S 180 0 min 0,000 mm 0,0 UV-I 0 W/m 9,7 C 9,7 km/h (2 Bft)
06.08.2016 03:46 10,6 C 10,6 C 95 % 1024,2 hPa 0,0 mm 1,6 km/h (1 Bft) S 180 0 min 0,000 mm 0,0 UV-I 0 W/m 9,8 C 3,2 km/h (1 Bft)
06.08.2016 03:47 10,6 C 10,6 C 95 % 1024,2 hPa 0,0 mm 0,0 km/h (0 Bft) S 180 0 min 0,000 mm 0,0 UV-I 0 W/m 9,8 C 1,6 km/h (1 Bft)
06.08.2016 03:48 10,6 C 10,6 C 95 % 1024,2 hPa 0,0 mm 1,6 km/h (1 Bft) S 180 0 min 0,000 mm 0,0 UV-I 0 W/m 9,8 C 3,2 km/h (1 Bft)
06.08.2016 03:49 10,7 C 10,7 C 95 % 1024,3 hPa 0,0 mm 1,6 km/h (1 Bft) S-SW 202 0 min 0,000 mm 0,0 UV-I 0 W/m 9,9 C 3,2 km/h (1 Bft)
06.08.2016 03:50 10,7 C 10,7 C 95 % 1024,3 hPa 0,0 mm 0,0 km/h (0 Bft) S-SW 202 0 min 0,000 mm 0,0 UV-I 0 W/m 9,9 C 1,6 km/h (1 Bft)
06.08.2016 03:51 10,6 C 10,7 C 95 % 1024,3 hPa 0,0 mm 1,6 km/h (1 Bft) S-SW 202 0 min 0,000 mm 0,0 UV-I 0 W/m 9,8 C 3,2 km/h (1 Bft)
06.08.2016 03:52 10,6 C 10,6 C 95 % 1024,2 hPa 0,0 mm 3,2 km/h (1 Bft) S-SO 157 0 min 0,000 mm 0,0 UV-I 0 W/m 9,8 C 4,8 km/h (1 Bft)
06.08.2016 03:53 10,6 C 10,6 C 95 % 1024,3 hPa 0,0 mm 1,6 km/h (1 Bft) S-SO 157 0 min 0,000 mm 0,0 UV-I 0 W/m 9,8 C 3,2 km/h (1 Bft)
06.08.2016 03:54 10,6 C 10,7 C 95 % 1024,3 hPa 0,0 mm 1,6 km/h (1 Bft) S 180 0 min 0,000 mm 0,0 UV-I 0 W/m 9,8 C 4,8 km/h (1 Bft)
06.08.2016 03:55 10,7 C 10,7 C 95 % 1024,3 hPa 0,0 mm 3,2 km/h (1 Bft) S 180 0 min 0,000 mm 0,0 UV-I 0 W/m 9,9 C 6,4 km/h (2 Bft)
06.08.2016 03:56 10,7 C 10,7 C 95 % 1024,4 hPa 0,0 mm 4,8 km/h (1 Bft) S-SO 157 0 min 0,000 mm 0,0 UV-I 0 W/m 9,9 C 6,4 km/h (2 Bft)
06.08.2016 03:57 10,7 C 10,7 C 95 % 1024,4 hPa 0,0 mm 1,6 km/h (1 Bft) S-SO 157 0 min 0,000 mm 0,0 UV-I 0 W/m 9,9 C 3,2 km/h (1 Bft)
06.08.2016 03:58 10,7 C 10,7 C 95 % 1024,3 hPa 0,0 mm 1,6 km/h (1 Bft) SO 135 0 min 0,000 mm 0,0 UV-I 0 W/m 9,9 C 3,2 km/h (1 Bft)
06.08.2016 03:59 10,7 C 10,7 C 95 % 1024,4 hPa 0,0 mm 3,2 km/h (1 Bft) SO 135 0 min 0,000 mm 0,0 UV-I 0 W/m 9,9 C 4,8 km/h (1 Bft)
06.08.2016 04:00 10,7 C 10,7 C 95 % 1024,4 hPa 0,0 mm 1,6 km/h (1 Bft) SO 135 0 min 0,000 mm 0,0 UV-I 0 W/m 9,9 C 1,6 km/h (1 Bft)
06.08.2016 04:01 10,7 C 10,7 C 95 % 1024,4 hPa 0,0 mm 4,8 km/h (1 Bft) S-SW 202 0 min 0,000 mm 0,0 UV-I 0 W/m 9,9 C 9,7 km/h (2 Bft)
06.08.2016 04:02 10,8 C 10,8 C 94 % 1024,3 hPa 0,0 mm 3,2 km/h (1 Bft) SW 225 0 min 0,000 mm 0,0 UV-I 0 W/m 9,9 C 4,8 km/h (1 Bft)
06.08.2016 04:03 10,8 C 10,8 C 94 % 1024,4 hPa 0,0 mm 4,8 km/h (1 Bft) S-SW 202 0 min 0,000 mm 0,0 UV-I 0 W/m 9,9 C 6,4 km/h (2 Bft)
06.08.2016 04:04 10,8 C 10,9 C 94 % 1024,3 hPa 0,0 mm 3,2 km/h (1 Bft) S-SW 202 0 min 0,000 mm 0,0 UV-I 0 W/m 9,9 C 8,0 km/h (2 Bft)
06.08.2016 04:05 10,9 C 10,9 C 94 % 1024,3 hPa 0,0 mm 3,2 km/h (1 Bft) S 180 0 min 0,000 mm 0,0 UV-I 0 W/m 10,0 C 8,0 km/h (2 Bft)
06.08.2016 04:06 10,9 C 10,9 C 93 % 1024,3 hPa 0,0 mm 3,2 km/h (1 Bft) S 180 0 min 0,000 mm 0,0 UV-I 0 W/m 9,8 C 4,8 km/h (1 Bft)
06.08.2016 04:07 11,0 C 11,0 C 93 % 1024,4 hPa 0,0 mm 3,2 km/h (1 Bft) S 180 0 min 0,000 mm 0,0 UV-I 0 W/m 9,9 C 3,2 km/h (1 Bft)
06.08.2016 04:08 11,1 C 11,1 C 93 % 1024,4 hPa 0,0 mm 6,4 km/h (2 Bft) S 180 0 min 0,000 mm 0,0 UV-I 0 W/m 10,0 C 11,3 km/h (2 Bft)
06.08.2016 04:09 11,1 C 11,1 C 92 % 1024,3 hPa 0,0 mm 4,8 km/h (1 Bft) S 180 0 min 0,000 mm 0,0 UV-I 0 W/m 9,8 C 9,7 km/h (2 Bft)
06.08.2016 04:10 11,2 C 11,2 C 92 % 1024,3 hPa 0,0 mm 4,8 km/h (1 Bft) S 180 0 min 0,000 mm 0,0 UV-I 0 W/m 9,9 C 8,0 km/h (2 Bft)
06.08.2016 04:11 11,2 C 11,2 C 92 % 1024,4 hPa 0,0 mm 4,8 km/h (1 Bft) S-SW 202 0 min 0,000 mm 0,0 UV-I 0 W/m 9,9 C 6,4 km/h (2 Bft)
06.08.2016 04:12 11,3 C 11,3 C 92 % 1024,4 hPa 0,0 mm 3,2 km/h (1 Bft) S-SW 202 0 min 0,000 mm 0,0 UV-I 0 W/m 10,0 C 4,8 km/h (1 Bft)
06.08.2016 04:13 11,3 C 11,3 C 91 % 1024,4 hPa 0,0 mm 4,8 km/h (1 Bft) S-SW 202 0 min 0,000 mm 0,0 UV-I 0 W/m 9,9 C 8,0 km/h (2 Bft)
06.08.2016 04:14 11,3 C 11,3 C 91 % 1024,4 hPa 0,0 mm 3,2 km/h (1 Bft) S-SW 202 0 min 0,000 mm 0,0 UV-I 0 W/m 9,9 C 8,0 km/h (2 Bft)
06.08.2016 04:15 11,3 C 11,3 C 91 % 1024,4 hPa 0,0 mm 3,2 km/h (1 Bft) S-SW 202 0 min 0,000 mm 0,0 UV-I 0 W/m 9,9 C 8,0 km/h (2 Bft)
06.08.2016 04:16 11,3 C 11,3 C 91 % 1024,4 hPa 0,0 mm 1,6 km/h (1 Bft) W-SW 247 0 min 0,000 mm 0,0 UV-I 0 W/m 9,9 C 4,8 km/h (1 Bft)
06.08.2016 04:17 11,3 C 11,3 C 91 % 1024,4 hPa 0,0 mm 3,2 km/h (1 Bft) SW 225 0 min 0,000 mm 0,0 UV-I 0 W/m 9,9 C 4,8 km/h (1 Bft)
06.08.2016 04:18 11,3 C 11,3 C 91 % 1024,4 hPa 0,0 mm 6,4 km/h (2 Bft) W-SW 247 0 min 0,000 mm 0,0 UV-I 0 W/m 9,9 C 8,0 km/h (2 Bft)
06.08.2016 04:19 11,3 C 11,4 C 91 % 1024,4 hPa 0,0 mm 4,8 km/h (1 Bft) S 180 0 min 0,000 mm 0,0 UV-I 0 W/m 9,9 C 6,4 km/h (2 Bft)
06.08.2016 04:20 11,3 C 11,4 C 91 % 1024,3 hPa 0,0 mm 4,8 km/h (1 Bft) S 180 0 min 0,000 mm 0,0 UV-I 0 W/m 9,9 C 6,4 km/h (2 Bft)
06.08.2016 04:21 11,4 C 11,4 C 91 % 1024,3 hPa 0,0 mm 4,8 km/h (1 Bft) S-SW 202 0 min 0,000 mm 0,0 UV-I 0 W/m 10,0 C 6,4 km/h (2 Bft)
06.08.2016 04:22 11,4 C 11,4 C 91 % 1024,3 hPa 0,0 mm 4,8 km/h (1 Bft) S-SW 202 0 min 0,000 mm 0,0 UV-I 0 W/m 10,0 C 6,4 km/h (2 Bft)
06.08.2016 04:23 11,4 C 11,4 C 91 % 1024,3 hPa 0,0 mm 3,2 km/h (1 Bft) S-SW 202 0 min 0,000 mm 0,0 UV-I 0 W/m 10,0 C 6,4 km/h (2 Bft)
06.08.2016 04:24 11,3 C 11,4 C 91 % 1024,3 hPa 0,0 mm 0,0 km/h (0 Bft) S-SW 202 0 min 0,000 mm 0,0 UV-I 0 W/m 9,9 C 1,6 km/h (1 Bft)
06.08.2016 04:25 11,3 C 11,3 C 91 % 1024,3 hPa 0,0 mm 6,4 km/h (2 Bft) S-SO 157 0 min 0,000 mm 0,0 UV-I 0 W/m 9,9 C 9,7 km/h (2 Bft)
06.08.2016 04:26 11,3 C 11,3 C 91 % 1024,3 hPa 0,0 mm 4,8 km/h (1 Bft) S-SW 202 0 min 0,000 mm 0,0 UV-I 0 W/m 9,9 C 6,4 km/h (2 Bft)
06.08.2016 04:27 11,4 C 11,4 C 91 % 1024,4 hPa 0,0 mm 3,2 km/h (1 Bft) S 180 0 min 0,000 mm 0,0 UV-I 0 W/m 10,0 C 4,8 km/h (1 Bft)
06.08.2016 04:28 11,4 C 11,4 C 91 % 1024,3 hPa 0,0 mm 3,2 km/h (1 Bft) S-SW 202 0 min 0,000 mm 0,0 UV-I 0 W/m 10,0 C 4,8 km/h (1 Bft)
06.08.2016 04:29 11,4 C 11,4 C 92 % 1024,3 hPa 0,0 mm 1,6 km/h (1 Bft) S-SW 202 0 min 0,000 mm 0,0 UV-I 0 W/m 10,1 C 6,4 km/h (2 Bft)
06.08.2016 04:30 11,4 C 11,4 C 91 % 1024,3 hPa 0,0 mm 3,2 km/h (1 Bft) S-SW 202 0 min 0,000 mm 0,0 UV-I 0 W/m 10,0 C 8,0 km/h (2 Bft)
06.08.2016 04:31 11,4 C 11,4 C 91 % 1024,3 hPa 0,0 mm 1,6 km/h (1 Bft) W-SW 247 0 min 0,000 mm 0,0 UV-I 0 W/m 10,0 C 3,2 km/h (1 Bft)
06.08.2016 04:32 11,4 C 11,4 C 91 % 1024,3 hPa 0,0 mm 3,2 km/h (1 Bft) S-SW 202 0 min 0,000 mm 0,0 UV-I 0 W/m 10,0 C 6,4 km/h (2 Bft)
06.08.2016 04:33 11,4 C 11,4 C 91 % 1024,3 hPa 0,0 mm 3,2 km/h (1 Bft) W 270 0 min 0,000 mm 0,0 UV-I 0 W/m 10,0 C 6,4 km/h (2 Bft)
06.08.2016 04:34 11,4 C 11,4 C 91 % 1024,3 hPa 0,0 mm 3,2 km/h (1 Bft) S 180 0 min 0,000 mm 0,0 UV-I 0 W/m 10,0 C 6,4 km/h (2 Bft)
06.08.2016 04:35 11,4 C 11,4 C 91 % 1024,3 hPa 0,0 mm 1,6 km/h (1 Bft) S 180 0 min 0,000 mm 0,0 UV-I 0 W/m 10,0 C 3,2 km/h (1 Bft)
06.08.2016 04:36 11,4 C 11,4 C 91 % 1024,3 hPa 0,0 mm 3,2 km/h (1 Bft) SW 225 0 min 0,000 mm 0,0 UV-I 0 W/m 10,0 C 4,8 km/h (1 Bft)
06.08.2016 04:37 11,4 C 11,4 C 91 % 1024,3 hPa 0,0 mm 3,2 km/h (1 Bft) S-SW 202 0 min 0,000 mm 0,0 UV-I 0 W/m 10,0 C 6,4 km/h (2 Bft)
06.08.2016 04:38 11,4 C 11,4 C 91 % 1024,3 hPa 0,0 mm 4,8 km/h (1 Bft) S 180 0 min 0,000 mm 0,0 UV-I 0 W/m 10,0 C 6,4 km/h (2 Bft)
06.08.2016 04:39 11,4 C 11,4 C 91 % 1024,4 hPa 0,0 mm 4,8 km/h (1 Bft) S-SW 202 0 min 0,000 mm 0,0 UV-I 0 W/m 10,0 C 8,0 km/h (2 Bft)
06.08.2016 04:40 11,4 C 11,4 C 91 % 1024,3 hPa 0,0 mm 4,8 km/h (1 Bft) S-SW 202 0 min 0,000 mm 0,0 UV-I 0 W/m 10,0 C 6,4 km/h (2 Bft)
06.08.2016 04:41 11,5 C 11,5 C 91 % 1024,3 hPa 0,0 mm 4,8 km/h (1 Bft) SW 225 0 min 0,000 mm 0,0 UV-I 0 W/m 10,1 C 6,4 km/h (2 Bft)
06.08.2016 04:42 11,5 C 11,5 C 91 % 1024,3 hPa 0,0 mm 3,2 km/h (1 Bft) S 180 0 min 0,000 mm 0,0 UV-I 0 W/m 10,1 C 8,0 km/h (2 Bft)
06.08.2016 04:43 11,5 C 11,5 C 91 % 1024,3 hPa 0,0 mm 3,2 km/h (1 Bft) W-SW 247 0 min 0,000 mm 0,0 UV-I 0 W/m 10,1 C 4,8 km/h (1 Bft)
06.08.2016 04:44 11,5 C 11,5 C 91 % 1024,3 hPa 0,0 mm 3,2 km/h (1 Bft) S-SW 202 0 min 0,000 mm 0,0 UV-I 0 W/m 10,1 C 4,8 km/h (1 Bft)
06.08.2016 04:45 11,5 C 11,5 C 91 % 1024,3 hPa 0,0 mm 4,8 km/h (1 Bft) S-SO 157 0 min 0,000 mm 0,0 UV-I 0 W/m 10,1 C 8,0 km/h (2 Bft)
06.08.2016 04:46 11,5 C 11,6 C 91 % 1024,3 hPa 0,0 mm 6,4 km/h (2 Bft) S 180 0 min 0,000 mm 0,0 UV-I 0 W/m 10,1 C 9,7 km/h (2 Bft)
06.08.2016 04:47 11,6 C 11,6 C 90 % 1024,4 hPa 0,0 mm 6,4 km/h (2 Bft) S 180 0 min 0,000 mm 0,0 UV-I 0 W/m 10,0 C 11,3 km/h (2 Bft)
06.08.2016 04:48 11,6 C 11,6 C 91 % 1024,3 hPa 0,0 mm 6,4 km/h (2 Bft) S 180 0 min 0,000 mm 0,0 UV-I 0 W/m 10,2 C 9,7 km/h (2 Bft)
06.08.2016 04:49 11,6 C 11,6 C 91 % 1024,3 hPa 0,0 mm 8,0 km/h (2 Bft) S 180 0 min 0,000 mm 0,0 UV-I 0 W/m 10,2 C 9,7 km/h (2 Bft)
06.08.2016 04:50 11,6 C 11,6 C 91 % 1024,3 hPa 0,0 mm 6,4 km/h (2 Bft) SO 135 0 min 0,000 mm 0,0 UV-I 0 W/m 10,2 C 9,7 km/h (2 Bft)
06.08.2016 04:51 11,6 C 11,6 C 91 % 1024,3 hPa 0,0 mm 6,4 km/h (2 Bft) S 180 0 min 0,000 mm 0,0 UV-I 0 W/m 10,2 C 9,7 km/h (2 Bft)
06.08.2016 04:52 11,6 C 11,6 C 91 % 1024,3 hPa 0,0 mm 4,8 km/h (1 Bft) S-SW 202 0 min 0,000 mm 0,0 UV-I 0 W/m 10,2 C 9,7 km/h (2 Bft)
06.08.2016 04:53 11,6 C 11,6 C 91 % 1024,3 hPa 0,0 mm 9,7 km/h (2 Bft) S 180 0 min 0,000 mm 0,0 UV-I 0 W/m 10,2 C 11,3 km/h (2 Bft)
06.08.2016 04:54 11,6 C 11,6 C 91 % 1024,2 hPa 0,0 mm 3,2 km/h (1 Bft) S-SO 157 0 min 0,000 mm 0,0 UV-I 0 W/m 10,2 C 11,3 km/h (2 Bft)
06.08.2016 04:55 11,6 C 11,6 C 91 % 1024,2 hPa 0,0 mm 4,8 km/h (1 Bft) S 180 0 min 0,000 mm 0,0 UV-I 0 W/m 10,2 C 11,3 km/h (2 Bft)
06.08.2016 04:56 11,6 C 11,6 C 91 % 1024,2 hPa 0,0 mm 4,8 km/h (1 Bft) S 180 0 min 0,000 mm 0,0 UV-I 0 W/m 10,2 C 11,3 km/h (2 Bft)
06.08.2016 04:57 11,6 C 11,6 C 91 % 1024,2 hPa 0,0 mm 1,6 km/h (1 Bft) W-SW 247 0 min 0,000 mm 0,0 UV-I 0 W/m 10,2 C 3,2 km/h (1 Bft)
06.08.2016 04:58 11,6 C 11,6 C 91 % 1024,3 hPa 0,0 mm 3,2 km/h (1 Bft) W-SW 247 0 min 0,000 mm 0,0 UV-I 0 W/m 10,2 C 4,8 km/h (1 Bft)
06.08.2016 04:59 11,6 C 11,6 C 91 % 1024,3 hPa 0,0 mm 3,2 km/h (1 Bft) S 180 0 min 0,000 mm 0,0 UV-I 0 W/m 10,2 C 4,8 km/h (1 Bft)
06.08.2016 05:00 11,4 C 11,6 C 92 % 1024,3 hPa 0,0 mm 1,6 km/h (1 Bft) S-SW 202 0 min 0,000 mm 0,0 UV-I 0 W/m 10,1 C 4,8 km/h (1 Bft)
06.08.2016 05:01 11,4 C 11,4 C 91 % 1024,3 hPa 0,0 mm 3,2 km/h (1 Bft) S-SW 202 0 min 0,000 mm 0,0 UV-I 0 W/m 10,0 C 6,4 km/h (2 Bft)
06.08.2016 05:02 11,4 C 11,4 C 91 % 1024,3 hPa 0,0 mm 4,8 km/h (1 Bft) S 180 0 min 0,000 mm 0,0 UV-I 0 W/m 10,0 C 8,0 km/h (2 Bft)
06.08.2016 05:03 11,4 C 11,4 C 91 % 1024,2 hPa 0,0 mm 6,4 km/h (2 Bft) S 180 0 min 0,000 mm 0,0 UV-I 0 W/m 10,0 C 8,0 km/h (2 Bft)
06.08.2016 05:04 11,4 C 11,4 C 92 % 1024,2 hPa 0,0 mm 8,0 km/h (2 Bft) S 180 0 min 0,000 mm 0,0 UV-I 0 W/m 10,1 C 11,3 km/h (2 Bft)
06.08.2016 05:05 11,4 C 11,4 C 92 % 1024,3 hPa 0,0 mm 4,8 km/h (1 Bft) S-SW 202 0 min 0,000 mm 0,0 UV-I 0 W/m 10,1 C 8,0 km/h (2 Bft)
06.08.2016 05:06 11,4 C 11,4 C 92 % 1024,3 hPa 0,0 mm 4,8 km/h (1 Bft) S 180 0 min 0,000 mm 0,0 UV-I 0 W/m 10,1 C 8,0 km/h (2 Bft)
06.08.2016 05:07 11,4 C 11,4 C 92 % 1024,3 hPa 0,0 mm 8,0 km/h (2 Bft) S 180 0 min 0,000 mm 0,0 UV-I 0 W/m 10,1 C 11,3 km/h (2 Bft)
06.08.2016 05:08 11,4 C 11,4 C 92 % 1024,3 hPa 0,0 mm 8,0 km/h (2 Bft) S 180 0 min 0,000 mm 0,0 UV-I 0 W/m 10,1 C 11,3 km/h (2 Bft)
06.08.2016 05:09 11,4 C 11,4 C 92 % 1024,3 hPa 0,0 mm 8,0 km/h (2 Bft) S 180 0 min 0,000 mm 0,0 UV-I 0 W/m 10,1 C 9,7 km/h (2 Bft)
06.08.2016 05:10 11,4 C 11,5 C 92 % 1024,3 hPa 0,0 mm 6,4 km/h (2 Bft) S 180 0 min 0,000 mm 0,0 UV-I 0 W/m 10,1 C 11,3 km/h (2 Bft)
06.08.2016 05:11 11,4 C 11,5 C 92 % 1024,3 hPa 0,0 mm 8,0 km/h (2 Bft) S 180 0 min 0,000 mm 0,0 UV-I 0 W/m 10,1 C 11,3 km/h (2 Bft)
06.08.2016 05:12 11,5 C 11,5 C 92 % 1024,3 hPa 0,0 mm 4,8 km/h (1 Bft) S-SW 202 0 min 0,000 mm 0,0 UV-I 0 W/m 10,2 C 6,4 km/h (2 Bft)
06.08.2016 05:13 11,5 C 11,6 C 91 % 1024,3 hPa 0,0 mm 6,4 km/h (2 Bft) S 180 0 min 0,000 mm 0,0 UV-I 0 W/m 10,1 C 8,0 km/h (2 Bft)
06.08.2016 05:14 11,6 C 11,6 C 92 % 1024,2 hPa 0,0 mm 4,8 km/h (1 Bft) S 180 0 min 0,000 mm 0,0 UV-I 0 W/m 10,3 C 8,0 km/h (2 Bft)
06.08.2016 05:15 11,5 C 11,6 C 92 % 1024,3 hPa 0,0 mm 3,2 km/h (1 Bft) S-SW 202 0 min 0,000 mm 0,0 UV-I 0 W/m 10,2 C 4,8 km/h (1 Bft)
06.08.2016 05:16 11,5 C 11,5 C 92 % 1024,3 hPa 0,0 mm 4,8 km/h (1 Bft) S 180 0 min 0,000 mm 0,0 UV-I 0 W/m 10,2 C 6,4 km/h (2 Bft)
06.08.2016 05:17 11,5 C 11,5 C 92 % 1024,3 hPa 0,0 mm 3,2 km/h (1 Bft) S 180 0 min 0,000 mm 0,0 UV-I 0 W/m 10,2 C 6,4 km/h (2 Bft)
06.08.2016 05:18 11,5 C 11,5 C 92 % 1024,4 hPa 0,0 mm 1,6 km/h (1 Bft) S-SW 202 0 min 0,000 mm 0,0 UV-I 0 W/m 10,2 C 3,2 km/h (1 Bft)
06.08.2016 05:19 11,5 C 11,5 C 92 % 1024,4 hPa 0,0 mm 3,2 km/h (1 Bft) S 180 0 min 0,000 mm 0,0 UV-I 0 W/m 10,2 C 4,8 km/h (1 Bft)
06.08.2016 05:20 11,5 C 11,5 C 93 % 1024,4 hPa 0,0 mm 1,6 km/h (1 Bft) S 180 0 min 0,000 mm 0,0 UV-I 0 W/m 10,4 C 1,6 km/h (1 Bft)
06.08.2016 05:21 11,5 C 11,5 C 93 % 1024,4 hPa 0,0 mm 3,2 km/h (1 Bft) S 180 0 min 0,000 mm 0,0 UV-I 0 W/m 10,4 C 6,4 km/h (2 Bft)
06.08.2016 05:22 11,4 C 11,5 C 93 % 1024,4 hPa 0,0 mm 1,6 km/h (1 Bft) S-SW 202 0 min 0,000 mm 0,0 UV-I 0 W/m 10,3 C 3,2 km/h (1 Bft)
06.08.2016 05:23 11,4 C 11,4 C 93 % 1024,5 hPa 0,0 mm 0,0 km/h (0 Bft) S-SW 202 0 min 0,000 mm 0,0 UV-I 0 W/m 10,3 C 1,6 km/h (1 Bft)
06.08.2016 05:24 11,4 C 11,4 C 93 % 1024,5 hPa 0,0 mm 0,0 km/h (0 Bft) N 0 0 min 0,000 mm 0,0 UV-I 0 W/m 10,3 C 0,0 km/h (0 Bft)
06.08.2016 05:25 11,4 C 11,4 C 93 % 1024,5 hPa 0,0 mm 1,6 km/h (1 Bft) W-SW 247 0 min 0,000 mm 0,0 UV-I 0 W/m 10,3 C 4,8 km/h (1 Bft)
06.08.2016 05:26 11,4 C 11,4 C 93 % 1024,6 hPa 0,0 mm 1,6 km/h (1 Bft) SW 225 0 min 0,000 mm 0,0 UV-I 0 W/m 10,3 C 4,8 km/h (1 Bft)
06.08.2016 05:27 11,4 C 11,4 C 93 % 1024,5 hPa 0,0 mm 3,2 km/h (1 Bft) S-SW 202 0 min 0,000 mm 0,0 UV-I 0 W/m 10,3 C 4,8 km/h (1 Bft)
06.08.2016 05:28 11,4 C 11,4 C 93 % 1024,6 hPa 0,0 mm 1,6 km/h (1 Bft) S-SW 202 0 min 0,000 mm 0,0 UV-I 0 W/m 10,3 C 3,2 km/h (1 Bft)
06.08.2016 05:29 11,4 C 11,4 C 93 % 1024,6 hPa 0,0 mm 3,2 km/h (1 Bft) S-SW 202 0 min 0,000 mm 0,0 UV-I 0 W/m 10,3 C 6,4 km/h (2 Bft)
06.08.2016 05:30 11,3 C 11,3 C 94 % 1024,5 hPa 0,0 mm 4,8 km/h (1 Bft) S-SW 202 0 min 0,000 mm 0,0 UV-I 0 W/m 10,4 C 6,4 km/h (2 Bft)
06.08.2016 05:31 11,3 C 11,3 C 94 % 1024,5 hPa 0,0 mm 1,6 km/h (1 Bft) S-SW 202 0 min 0,000 mm 0,0 UV-I 0 W/m 10,4 C 4,8 km/h (1 Bft)
06.08.2016 05:32 11,3 C 11,3 C 94 % 1024,6 hPa 0,0 mm 1,6 km/h (1 Bft) S-SW 202 0 min 0,000 mm 0,0 UV-I 0 W/m 10,4 C 3,2 km/h (1 Bft)
06.08.2016 05:33 11,3 C 11,3 C 94 % 1024,6 hPa 0,0 mm 6,4 km/h (2 Bft) S 180 0 min 0,000 mm 0,0 UV-I 0 W/m 10,4 C 11,3 km/h (2 Bft)
06.08.2016 05:34 11,4 C 11,4 C 93 % 1024,6 hPa 0,0 mm 4,8 km/h (1 Bft) S 180 0 min 0,000 mm 0,0 UV-I 0 W/m 10,3 C 8,0 km/h (2 Bft)
06.08.2016 05:35 11,4 C 11,4 C 93 % 1024,6 hPa 0,0 mm 4,8 km/h (1 Bft) S-SW 202 0 min 0,000 mm 0,0 UV-I 0 W/m 10,3 C 6,4 km/h (2 Bft)
06.08.2016 05:36 11,5 C 11,5 C 93 % 1024,7 hPa 0,0 mm 3,2 km/h (1 Bft) S 180 0 min 0,000 mm 0,0 UV-I 0 W/m 10,4 C 6,4 km/h (2 Bft)
06.08.2016 05:37 11,6 C 11,6 C 92 % 1024,7 hPa 0,0 mm 3,2 km/h (1 Bft) S-SW 202 0 min 0,000 mm 0,0 UV-I 0 W/m 10,3 C 6,4 km/h (2 Bft)
06.08.2016 05:38 11,6 C 11,6 C 92 % 1024,7 hPa 0,0 mm 1,6 km/h (1 Bft) S 180 0 min 0,000 mm 0,0 UV-I 0 W/m 10,3 C 3,2 km/h (1 Bft)
06.08.2016 05:39 11,6 C 11,6 C 92 % 1024,7 hPa 0,0 mm 6,4 km/h (2 Bft) S 180 0 min 0,000 mm 0,0 UV-I 0 W/m 10,3 C 12,9 km/h (3 Bft)
06.08.2016 05:40 11,7 C 11,7 C 92 % 1024,7 hPa 0,0 mm 4,8 km/h (1 Bft) S 180 0 min 0,000 mm 0,0 UV-I 0 W/m 10,4 C 8,0 km/h (2 Bft)
06.08.2016 05:41 11,7 C 11,7 C 92 % 1024,6 hPa 0,0 mm 4,8 km/h (1 Bft) S-SW 202 0 min 0,000 mm 0,0 UV-I 0 W/m 10,4 C 9,7 km/h (2 Bft)
06.08.2016 05:42 11,7 C 11,7 C 91 % 1024,7 hPa 0,0 mm 1,6 km/h (1 Bft) S 180 0 min 0,000 mm 0,0 UV-I 0 W/m 10,3 C 3,2 km/h (1 Bft)
06.08.2016 05:43 11,8 C 11,8 C 91 % 1024,6 hPa 0,0 mm 1,6 km/h (1 Bft) SW 225 0 min 0,000 mm 0,0 UV-I 0 W/m 10,4 C 3,2 km/h (1 Bft)
06.08.2016 05:44 11,8 C 11,8 C 91 % 1024,7 hPa 0,0 mm 1,6 km/h (1 Bft) S-SW 202 0 min 0,000 mm 0,0 UV-I 0 W/m 10,4 C 3,2 km/h (1 Bft)
06.08.2016 05:45 11,8 C 11,8 C 91 % 1024,7 hPa 0,0 mm 1,6 km/h (1 Bft) S-SO 157 0 min 0,000 mm 0,0 UV-I 0 W/m 10,4 C 6,4 km/h (2 Bft)
06.08.2016 05:46 11,8 C 11,8 C 91 % 1024,7 hPa 0,0 mm 3,2 km/h (1 Bft) SW 225 0 min 0,000 mm 0,0 UV-I 0 W/m 10,4 C 6,4 km/h (2 Bft)
06.08.2016 05:47 11,8 C 11,8 C 91 % 1024,7 hPa 0,0 mm 3,2 km/h (1 Bft) SW 225 0 min 0,000 mm 0,0 UV-I 0 W/m 10,4 C 3,2 km/h (1 Bft)
06.08.2016 05:48 11,8 C 11,8 C 91 % 1024,6 hPa 0,0 mm 1,6 km/h (1 Bft) SW 225 0 min 0,000 mm 0,0 UV-I 0 W/m 10,4 C 3,2 km/h (1 Bft)
06.08.2016 05:49 11,8 C 11,8 C 91 % 1024,7 hPa 0,0 mm 0,0 km/h (0 Bft) SW 225 0 min 0,000 mm 0,0 UV-I 0 W/m 10,4 C 1,6 km/h (1 Bft)
06.08.2016 05:50 11,8 C 11,8 C 91 % 1024,7 hPa 0,0 mm 1,6 km/h (1 Bft) SW 225 0 min 0,000 mm 0,0 UV-I 0 W/m 10,4 C 1,6 km/h (1 Bft)
06.08.2016 05:51 11,8 C 11,8 C 91 % 1024,7 hPa 0,0 mm 0,0 km/h (0 Bft) SW 225 0 min 0,000 mm 0,0 UV-I 0 W/m 10,4 C 1,6 km/h (1 Bft)
06.08.2016 05:52 11,8 C 11,8 C 91 % 1024,7 hPa 0,0 mm 1,6 km/h (1 Bft) SW 225 0 min 0,000 mm 0,0 UV-I 0 W/m 10,4 C 1,6 km/h (1 Bft)
06.08.2016 05:53 11,8 C 11,8 C 91 % 1024,7 hPa 0,0 mm 0,0 km/h (0 Bft) SW 225 0 min 0,000 mm 0,0 UV-I 0 W/m 10,4 C 1,6 km/h (1 Bft)
06.08.2016 05:54 11,8 C 11,8 C 91 % 1024,7 hPa 0,0 mm 1,6 km/h (1 Bft) SW 225 0 min 0,000 mm 0,0 UV-I 0 W/m 10,4 C 1,6 km/h (1 Bft)
06.08.2016 05:55 11,7 C 11,8 C 91 % 1024,7 hPa 0,0 mm 1,6 km/h (1 Bft) SW 225 0 min 0,000 mm 0,0 UV-I 0 W/m 10,3 C 4,8 km/h (1 Bft)
06.08.2016 05:56 11,7 C 11,7 C 92 % 1024,7 hPa 0,0 mm 1,6 km/h (1 Bft) S 180 0 min 0,000 mm 0,0 UV-I 0 W/m 10,4 C 3,2 km/h (1 Bft)
06.08.2016 05:57 11,7 C 11,7 C 92 % 1024,7 hPa 0,0 mm 1,6 km/h (1 Bft) S 180 0 min 0,000 mm 0,0 UV-I 0 W/m 10,4 C 3,2 km/h (1 Bft)
06.08.2016 05:58 11,7 C 11,7 C 92 % 1024,7 hPa 0,0 mm 3,2 km/h (1 Bft) S 180 0 min 0,000 mm 0,0 UV-I 0 W/m 10,4 C 4,8 km/h (1 Bft)
06.08.2016 05:59 11,7 C 11,7 C 92 % 1024,6 hPa 0,0 mm 1,6 km/h (1 Bft) S-SW 202 0 min 0,000 mm 0,0 UV-I 0 W/m 10,4 C 3,2 km/h (1 Bft)
06.08.2016 06:00 11,7 C 11,7 C 92 % 1024,7 hPa 0,0 mm 0,0 km/h (0 Bft) S-SW 202 0 min 0,000 mm 0,0 UV-I 0 W/m 10,4 C 1,6 km/h (1 Bft)
06.08.2016 06:01 11,7 C 11,7 C 92 % 1024,7 hPa 0,0 mm 1,6 km/h (1 Bft) SW 225 0 min 0,000 mm 0,0 UV-I 0 W/m 10,4 C 3,2 km/h (1 Bft)
06.08.2016 06:02 11,7 C 11,7 C 92 % 1024,6 hPa 0,0 mm 1,6 km/h (1 Bft) W-SW 247 0 min 0,000 mm 0,0 UV-I 0 W/m 10,4 C 3,2 km/h (1 Bft)
06.08.2016 06:03 11,7 C 11,7 C 92 % 1024,7 hPa 0,0 mm 0,0 km/h (0 Bft) S-SW 202 0 min 0,000 mm 0,0 UV-I 0 W/m 10,4 C 1,6 km/h (1 Bft)
06.08.2016 06:04 11,7 C 11,7 C 92 % 1024,7 hPa 0,0 mm 0,0 km/h (0 Bft) N 0 0 min 0,000 mm 0,0 UV-I 0 W/m 10,4 C 0,0 km/h (0 Bft)
06.08.2016 06:05 11,7 C 11,7 C 92 % 1024,7 hPa 0,0 mm 0,0 km/h (0 Bft) S-SW 202 0 min 0,000 mm 0,0 UV-I 0 W/m 10,4 C 1,6 km/h (1 Bft)
06.08.2016 06:06 11,7 C 11,7 C 92 % 1024,7 hPa 0,0 mm 0,0 km/h (0 Bft) N 0 0 min 0,000 mm 0,0 UV-I 0 W/m 10,4 C 0,0 km/h (0 Bft)
06.08.2016 06:07 11,7 C 11,7 C 92 % 1024,7 hPa 0,0 mm 0,0 km/h (0 Bft) S-SW 202 0 min 0,000 mm 0,0 UV-I 0 W/m 10,4 C 1,6 km/h (1 Bft)
06.08.2016 06:08 11,7 C 11,7 C 92 % 1024,8 hPa 0,0 mm 0,0 km/h (0 Bft) S-SW 202 0 min 0,000 mm 0,0 UV-I 0 W/m 10,4 C 1,6 km/h (1 Bft)
06.08.2016 06:09 11,7 C 11,7 C 92 % 1024,8 hPa 0,0 mm 0,0 km/h (0 Bft) N 0 0 min 0,000 mm 0,0 UV-I 0 W/m 10,4 C 0,0 km/h (0 Bft)
06.08.2016 06:10 11,7 C 11,7 C 92 % 1024,8 hPa 0,0 mm 0,0 km/h (0 Bft) S-SW 202 0 min 0,000 mm 0,0 UV-I 0 W/m 10,4 C 1,6 km/h (1 Bft)
06.08.2016 06:11 11,6 C 11,6 C 93 % 1024,8 hPa 0,0 mm 0,0 km/h (0 Bft) N 0 0 min 0,000 mm 0,0 UV-I 0 W/m 10,5 C 0,0 km/h (0 Bft)
06.08.2016 06:12 11,5 C 11,6 C 93 % 1024,8 hPa 0,0 mm 0,0 km/h (0 Bft) S-SW 202 0 min 0,000 mm 0,0 UV-I 0 W/m 10,4 C 1,6 km/h (1 Bft)
06.08.2016 06:13 11,4 C 11,5 C 93 % 1024,8 hPa 0,0 mm 1,6 km/h (1 Bft) S-SW 202 0 min 0,000 mm 0,0 UV-I 0 W/m 10,3 C 3,2 km/h (1 Bft)
06.08.2016 06:14 11,4 C 11,4 C 94 % 1024,8 hPa 0,0 mm 1,6 km/h (1 Bft) S-SW 202 0 min 0,000 mm 0,0 UV-I 0 W/m 10,5 C 3,2 km/h (1 Bft)
06.08.2016 06:15 11,3 C 11,4 C 94 % 1024,8 hPa 0,0 mm 0,0 km/h (0 Bft) S-SW 202 0 min 0,000 mm 0,0 UV-I 0 W/m 10,4 C 3,2 km/h (1 Bft)
06.08.2016 06:16 11,3 C 11,3 C 94 % 1024,8 hPa 0,0 mm 0,0 km/h (0 Bft) S-SW 202 0 min 0,000 mm 0,0 UV-I 5 W/m 10,4 C 1,6 km/h (1 Bft)
06.08.2016 06:17 11,3 C 11,3 C 94 % 1024,8 hPa 0,0 mm 1,6 km/h (1 Bft) S-SW 202 0 min 0,000 mm 0,0 UV-I 5 W/m 10,4 C 3,2 km/h (1 Bft)
06.08.2016 06:18 11,2 C 11,2 C 95 % 1024,8 hPa 0,0 mm 0,0 km/h (0 Bft) S-SW 202 0 min 0,000 mm 0,0 UV-I 5 W/m 10,4 C 1,6 km/h (1 Bft)
06.08.2016 06:19 11,2 C 11,2 C 95 % 1024,8 hPa 0,0 mm 0,0 km/h (0 Bft) S-SW 202 0 min 0,000 mm 0,0 UV-I 5 W/m 10,4 C 1,6 km/h (1 Bft)
06.08.2016 06:20 11,2 C 11,2 C 95 % 1024,8 hPa 0,0 mm 0,0 km/h (0 Bft) S-SW 202 0 min 0,000 mm 0,0 UV-I 7 W/m 10,4 C 1,6 km/h (1 Bft)
06.08.2016 06:21 11,1 C 11,2 C 95 % 1024,8 hPa 0,0 mm 0,0 km/h (0 Bft) S-SW 202 0 min 0,000 mm 0,0 UV-I 7 W/m 10,3 C 1,6 km/h (1 Bft)
06.08.2016 06:22 11,2 C 11,2 C 95 % 1024,8 hPa 0,0 mm 0,0 km/h (0 Bft) S-SW 202 0 min 0,000 mm 0,0 UV-I 7 W/m 10,4 C 1,6 km/h (1 Bft)
06.08.2016 06:23 11,1 C 11,1 C 95 % 1024,8 hPa 0,0 mm 0,0 km/h (0 Bft) S-SW 202 0 min 0,000 mm 0,0 UV-I 7 W/m 10,3 C 1,6 km/h (1 Bft)
06.08.2016 06:24 11,1 C 11,1 C 95 % 1024,8 hPa 0,0 mm 1,6 km/h (1 Bft) S-SW 202 0 min 0,000 mm 0,0 UV-I 9 W/m 10,3 C 3,2 km/h (1 Bft)
06.08.2016 06:25 11,1 C 11,1 C 95 % 1024,8 hPa 0,0 mm 0,0 km/h (0 Bft) S-SW 202 0 min 0,000 mm 0,0 UV-I 11 W/m 10,3 C 1,6 km/h (1 Bft)
06.08.2016 06:26 11,1 C 11,1 C 95 % 1024,8 hPa 0,0 mm 0,0 km/h (0 Bft) S-SW 202 0 min 0,000 mm 0,0 UV-I 11 W/m 10,3 C 1,6 km/h (1 Bft)
06.08.2016 06:27 11,1 C 11,1 C 95 % 1024,8 hPa 0,0 mm 1,6 km/h (1 Bft) S-SW 202 0 min 0,000 mm 0,0 UV-I 12 W/m 10,3 C 3,2 km/h (1 Bft)
06.08.2016 06:28 11,2 C 11,2 C 95 % 1024,8 hPa 0,0 mm 1,6 km/h (1 Bft) S 180 0 min 0,000 mm 0,0 UV-I 12 W/m 10,4 C 3,2 km/h (1 Bft)
06.08.2016 06:29 11,2 C 11,2 C 95 % 1024,8 hPa 0,0 mm 1,6 km/h (1 Bft) S 180 0 min 0,000 mm 0,0 UV-I 12 W/m 10,4 C 1,6 km/h (1 Bft)
06.08.2016 06:30 11,3 C 11,3 C 94 % 1024,8 hPa 0,0 mm 0,0 km/h (0 Bft) W-SW 247 0 min 0,000 mm 0,0 UV-I 12 W/m 10,4 C 1,6 km/h (1 Bft)
06.08.2016 06:31 11,3 C 11,3 C 94 % 1024,8 hPa 0,0 mm 1,6 km/h (1 Bft) SW 225 0 min 0,000 mm 0,0 UV-I 14 W/m 10,4 C 3,2 km/h (1 Bft)
06.08.2016 06:32 11,4 C 11,4 C 94 % 1024,8 hPa 0,0 mm 3,2 km/h (1 Bft) S 180 0 min 0,000 mm 0,0 UV-I 14 W/m 10,5 C 3,2 km/h (1 Bft)
06.08.2016 06:33 11,4 C 11,4 C 93 % 1024,8 hPa 0,0 mm 3,2 km/h (1 Bft) S 180 0 min 0,000 mm 0,0 UV-I 16 W/m 10,3 C 4,8 km/h (1 Bft)
06.08.2016 06:34 11,4 C 11,5 C 93 % 1024,8 hPa 0,0 mm 1,6 km/h (1 Bft) SW 225 0 min 0,000 mm 0,0 UV-I 16 W/m 10,3 C 4,8 km/h (1 Bft)
06.08.2016 06:35 11,6 C 11,6 C 93 % 1024,8 hPa 0,0 mm 3,2 km/h (1 Bft) S 180 0 min 0,000 mm 0,0 UV-I 16 W/m 10,5 C 6,4 km/h (2 Bft)
06.08.2016 06:36 11,6 C 11,6 C 92 % 1024,8 hPa 0,0 mm 1,6 km/h (1 Bft) S 180 0 min 0,000 mm 0,0 UV-I 16 W/m 10,3 C 4,8 km/h (1 Bft)
06.08.2016 06:37 11,6 C 11,6 C 92 % 1024,8 hPa 0,0 mm 4,8 km/h (1 Bft) S 180 0 min 0,000 mm 0,0 UV-I 18 W/m 10,3 C 4,8 km/h (1 Bft)
06.08.2016 06:38 11,6 C 11,6 C 92 % 1024,8 hPa 0,0 mm 3,2 km/h (1 Bft) S 180 0 min 0,000 mm 0,0 UV-I 18 W/m 10,3 C 6,4 km/h (2 Bft)
06.08.2016 06:39 11,6 C 11,6 C 92 % 1024,8 hPa 0,0 mm 4,8 km/h (1 Bft) S 180 0 min 0,000 mm 0,0 UV-I 19 W/m 10,3 C 8,0 km/h (2 Bft)
06.08.2016 06:40 11,6 C 11,6 C 92 % 1024,8 hPa 0,0 mm 3,2 km/h (1 Bft) S 180 0 min 0,000 mm 0,0 UV-I 19 W/m 10,3 C 4,8 km/h (1 Bft)
06.08.2016 06:41 11,6 C 11,6 C 92 % 1024,8 hPa 0,0 mm 4,8 km/h (1 Bft) S 180 0 min 0,000 mm 0,0 UV-I 19 W/m 10,3 C 8,0 km/h (2 Bft)
06.08.2016 06:42 11,6 C 11,6 C 92 % 1024,8 hPa 0,0 mm 4,8 km/h (1 Bft) S 180 0 min 0,000 mm 0,0 UV-I 19 W/m 10,3 C 9,7 km/h (2 Bft)
06.08.2016 06:43 11,6 C 11,6 C 92 % 1024,8 hPa 0,0 mm 4,8 km/h (1 Bft) S 180 0 min 0,000 mm 0,0 UV-I 21 W/m 10,3 C 9,7 km/h (2 Bft)
06.08.2016 06:44 11,6 C 11,6 C 92 % 1024,8 hPa 0,0 mm 4,8 km/h (1 Bft) S 180 0 min 0,000 mm 0,0 UV-I 21 W/m 10,3 C 6,4 km/h (2 Bft)
06.08.2016 06:45 11,5 C 11,6 C 93 % 1024,8 hPa 0,0 mm 3,2 km/h (1 Bft) S-SW 202 0 min 0,000 mm 0,0 UV-I 21 W/m 10,4 C 4,8 km/h (1 Bft)
06.08.2016 06:46 11,4 C 11,5 C 93 % 1024,8 hPa 0,0 mm 1,6 km/h (1 Bft) S-SW 202 0 min 0,000 mm 0,0 UV-I 21 W/m 10,3 C 3,2 km/h (1 Bft)
06.08.2016 06:47 11,4 C 11,4 C 93 % 1024,8 hPa 0,0 mm 1,6 km/h (1 Bft) S-SW 202 0 min 0,000 mm 0,0 UV-I 21 W/m 10,3 C 3,2 km/h (1 Bft)
06.08.2016 06:48 11,4 C 11,4 C 93 % 1024,8 hPa 0,0 mm 1,6 km/h (1 Bft) W-SW 247 0 min 0,000 mm 0,0 UV-I 21 W/m 10,3 C 1,6 km/h (1 Bft)
06.08.2016 06:49 11,4 C 11,4 C 93 % 1024,9 hPa 0,0 mm 3,2 km/h (1 Bft) S-SW 202 0 min 0,000 mm 0,0 UV-I 21 W/m 10,3 C 4,8 km/h (1 Bft)
06.08.2016 06:50 11,4 C 11,4 C 93 % 1024,9 hPa 0,0 mm 3,2 km/h (1 Bft) S-SW 202 0 min 0,000 mm 0,0 UV-I 21 W/m 10,3 C 4,8 km/h (1 Bft)
06.08.2016 06:51 11,4 C 11,4 C 93 % 1024,9 hPa 0,0 mm 1,6 km/h (1 Bft) S 180 0 min 0,000 mm 0,0 UV-I 21 W/m 10,3 C 1,6 km/h (1 Bft)
06.08.2016 06:52 11,3 C 11,4 C 93 % 1024,9 hPa 0,0 mm 1,6 km/h (1 Bft) S 180 0 min 0,000 mm 0,0 UV-I 21 W/m 10,2 C 3,2 km/h (1 Bft)
06.08.2016 06:53 11,3 C 11,3 C 93 % 1024,9 hPa 0,0 mm 3,2 km/h (1 Bft) S 180 0 min 0,000 mm 0,0 UV-I 21 W/m 10,2 C 4,8 km/h (1 Bft)
06.08.2016 06:54 11,3 C 11,3 C 93 % 1024,9 hPa 0,0 mm 1,6 km/h (1 Bft) S 180 0 min 0,000 mm 0,0 UV-I 21 W/m 10,2 C 3,2 km/h (1 Bft)
06.08.2016 06:55 11,3 C 11,3 C 93 % 1024,9 hPa 0,0 mm 3,2 km/h (1 Bft) S 180 0 min 0,000 mm 0,0 UV-I 23 W/m 10,2 C 3,2 km/h (1 Bft)
06.08.2016 06:56 11,3 C 11,3 C 94 % 1024,8 hPa 0,0 mm 3,2 km/h (1 Bft) S-SO 157 0 min 0,000 mm 0,0 UV-I 23 W/m 10,4 C 3,2 km/h (1 Bft)
06.08.2016 06:57 11,2 C 11,3 C 94 % 1024,9 hPa 0,0 mm 3,2 km/h (1 Bft) S 180 0 min 0,000 mm 0,0 UV-I 23 W/m 10,3 C 3,2 km/h (1 Bft)
06.08.2016 06:58 11,2 C 11,2 C 94 % 1024,9 hPa 0,0 mm 3,2 km/h (1 Bft) S-SW 202 0 min 0,000 mm 0,0 UV-I 23 W/m 10,3 C 6,4 km/h (2 Bft)
06.08.2016 06:59 11,1 C 11,2 C 94 % 1024,9 hPa 0,0 mm 1,6 km/h (1 Bft) S-SO 157 0 min 0,000 mm 0,0 UV-I 25 W/m 10,2 C 3,2 km/h (1 Bft)
06.08.2016 07:00 11,0 C 11,1 C 94 % 1024,9 hPa 0,0 mm 1,6 km/h (1 Bft) S-SO 157 0 min 0,000 mm 0,0 UV-I 25 W/m 10,1 C 3,2 km/h (1 Bft)
06.08.2016 07:01 10,9 C 11,0 C 94 % 1024,9 hPa 0,0 mm 1,6 km/h (1 Bft) S-SO 157 0 min 0,000 mm 0,0 UV-I 26 W/m 10,0 C 3,2 km/h (1 Bft)
06.08.2016 07:02 10,9 C 11,0 C 95 % 1024,9 hPa 0,0 mm 1,6 km/h (1 Bft) S-SO 157 0 min 0,000 mm 0,0 UV-I 26 W/m 10,1 C 3,2 km/h (1 Bft)
06.08.2016 07:03 10,9 C 10,9 C 95 % 1024,9 hPa 0,0 mm 1,6 km/h (1 Bft) S-SO 157 0 min 0,000 mm 0,0 UV-I 26 W/m 10,1 C 3,2 km/h (1 Bft)
06.08.2016 07:04 10,9 C 10,9 C 95 % 1024,9 hPa 0,0 mm 0,0 km/h (0 Bft) S-SO 157 0 min 0,000 mm 0,0 UV-I 28 W/m 10,1 C 1,6 km/h (1 Bft)
06.08.2016 07:05 10,8 C 10,9 C 95 % 1024,9 hPa 0,0 mm 0,0 km/h (0 Bft) S-SO 157 0 min 0,000 mm 0,0 UV-I 28 W/m 10,0 C 1,6 km/h (1 Bft)
06.08.2016 07:06 10,9 C 10,9 C 95 % 1025,0 hPa 0,0 mm 0,0 km/h (0 Bft) N 0 0 min 0,000 mm 0,0 UV-I 26 W/m 10,1 C 0,0 km/h (0 Bft)
06.08.2016 07:07 10,9 C 10,9 C 95 % 1025,0 hPa 0,0 mm 0,0 km/h (0 Bft) N 0 0 min 0,000 mm 0,0 UV-I 26 W/m 10,1 C 0,0 km/h (0 Bft)
06.08.2016 07:08 10,8 C 10,9 C 95 % 1025,0 hPa 0,0 mm 0,0 km/h (0 Bft) S-SO 157 0 min 0,000 mm 0,0 UV-I 25 W/m 10,0 C 1,6 km/h (1 Bft)
06.08.2016 07:09 10,8 C 10,9 C 95 % 1025,1 hPa 0,0 mm 0,0 km/h (0 Bft) S-SO 157 0 min 0,000 mm 0,0 UV-I 25 W/m 10,0 C 1,6 km/h (1 Bft)
06.08.2016 07:10 10,8 C 10,9 C 95 % 1025,0 hPa 0,0 mm 0,0 km/h (0 Bft) S-SO 157 0 min 0,000 mm 0,0 UV-I 23 W/m 10,0 C 1,6 km/h (1 Bft)
06.08.2016 07:11 10,8 C 10,8 C 95 % 1025,1 hPa 0,0 mm 0,0 km/h (0 Bft) S-SO 157 0 min 0,000 mm 0,0 UV-I 23 W/m 10,0 C 1,6 km/h (1 Bft)
06.08.2016 07:12 10,9 C 10,9 C 95 % 1025,1 hPa 0,0 mm 1,6 km/h (1 Bft) S-SO 157 0 min 0,000 mm 0,0 UV-I 23 W/m 10,1 C 3,2 km/h (1 Bft)
06.08.2016 07:13 10,9 C 10,9 C 95 % 1025,1 hPa 0,0 mm 0,0 km/h (0 Bft) S-SO 157 0 min 0,000 mm 0,0 UV-I 23 W/m 10,1 C 1,6 km/h (1 Bft)
06.08.2016 07:14 10,9 C 10,9 C 95 % 1025,1 hPa 0,0 mm 0,0 km/h (0 Bft) S-SO 157 0 min 0,000 mm 0,0 UV-I 25 W/m 10,1 C 1,6 km/h (1 Bft)
06.08.2016 07:15 10,9 C 10,9 C 95 % 1025,1 hPa 0,0 mm 0,0 km/h (0 Bft) N 0 0 min 0,000 mm 0,0 UV-I 25 W/m 10,1 C 0,0 km/h (0 Bft)
06.08.2016 07:16 10,9 C 10,9 C 95 % 1025,1 hPa 0,0 mm 0,0 km/h (0 Bft) N 0 0 min 0,000 mm 0,0 UV-I 25 W/m 10,1 C 0,0 km/h (0 Bft)
06.08.2016 07:17 10,8 C 10,9 C 95 % 1025,1 hPa 0,0 mm 0,0 km/h (0 Bft) N 0 0 min 0,000 mm 0,0 UV-I 26 W/m 10,0 C 0,0 km/h (0 Bft)
06.08.2016 07:18 10,8 C 10,9 C 95 % 1025,1 hPa 0,0 mm 0,0 km/h (0 Bft) N 0 0 min 0,000 mm 0,0 UV-I 28 W/m 10,0 C 0,0 km/h (0 Bft)
06.08.2016 07:19 10,8 C 10,8 C 95 % 1025,1 hPa 0,0 mm 0,0 km/h (0 Bft) N 0 0 min 0,000 mm 0,0 UV-I 30 W/m 10,0 C 0,0 km/h (0 Bft)
06.08.2016 07:20 10,8 C 10,8 C 95 % 1025,1 hPa 0,0 mm 0,0 km/h (0 Bft) N 0 0 min 0,000 mm 0,0 UV-I 30 W/m 10,0 C 0,0 km/h (0 Bft)
06.08.2016 07:21 10,7 C 10,8 C 95 % 1025,1 hPa 0,0 mm 0,0 km/h (0 Bft) N 0 0 min 0,000 mm 0,0 UV-I 32 W/m 9,9 C 0,0 km/h (0 Bft)
06.08.2016 07:22 10,7 C 10,7 C 95 % 1025,2 hPa 0,0 mm 0,0 km/h (0 Bft) N 0 0 min 0,000 mm 0,0 UV-I 33 W/m 9,9 C 0,0 km/h (0 Bft)
06.08.2016 07:23 10,7 C 10,7 C 95 % 1025,2 hPa 0,0 mm 0,0 km/h (0 Bft) N 0 0 min 0,000 mm 0,0 UV-I 35 W/m 9,9 C 0,0 km/h (0 Bft)
06.08.2016 07:24 10,6 C 10,7 C 95 % 1025,2 hPa 0,0 mm 0,0 km/h (0 Bft) S-SO 157 0 min 0,000 mm 0,0 UV-I 35 W/m 9,8 C 1,6 km/h (1 Bft)
06.08.2016 07:25 10,6 C 10,6 C 95 % 1025,2 hPa 0,0 mm 0,0 km/h (0 Bft) N 0 0 min 0,000 mm 0,0 UV-I 37 W/m 9,8 C 0,0 km/h (0 Bft)
06.08.2016 07:26 10,6 C 10,6 C 95 % 1025,2 hPa 0,0 mm 0,0 km/h (0 Bft) N 0 0 min 0,000 mm 0,0 UV-I 39 W/m 9,8 C 0,0 km/h (0 Bft)
06.08.2016 07:27 10,6 C 10,6 C 95 % 1025,2 hPa 0,0 mm 0,0 km/h (0 Bft) N 0 0 min 0,000 mm 0,0 UV-I 40 W/m 9,8 C 0,0 km/h (0 Bft)
06.08.2016 07:28 10,6 C 10,6 C 96 % 1025,2 hPa 0,0 mm 0,0 km/h (0 Bft) S-SO 157 0 min 0,000 mm 0,0 UV-I 46 W/m 10,0 C 1,6 km/h (1 Bft)
06.08.2016 07:29 10,6 C 10,6 C 96 % 1025,2 hPa 0,0 mm 0,0 km/h (0 Bft) S-SO 157 0 min 0,000 mm 0,0 UV-I 47 W/m 10,0 C 1,6 km/h (1 Bft)
06.08.2016 07:30 10,6 C 10,6 C 96 % 1025,2 hPa 0,0 mm 0,0 km/h (0 Bft) N 0 0 min 0,000 mm 0,0 UV-I 56 W/m 10,0 C 0,0 km/h (0 Bft)
06.08.2016 07:31 10,6 C 10,6 C 96 % 1025,2 hPa 0,0 mm 0,0 km/h (0 Bft) N 0 0 min 0,000 mm 0,6 UV-I 60 W/m 10,0 C 0,0 km/h (0 Bft)
06.08.2016 07:32 10,6 C 10,6 C 96 % 1025,2 hPa 0,0 mm 0,0 km/h (0 Bft) N 0 0 min 0,000 mm 0,6 UV-I 63 W/m 10,0 C 0,0 km/h (0 Bft)
06.08.2016 07:33 10,6 C 10,6 C 96 % 1025,3 hPa 0,0 mm 0,0 km/h (0 Bft) N 0 0 min 0,000 mm 0,6 UV-I 74 W/m 10,0 C 0,0 km/h (0 Bft)
06.08.2016 07:34 10,7 C 10,7 C 96 % 1025,3 hPa 0,0 mm 0,0 km/h (0 Bft) N 0 1 min 0,000 mm 0,6 UV-I 146 W/m 10,1 C 0,0 km/h (0 Bft)
06.08.2016 07:35 10,7 C 10,7 C 96 % 1025,3 hPa 0,0 mm 0,0 km/h (0 Bft) S-SO 157 1 min 0,000 mm 0,6 UV-I 169 W/m 10,1 C 3,2 km/h (1 Bft)
06.08.2016 07:36 10,7 C 10,8 C 96 % 1025,2 hPa 0,0 mm 0,0 km/h (0 Bft) S-SO 157 1 min 0,000 mm 0,6 UV-I 211 W/m 10,1 C 1,6 km/h (1 Bft)
06.08.2016 07:37 10,8 C 10,8 C 96 % 1025,2 hPa 0,0 mm 1,6 km/h (1 Bft) S-SO 157 1 min 0,000 mm 0,7 UV-I 216 W/m 10,2 C 1,6 km/h (1 Bft)
06.08.2016 07:38 10,8 C 10,8 C 96 % 1025,2 hPa 0,0 mm 0,0 km/h (0 Bft) S-SO 157 1 min 0,000 mm 0,7 UV-I 218 W/m 10,2 C 1,6 km/h (1 Bft)
06.08.2016 07:39 10,9 C 10,9 C 96 % 1025,2 hPa 0,0 mm 0,0 km/h (0 Bft) S-SO 157 1 min 0,000 mm 0,7 UV-I 216 W/m 10,3 C 1,6 km/h (1 Bft)
06.08.2016 07:40 11,2 C 11,2 C 96 % 1025,2 hPa 0,0 mm 1,6 km/h (1 Bft) S-SO 157 1 min 0,000 mm 0,7 UV-I 211 W/m 10,6 C 3,2 km/h (1 Bft)
06.08.2016 07:41 11,2 C 11,2 C 96 % 1025,2 hPa 0,0 mm 1,6 km/h (1 Bft) S-SW 202 1 min 0,000 mm 0,7 UV-I 197 W/m 10,6 C 1,6 km/h (1 Bft)
06.08.2016 07:42 11,3 C 11,3 C 96 % 1025,2 hPa 0,0 mm 0,0 km/h (0 Bft) S-SW 202 0 min 0,000 mm 0,7 UV-I 114 W/m 10,7 C 1,6 km/h (1 Bft)
06.08.2016 07:43 11,4 C 11,4 C 96 % 1025,2 hPa 0,0 mm 3,2 km/h (1 Bft) S 180 0 min 0,000 mm 0,7 UV-I 116 W/m 10,8 C 4,8 km/h (1 Bft)
06.08.2016 07:44 11,7 C 11,7 C 96 % 1025,2 hPa 0,0 mm 1,6 km/h (1 Bft) S-SW 202 0 min 0,000 mm 0,7 UV-I 120 W/m 11,1 C 4,8 km/h (1 Bft)
06.08.2016 07:45 11,8 C 11,8 C 94 % 1025,2 hPa 0,0 mm 4,8 km/h (1 Bft) S-SW 202 0 min 0,000 mm 0,7 UV-I 125 W/m 10,9 C 6,4 km/h (2 Bft)
06.08.2016 07:46 11,8 C 11,8 C 94 % 1025,2 hPa 0,0 mm 3,2 km/h (1 Bft) S-SO 157 0 min 0,000 mm 0,7 UV-I 130 W/m 10,9 C 4,8 km/h (1 Bft)
06.08.2016 07:47 11,8 C 11,8 C 94 % 1025,2 hPa 0,0 mm 3,2 km/h (1 Bft) W-NW 292 0 min 0,000 mm 0,7 UV-I 134 W/m 10,9 C 6,4 km/h (2 Bft)
06.08.2016 07:48 11,9 C 11,9 C 94 % 1025,3 hPa 0,0 mm 1,6 km/h (1 Bft) S 180 0 min 0,000 mm 0,7 UV-I 127 W/m 11,0 C 3,2 km/h (1 Bft)
06.08.2016 07:49 11,9 C 11,9 C 93 % 1025,2 hPa 0,0 mm 1,6 km/h (1 Bft) S 180 0 min 0,000 mm 0,7 UV-I 118 W/m 10,8 C 3,2 km/h (1 Bft)
06.08.2016 07:50 11,9 C 11,9 C 94 % 1025,2 hPa 0,0 mm 1,6 km/h (1 Bft) S 180 0 min 0,000 mm 0,7 UV-I 118 W/m 11,0 C 4,8 km/h (1 Bft)
06.08.2016 07:51 12,0 C 12,0 C 94 % 1025,2 hPa 0,0 mm 3,2 km/h (1 Bft) S 180 0 min 0,000 mm 0,8 UV-I 107 W/m 11,1 C 6,4 km/h (2 Bft)
06.08.2016 07:52 12,1 C 12,1 C 93 % 1025,2 hPa 0,0 mm 3,2 km/h (1 Bft) S-SW 202 0 min 0,000 mm 0,8 UV-I 104 W/m 11,0 C 3,2 km/h (1 Bft)
06.08.2016 07:53 12,2 C 12,2 C 93 % 1025,3 hPa 0,0 mm 3,2 km/h (1 Bft) S-SW 202 0 min 0,000 mm 0,8 UV-I 104 W/m 11,1 C 6,4 km/h (2 Bft)
06.08.2016 07:54 12,2 C 12,2 C 93 % 1025,2 hPa 0,0 mm 1,6 km/h (1 Bft) S 180 0 min 0,000 mm 0,8 UV-I 102 W/m 11,1 C 4,8 km/h (1 Bft)
06.08.2016 07:55 12,1 C 12,2 C 93 % 1025,2 hPa 0,0 mm 1,6 km/h (1 Bft) S-SW 202 0 min 0,000 mm 0,8 UV-I 102 W/m 11,0 C 3,2 km/h (1 Bft)
06.08.2016 07:56 12,2 C 12,2 C 93 % 1025,2 hPa 0,0 mm 3,2 km/h (1 Bft) S 180 0 min 0,000 mm 0,8 UV-I 102 W/m 11,1 C 4,8 km/h (1 Bft)
06.08.2016 07:57 12,2 C 12,2 C 93 % 1025,2 hPa 0,0 mm 1,6 km/h (1 Bft) S 180 0 min 0,000 mm 0,8 UV-I 102 W/m 11,1 C 3,2 km/h (1 Bft)
06.08.2016 07:58 12,2 C 12,2 C 93 % 1025,2 hPa 0,0 mm 1,6 km/h (1 Bft) S-SW 202 0 min 0,000 mm 0,8 UV-I 102 W/m 11,1 C 3,2 km/h (1 Bft)
06.08.2016 07:59 12,3 C 12,3 C 92 % 1025,2 hPa 0,0 mm 1,6 km/h (1 Bft) S-SW 202 0 min 0,000 mm 0,8 UV-I 102 W/m 11,0 C 3,2 km/h (1 Bft)
06.08.2016 08:00 12,3 C 12,3 C 92 % 1025,3 hPa 0,0 mm 0,0 km/h (0 Bft) S-SW 202 0 min 0,051 mm 0,8 UV-I 100 W/m 11,0 C 1,6 km/h (1 Bft)
06.08.2016 08:01 12,3 C 12,3 C 92 % 1025,3 hPa 0,0 mm 0,0 km/h (0 Bft) S-SW 202 0 min 0,000 mm 0,9 UV-I 104 W/m 11,0 C 1,6 km/h (1 Bft)
06.08.2016 08:02 12,3 C 12,3 C 93 % 1025,2 hPa 0,0 mm 1,6 km/h (1 Bft) S-SW 202 0 min 0,000 mm 0,9 UV-I 111 W/m 11,2 C 1,6 km/h (1 Bft)
06.08.2016 08:03 12,2 C 12,3 C 93 % 1025,3 hPa 0,0 mm 1,6 km/h (1 Bft) S-SW 202 0 min 0,000 mm 0,9 UV-I 121 W/m 11,1 C 3,2 km/h (1 Bft)
06.08.2016 08:04 12,3 C 12,3 C 94 % 1025,3 hPa 0,0 mm 1,6 km/h (1 Bft) SW 225 0 min 0,000 mm 0,9 UV-I 135 W/m 11,4 C 3,2 km/h (1 Bft)
06.08.2016 08:05 12,3 C 12,3 C 94 % 1025,3 hPa 0,0 mm 1,6 km/h (1 Bft) W 270 1 min 0,000 mm 1,0 UV-I 227 W/m 11,4 C 4,8 km/h (1 Bft)
06.08.2016 08:06 12,3 C 12,3 C 94 % 1025,3 hPa 0,0 mm 0,0 km/h (0 Bft) W-SW 247 0 min 0,000 mm 0,9 UV-I 118 W/m 11,4 C 1,6 km/h (1 Bft)
06.08.2016 08:07 12,4 C 12,4 C 92 % 1025,2 hPa 0,0 mm 1,6 km/h (1 Bft) S-SW 202 0 min 0,000 mm 0,9 UV-I 102 W/m 11,1 C 4,8 km/h (1 Bft)
06.08.2016 08:08 12,5 C 12,5 C 93 % 1025,3 hPa 0,0 mm 1,6 km/h (1 Bft) S-SW 202 0 min 0,000 mm 0,9 UV-I 102 W/m 11,4 C 4,8 km/h (1 Bft)
06.08.2016 08:09 12,6 C 12,6 C 91 % 1025,3 hPa 0,0 mm 0,0 km/h (0 Bft) S-SW 202 0 min 0,000 mm 0,9 UV-I 97 W/m 11,2 C 1,6 km/h (1 Bft)
06.08.2016 08:10 12,6 C 12,6 C 91 % 1025,3 hPa 0,0 mm 0,0 km/h (0 Bft) N 0 0 min 0,000 mm 0,9 UV-I 98 W/m 11,2 C 0,0 km/h (0 Bft)
06.08.2016 08:11 12,7 C 12,7 C 92 % 1025,3 hPa 0,0 mm 0,0 km/h (0 Bft) S-SW 202 0 min 0,000 mm 0,9 UV-I 102 W/m 11,4 C 1,6 km/h (1 Bft)
06.08.2016 08:12 12,6 C 12,6 C 92 % 1025,3 hPa 0,0 mm 0,0 km/h (0 Bft) S-SW 202 0 min 0,000 mm 0,9 UV-I 100 W/m 11,3 C 1,6 km/h (1 Bft)
06.08.2016 08:13 12,6 C 12,6 C 92 % 1025,3 hPa 0,0 mm 0,0 km/h (0 Bft) S-SW 202 0 min 0,000 mm 0,9 UV-I 97 W/m 11,3 C 3,2 km/h (1 Bft)
06.08.2016 08:14 12,7 C 12,7 C 92 % 1025,2 hPa 0,0 mm 3,2 km/h (1 Bft) SW 225 0 min 0,000 mm 0,9 UV-I 93 W/m 11,4 C 4,8 km/h (1 Bft)
06.08.2016 08:15 12,7 C 12,7 C 92 % 1025,2 hPa 0,0 mm 4,8 km/h (1 Bft) W 270 0 min 0,000 mm 0,9 UV-I 93 W/m 11,4 C 6,4 km/h (2 Bft)
06.08.2016 08:16 12,7 C 12,8 C 92 % 1025,3 hPa 0,0 mm 1,6 km/h (1 Bft) W 270 0 min 0,000 mm 0,9 UV-I 97 W/m 11,4 C 1,6 km/h (1 Bft)
06.08.2016 08:17 12,7 C 12,8 C 93 % 1025,3 hPa 0,0 mm 0,0 km/h (0 Bft) W 270 0 min 0,000 mm 0,9 UV-I 98 W/m 11,6 C 1,6 km/h (1 Bft)
06.08.2016 08:18 12,7 C 12,7 C 92 % 1025,4 hPa 0,0 mm 1,6 km/h (1 Bft) W-SW 247 0 min 0,000 mm 0,9 UV-I 95 W/m 11,4 C 4,8 km/h (1 Bft)
06.08.2016 08:19 12,7 C 12,8 C 92 % 1025,4 hPa 0,0 mm 3,2 km/h (1 Bft) W-SW 247 0 min 0,000 mm 0,9 UV-I 90 W/m 11,4 C 4,8 km/h (1 Bft)
06.08.2016 08:20 12,8 C 12,8 C 91 % 1025,4 hPa 0,0 mm 0,0 km/h (0 Bft) W-SW 247 0 min 0,000 mm 0,9 UV-I 86 W/m 11,4 C 1,6 km/h (1 Bft)
06.08.2016 08:21 12,8 C 12,8 C 90 % 1025,4 hPa 0,0 mm 1,6 km/h (1 Bft) W-SW 247 0 min 0,000 mm 0,9 UV-I 88 W/m 11,2 C 4,8 km/h (1 Bft)
06.08.2016 08:22 12,9 C 12,9 C 90 % 1025,4 hPa 0,0 mm 1,6 km/h (1 Bft) W-SW 247 0 min 0,000 mm 0,9 UV-I 90 W/m 11,3 C 3,2 km/h (1 Bft)
06.08.2016 08:23 12,9 C 12,9 C 91 % 1025,5 hPa 0,0 mm 3,2 km/h (1 Bft) W-SW 247 0 min 0,000 mm 0,9 UV-I 93 W/m 11,5 C 6,4 km/h (2 Bft)
06.08.2016 08:24 12,9 C 12,9 C 91 % 1025,5 hPa 0,0 mm 3,2 km/h (1 Bft) SW 225 0 min 0,000 mm 0,9 UV-I 95 W/m 11,5 C 6,4 km/h (2 Bft)
06.08.2016 08:25 12,9 C 12,9 C 91 % 1025,4 hPa 0,0 mm 1,6 km/h (1 Bft) W 270 0 min 0,000 mm 0,9 UV-I 95 W/m 11,5 C 3,2 km/h (1 Bft)
06.08.2016 08:26 12,9 C 12,9 C 90 % 1025,4 hPa 0,0 mm 1,6 km/h (1 Bft) W-SW 247 0 min 0,000 mm 0,9 UV-I 93 W/m 11,3 C 3,2 km/h (1 Bft)
06.08.2016 08:27 12,9 C 13,0 C 91 % 1025,4 hPa 0,0 mm 0,0 km/h (0 Bft) W-SW 247 0 min 0,000 mm 0,9 UV-I 91 W/m 11,5 C 1,6 km/h (1 Bft)
06.08.2016 08:28 13,0 C 13,0 C 90 % 1025,4 hPa 0,0 mm 1,6 km/h (1 Bft) W-SW 247 0 min 0,000 mm 0,9 UV-I 95 W/m 11,4 C 1,6 km/h (1 Bft)
06.08.2016 08:29 13,0 C 13,0 C 90 % 1025,4 hPa 0,0 mm 1,6 km/h (1 Bft) W-SW 247 0 min 0,000 mm 1,0 UV-I 102 W/m 11,4 C 3,2 km/h (1 Bft)
06.08.2016 08:30 13,1 C 13,1 C 91 % 1025,4 hPa 0,0 mm 1,6 km/h (1 Bft) S-SW 202 0 min 0,000 mm 1,0 UV-I 114 W/m 11,7 C 3,2 km/h (1 Bft)
06.08.2016 08:31 13,1 C 13,1 C 91 % 1025,4 hPa 0,0 mm 3,2 km/h (1 Bft) W-SW 247 0 min 0,000 mm 1,0 UV-I 107 W/m 11,7 C 4,8 km/h (1 Bft)
06.08.2016 08:32 13,1 C 13,2 C 90 % 1025,4 hPa 0,0 mm 1,6 km/h (1 Bft) W-SW 247 0 min 0,000 mm 1,0 UV-I 113 W/m 11,5 C 3,2 km/h (1 Bft)
06.08.2016 08:33 13,2 C 13,2 C 91 % 1025,4 hPa 0,0 mm 1,6 km/h (1 Bft) W-SW 247 0 min 0,000 mm 1,1 UV-I 120 W/m 11,8 C 3,2 km/h (1 Bft)
06.08.2016 08:34 13,2 C 13,2 C 91 % 1025,3 hPa 0,0 mm 3,2 km/h (1 Bft) W-SW 247 0 min 0,000 mm 1,1 UV-I 185 W/m 11,8 C 6,4 km/h (2 Bft)
06.08.2016 08:35 13,2 C 13,2 C 90 % 1025,4 hPa 0,0 mm 0,0 km/h (0 Bft) W-SW 247 0 min 0,000 mm 1,2 UV-I 163 W/m 11,6 C 1,6 km/h (1 Bft)
06.08.2016 08:36 13,2 C 13,2 C 91 % 1025,4 hPa 0,0 mm 0,0 km/h (0 Bft) SW 225 0 min 0,000 mm 1,3 UV-I 165 W/m 11,8 C 1,6 km/h (1 Bft)
06.08.2016 08:37 13,2 C 13,2 C 90 % 1025,4 hPa 0,0 mm 3,2 km/h (1 Bft) S-SW 202 0 min 0,000 mm 1,3 UV-I 179 W/m 11,6 C 8,0 km/h (2 Bft)
06.08.2016 08:38 13,3 C 13,3 C 91 % 1025,4 hPa 0,0 mm 4,8 km/h (1 Bft) SW 225 0 min 0,000 mm 1,3 UV-I 169 W/m 11,9 C 8,0 km/h (2 Bft)
06.08.2016 08:39 13,4 C 13,4 C 90 % 1025,4 hPa 0,0 mm 1,6 km/h (1 Bft) W-SW 247 0 min 0,000 mm 1,3 UV-I 176 W/m 11,8 C 1,6 km/h (1 Bft)
06.08.2016 08:40 13,4 C 13,5 C 90 % 1025,4 hPa 0,0 mm 3,2 km/h (1 Bft) W-SW 247 0 min 0,000 mm 1,3 UV-I 216 W/m 11,8 C 6,4 km/h (2 Bft)
06.08.2016 08:41 13,5 C 13,5 C 89 % 1025,4 hPa 0,0 mm 3,2 km/h (1 Bft) W 270 0 min 0,000 mm 1,4 UV-I 197 W/m 11,7 C 6,4 km/h (2 Bft)
06.08.2016 08:42 13,6 C 13,6 C 89 % 1025,4 hPa 0,0 mm 8,0 km/h (2 Bft) W-SW 247 0 min 0,000 mm 1,4 UV-I 193 W/m 11,8 C 11,3 km/h (2 Bft)
06.08.2016 08:43 13,6 C 13,6 C 89 % 1025,4 hPa 0,0 mm 6,4 km/h (2 Bft) W-SW 247 0 min 0,000 mm 1,4 UV-I 193 W/m 11,8 C 9,7 km/h (2 Bft)
06.08.2016 08:44 13,6 C 13,7 C 89 % 1025,4 hPa 0,0 mm 4,8 km/h (1 Bft) W-SW 247 0 min 0,000 mm 1,4 UV-I 192 W/m 11,8 C 6,4 km/h (2 Bft)
06.08.2016 08:45 13,7 C 13,7 C 89 % 1025,4 hPa 0,0 mm 4,8 km/h (1 Bft) W-SW 247 0 min 0,000 mm 1,4 UV-I 211 W/m 11,9 C 11,3 km/h (2 Bft)
06.08.2016 08:46 13,7 C 13,7 C 89 % 1025,4 hPa 0,0 mm 4,8 km/h (1 Bft) W-SW 247 0 min 0,000 mm 1,4 UV-I 192 W/m 11,9 C 9,7 km/h (2 Bft)
06.08.2016 08:47 13,7 C 13,7 C 89 % 1025,5 hPa 0,0 mm 4,8 km/h (1 Bft) SW 225 1 min 0,000 mm 1,5 UV-I 260 W/m 11,9 C 9,7 km/h (2 Bft)
06.08.2016 08:48 13,8 C 13,8 C 90 % 1025,4 hPa 0,0 mm 3,2 km/h (1 Bft) SW 225 0 min 0,000 mm 1,5 UV-I 229 W/m 12,2 C 6,4 km/h (2 Bft)
06.08.2016 08:49 13,8 C 13,8 C 88 % 1025,4 hPa 0,0 mm 1,6 km/h (1 Bft) W-SW 247 0 min 0,000 mm 1,4 UV-I 199 W/m 11,8 C 6,4 km/h (2 Bft)
06.08.2016 08:50 13,8 C 13,8 C 89 % 1025,4 hPa 0,0 mm 1,6 km/h (1 Bft) S-SW 202 0 min 0,000 mm 1,5 UV-I 213 W/m 12,0 C 3,2 km/h (1 Bft)
06.08.2016 08:51 13,8 C 13,8 C 89 % 1025,4 hPa 0,0 mm 1,6 km/h (1 Bft) S 180 0 min 0,000 mm 1,5 UV-I 229 W/m 12,0 C 3,2 km/h (1 Bft)
06.08.2016 08:52 13,8 C 13,8 C 90 % 1025,4 hPa 0,0 mm 4,8 km/h (1 Bft) W 270 0 min 0,000 mm 1,4 UV-I 176 W/m 12,2 C 6,4 km/h (2 Bft)
06.08.2016 08:53 13,9 C 13,9 C 90 % 1025,4 hPa 0,0 mm 3,2 km/h (1 Bft) W-SW 247 0 min 0,000 mm 1,4 UV-I 171 W/m 12,3 C 4,8 km/h (1 Bft)
06.08.2016 08:54 13,9 C 13,9 C 88 % 1025,4 hPa 0,0 mm 3,2 km/h (1 Bft) W 270 0 min 0,000 mm 1,5 UV-I 178 W/m 11,9 C 3,2 km/h (1 Bft)
06.08.2016 08:55 13,9 C 13,9 C 89 % 1025,4 hPa 0,0 mm 4,8 km/h (1 Bft) W 270 0 min 0,000 mm 1,5 UV-I 197 W/m 12,1 C 4,8 km/h (1 Bft)
06.08.2016 08:56 13,9 C 13,9 C 89 % 1025,4 hPa 0,0 mm 3,2 km/h (1 Bft) W-NW 292 0 min 0,000 mm 1,5 UV-I 174 W/m 12,1 C 4,8 km/h (1 Bft)
06.08.2016 08:57 13,9 C 13,9 C 89 % 1025,4 hPa 0,0 mm 4,8 km/h (1 Bft) W-NW 292 0 min 0,000 mm 1,6 UV-I 216 W/m 12,1 C 11,3 km/h (2 Bft)
06.08.2016 08:58 13,9 C 13,9 C 87 % 1025,4 hPa 0,0 mm 6,4 km/h (2 Bft) W 270 0 min 0,000 mm 1,5 UV-I 174 W/m 11,8 C 12,9 km/h (3 Bft)
06.08.2016 08:59 13,9 C 13,9 C 88 % 1025,4 hPa 0,0 mm 3,2 km/h (1 Bft) W 270 0 min 0,000 mm 1,7 UV-I 213 W/m 11,9 C 12,9 km/h (3 Bft)
06.08.2016 09:00 14,0 C 14,0 C 88 % 1025,4 hPa 0,0 mm 1,6 km/h (1 Bft) W-SW 247 1 min 0,076 mm 1,8 UV-I 274 W/m 12,0 C 3,2 km/h (1 Bft)
06.08.2016 09:01 14,1 C 14,1 C 88 % 1025,4 hPa 0,0 mm 4,8 km/h (1 Bft) W-SW 247 0 min 0,000 mm 1,6 UV-I 181 W/m 12,1 C 6,4 km/h (2 Bft)
06.08.2016 09:02 14,1 C 14,1 C 87 % 1025,4 hPa 0,0 mm 4,8 km/h (1 Bft) W-SW 247 0 min 0,000 mm 1,8 UV-I 181 W/m 12,0 C 6,4 km/h (2 Bft)
06.08.2016 09:03 14,1 C 14,1 C 89 % 1025,4 hPa 0,0 mm 4,8 km/h (1 Bft) W-SW 247 1 min 0,000 mm 2,0 UV-I 350 W/m 12,3 C 8,0 km/h (2 Bft)
06.08.2016 09:04 14,2 C 14,2 C 87 % 1025,4 hPa 0,0 mm 3,2 km/h (1 Bft) S-SW 202 1 min 0,000 mm 1,8 UV-I 320 W/m 12,1 C 6,4 km/h (2 Bft)
06.08.2016 09:05 14,2 C 14,2 C 87 % 1025,5 hPa 0,0 mm 4,8 km/h (1 Bft) W 270 1 min 0,000 mm 2,2 UV-I 320 W/m 12,1 C 6,4 km/h (2 Bft)
06.08.2016 09:06 14,2 C 14,2 C 89 % 1025,5 hPa 0,0 mm 1,6 km/h (1 Bft) S 180 1 min 0,000 mm 2,2 UV-I 459 W/m 12,4 C 4,8 km/h (1 Bft)
06.08.2016 09:07 14,3 C 14,3 C 90 % 1025,5 hPa 0,0 mm 1,6 km/h (1 Bft) S 180 1 min 0,000 mm 2,2 UV-I 424 W/m 12,7 C 3,2 km/h (1 Bft)
06.08.2016 09:08 14,4 C 14,4 C 88 % 1025,5 hPa 0,0 mm 3,2 km/h (1 Bft) W 270 1 min 0,000 mm 2,2 UV-I 420 W/m 12,4 C 9,7 km/h (2 Bft)
06.08.2016 09:09 14,6 C 14,6 C 88 % 1025,5 hPa 0,0 mm 6,4 km/h (2 Bft) W 270 1 min 0,000 mm 2,2 UV-I 436 W/m 12,6 C 9,7 km/h (2 Bft)
06.08.2016 09:10 14,5 C 14,5 C 87 % 1025,5 hPa 0,0 mm 4,8 km/h (1 Bft) W-SW 247 1 min 0,000 mm 2,3 UV-I 399 W/m 12,4 C 6,4 km/h (2 Bft)
06.08.2016 09:11 14,6 C 14,6 C 89 % 1025,5 hPa 0,0 mm 4,8 km/h (1 Bft) W-SW 247 1 min 0,000 mm 2,3 UV-I 436 W/m 12,8 C 8,0 km/h (2 Bft)
06.08.2016 09:12 14,6 C 14,6 C 87 % 1025,5 hPa 0,0 mm 3,2 km/h (1 Bft) W 270 1 min 0,000 mm 2,4 UV-I 506 W/m 12,5 C 6,4 km/h (2 Bft)
06.08.2016 09:13 14,7 C 14,7 C 88 % 1025,5 hPa 0,0 mm 4,8 km/h (1 Bft) W-SW 247 1 min 0,000 mm 2,3 UV-I 482 W/m 12,7 C 6,4 km/h (2 Bft)
06.08.2016 09:14 14,8 C 14,8 C 87 % 1025,6 hPa 0,0 mm 3,2 km/h (1 Bft) SW 225 1 min 0,000 mm 2,4 UV-I 512 W/m 12,7 C 4,8 km/h (1 Bft)
06.08.2016 09:15 14,9 C 14,9 C 87 % 1025,5 hPa 0,0 mm 3,2 km/h (1 Bft) SW 225 1 min 0,000 mm 2,4 UV-I 510 W/m 12,8 C 6,4 km/h (2 Bft)
06.08.2016 09:16 14,9 C 15,0 C 86 % 1025,5 hPa 0,0 mm 4,8 km/h (1 Bft) W 270 1 min 0,000 mm 2,5 UV-I 510 W/m 12,6 C 8,0 km/h (2 Bft)
06.08.2016 09:17 15,0 C 15,0 C 86 % 1025,6 hPa 0,0 mm 4,8 km/h (1 Bft) W 270 1 min 0,000 mm 2,2 UV-I 338 W/m 12,7 C 6,4 km/h (2 Bft)
06.08.2016 09:18 14,9 C 15,0 C 85 % 1025,7 hPa 0,0 mm 4,8 km/h (1 Bft) W 270 1 min 0,000 mm 2,2 UV-I 353 W/m 12,4 C 9,7 km/h (2 Bft)
06.08.2016 09:19 14,9 C 14,9 C 86 % 1025,7 hPa 0,0 mm 6,4 km/h (2 Bft) W-NW 292 1 min 0,000 mm 2,5 UV-I 353 W/m 12,6 C 9,7 km/h (2 Bft)
06.08.2016 09:20 14,9 C 14,9 C 87 % 1025,7 hPa 0,0 mm 3,2 km/h (1 Bft) W-NW 292 1 min 0,000 mm 2,1 UV-I 353 W/m 12,8 C 6,4 km/h (2 Bft)
06.08.2016 09:21 14,9 C 14,9 C 87 % 1025,7 hPa 0,0 mm 3,2 km/h (1 Bft) W 270 1 min 0,000 mm 2,4 UV-I 339 W/m 12,8 C 8,0 km/h (2 Bft)
06.08.2016 09:22 15,0 C 15,0 C 84 % 1025,7 hPa 0,0 mm 4,8 km/h (1 Bft) W-NW 292 1 min 0,000 mm 2,8 UV-I 654 W/m 12,3 C 8,0 km/h (2 Bft)
06.08.2016 09:23 15,1 C 15,1 C 87 % 1025,6 hPa 0,0 mm 8,0 km/h (2 Bft) W 270 1 min 0,000 mm 2,3 UV-I 654 W/m 13,0 C 12,9 km/h (3 Bft)
06.08.2016 09:24 15,2 C 15,2 C 83 % 1025,6 hPa 0,0 mm 8,0 km/h (2 Bft) W 270 1 min 0,000 mm 2,2 UV-I 654 W/m 12,3 C 14,5 km/h (3 Bft)
06.08.2016 09:25 15,1 C 15,2 C 84 % 1025,7 hPa 0,0 mm 4,8 km/h (1 Bft) W-NW 292 1 min 0,000 mm 2,2 UV-I 325 W/m 12,4 C 14,5 km/h (3 Bft)
06.08.2016 09:26 15,2 C 15,2 C 85 % 1025,7 hPa 0,0 mm 6,4 km/h (2 Bft) W-SW 247 1 min 0,000 mm 2,3 UV-I 339 W/m 12,7 C 9,7 km/h (2 Bft)
06.08.2016 09:27 15,2 C 15,2 C 84 % 1025,6 hPa 0,0 mm 8,0 km/h (2 Bft) W 270 1 min 0,000 mm 2,3 UV-I 346 W/m 12,5 C 12,9 km/h (3 Bft)
06.08.2016 09:28 15,2 C 15,2 C 84 % 1025,7 hPa 0,0 mm 8,0 km/h (2 Bft) W 270 1 min 0,000 mm 2,4 UV-I 369 W/m 12,5 C 12,9 km/h (3 Bft)
06.08.2016 09:29 15,1 C 15,1 C 84 % 1025,7 hPa 0,0 mm 4,8 km/h (1 Bft) W-SW 247 1 min 0,000 mm 2,4 UV-I 383 W/m 12,4 C 8,0 km/h (2 Bft)
06.08.2016 09:30 15,1 C 15,1 C 84 % 1025,7 hPa 0,0 mm 8,0 km/h (2 Bft) W 270 1 min 0,000 mm 2,6 UV-I 438 W/m 12,4 C 11,3 km/h (2 Bft)
06.08.2016 09:31 15,1 C 15,1 C 84 % 1025,7 hPa 0,0 mm 6,4 km/h (2 Bft) W 270 1 min 0,000 mm 2,7 UV-I 459 W/m 12,4 C 9,7 km/h (2 Bft)
06.08.2016 09:32 15,2 C 15,2 C 86 % 1025,7 hPa 0,0 mm 8,0 km/h (2 Bft) W-SW 247 1 min 0,000 mm 2,4 UV-I 385 W/m 12,9 C 12,9 km/h (3 Bft)
06.08.2016 09:33 15,2 C 15,2 C 85 % 1025,7 hPa 0,0 mm 9,7 km/h (2 Bft) W-SW 247 1 min 0,000 mm 2,4 UV-I 441 W/m 12,7 C 12,9 km/h (3 Bft)
06.08.2016 09:34 15,2 C 15,2 C 83 % 1025,7 hPa 0,0 mm 8,0 km/h (2 Bft) W-SW 247 1 min 0,000 mm 2,8 UV-I 461 W/m 12,3 C 11,3 km/h (2 Bft)
06.08.2016 09:35 15,2 C 15,2 C 84 % 1025,8 hPa 0,0 mm 4,8 km/h (1 Bft) W 270 1 min 0,000 mm 3,1 UV-I 461 W/m 12,5 C 9,7 km/h (2 Bft)
06.08.2016 09:36 15,3 C 15,3 C 86 % 1025,8 hPa 0,0 mm 6,4 km/h (2 Bft) W 270 1 min 0,000 mm 3,2 UV-I 642 W/m 13,0 C 9,7 km/h (2 Bft)
06.08.2016 09:37 15,5 C 15,5 C 88 % 1025,8 hPa 0,0 mm 4,8 km/h (1 Bft) W-NW 292 1 min 0,000 mm 3,3 UV-I 640 W/m 13,5 C 9,7 km/h (2 Bft)
06.08.2016 09:38 15,7 C 15,7 C 86 % 1025,8 hPa 0,0 mm 8,0 km/h (2 Bft) W-SW 247 1 min 0,000 mm 3,5 UV-I 740 W/m 13,4 C 12,9 km/h (3 Bft)
06.08.2016 09:39 15,8 C 15,8 C 85 % 1025,8 hPa 0,0 mm 8,0 km/h (2 Bft) W-SW 247 1 min 0,000 mm 3,5 UV-I 733 W/m 13,3 C 12,9 km/h (3 Bft)
06.08.2016 09:40 15,9 C 15,9 C 83 % 1025,8 hPa 0,0 mm 6,4 km/h (2 Bft) SW 225 1 min 0,000 mm 3,5 UV-I 726 W/m 13,0 C 11,3 km/h (2 Bft)
06.08.2016 09:41 15,9 C 15,9 C 85 % 1025,8 hPa 0,0 mm 4,8 km/h (1 Bft) W-SW 247 1 min 0,000 mm 3,6 UV-I 719 W/m 13,4 C 11,3 km/h (2 Bft)
06.08.2016 09:42 15,9 C 15,9 C 83 % 1025,8 hPa 0,0 mm 8,0 km/h (2 Bft) W-SW 247 1 min 0,000 mm 3,6 UV-I 708 W/m 13,0 C 11,3 km/h (2 Bft)
06.08.2016 09:43 15,9 C 15,9 C 83 % 1025,8 hPa 0,0 mm 6,4 km/h (2 Bft) W-SW 247 1 min 0,000 mm 3,7 UV-I 707 W/m 13,0 C 9,7 km/h (2 Bft)
06.08.2016 09:44 15,9 C 15,9 C 83 % 1025,8 hPa 0,0 mm 6,4 km/h (2 Bft) W-SW 247 1 min 0,000 mm 3,7 UV-I 715 W/m 13,0 C 8,0 km/h (2 Bft)
06.08.2016 09:45 15,9 C 16,0 C 83 % 1025,9 hPa 0,0 mm 6,4 km/h (2 Bft) W-NW 292 1 min 0,000 mm 3,8 UV-I 721 W/m 13,0 C 9,7 km/h (2 Bft)
06.08.2016 09:46 16,0 C 16,0 C 86 % 1025,9 hPa 0,0 mm 4,8 km/h (1 Bft) W-NW 292 1 min 0,000 mm 3,8 UV-I 729 W/m 13,7 C 8,0 km/h (2 Bft)
06.08.2016 09:47 16,1 C 16,1 C 84 % 1025,9 hPa 0,0 mm 6,4 km/h (2 Bft) W-NW 292 1 min 0,000 mm 3,9 UV-I 729 W/m 13,4 C 12,9 km/h (3 Bft)
06.08.2016 09:48 16,1 C 16,2 C 82 % 1025,9 hPa 0,0 mm 8,0 km/h (2 Bft) W 270 1 min 0,000 mm 3,6 UV-I 664 W/m 13,0 C 11,3 km/h (2 Bft)
06.08.2016 09:49 16,1 C 16,1 C 84 % 1025,9 hPa 0,0 mm 8,0 km/h (2 Bft) W-SW 247 1 min 0,000 mm 3,2 UV-I 664 W/m 13,4 C 12,9 km/h (3 Bft)
06.08.2016 09:50 16,1 C 16,1 C 84 % 1025,9 hPa 0,0 mm 8,0 km/h (2 Bft) W 270 1 min 0,000 mm 3,4 UV-I 510 W/m 13,4 C 12,9 km/h (3 Bft)
06.08.2016 09:51 16,2 C 16,2 C 85 % 1025,8 hPa 0,0 mm 8,0 km/h (2 Bft) W-SW 247 1 min 0,000 mm 3,9 UV-I 694 W/m 13,7 C 11,3 km/h (2 Bft)
06.08.2016 09:52 16,2 C 16,2 C 83 % 1025,9 hPa 0,0 mm 4,8 km/h (1 Bft) W-SW 247 1 min 0,000 mm 4,0 UV-I 703 W/m 13,3 C 12,9 km/h (3 Bft)
06.08.2016 09:53 16,2 C 16,2 C 86 % 1025,9 hPa 0,0 mm 8,0 km/h (2 Bft) W-NW 292 1 min 0,000 mm 4,0 UV-I 719 W/m 13,9 C 12,9 km/h (3 Bft)
06.08.2016 09:54 16,2 C 16,2 C 83 % 1025,9 hPa 0,0 mm 4,8 km/h (1 Bft) W-NW 292 1 min 0,000 mm 4,1 UV-I 719 W/m 13,3 C 6,4 km/h (2 Bft)
06.08.2016 09:55 16,2 C 16,2 C 86 % 1025,9 hPa 0,0 mm 4,8 km/h (1 Bft) NW 315 1 min 0,000 mm 4,0 UV-I 754 W/m 13,9 C 9,7 km/h (2 Bft)
06.08.2016 09:56 16,3 C 16,3 C 82 % 1025,8 hPa 0,0 mm 3,2 km/h (1 Bft) NW 315 1 min 0,000 mm 4,0 UV-I 756 W/m 13,2 C 6,4 km/h (2 Bft)
06.08.2016 09:57 16,3 C 16,3 C 84 % 1025,9 hPa 0,0 mm 8,0 km/h (2 Bft) W-NW 292 1 min 0,000 mm 4,1 UV-I 742 W/m 13,6 C 11,3 km/h (2 Bft)
06.08.2016 09:58 16,4 C 16,4 C 83 % 1025,8 hPa 0,0 mm 8,0 km/h (2 Bft) W 270 1 min 0,000 mm 4,1 UV-I 740 W/m 13,5 C 12,9 km/h (3 Bft)
06.08.2016 09:59 16,3 C 16,4 C 81 % 1025,8 hPa 0,0 mm 8,0 km/h (2 Bft) W 270 1 min 0,000 mm 4,2 UV-I 740 W/m 13,0 C 14,5 km/h (3 Bft)
06.08.2016 10:00 16,3 C 16,3 C 80 % 1025,8 hPa 0,0 mm 4,8 km/h (1 Bft) W-NW 292 1 min 0,279 mm 4,3 UV-I 802 W/m 12,8 C 6,4 km/h (2 Bft)
06.08.2016 10:01 16,2 C 16,3 C 80 % 1025,8 hPa 0,0 mm 4,8 km/h (1 Bft) W-NW 292 1 min 0,000 mm 4,3 UV-I 791 W/m 12,7 C 8,0 km/h (2 Bft)
06.08.2016 10:02 16,3 C 16,3 C 83 % 1025,9 hPa 0,0 mm 6,4 km/h (2 Bft) W 270 1 min 0,000 mm 3,7 UV-I 791 W/m 13,4 C 12,9 km/h (3 Bft)
06.08.2016 10:03 16,2 C 16,3 C 80 % 1025,8 hPa 0,0 mm 8,0 km/h (2 Bft) W 270 1 min 0,000 mm 3,4 UV-I 487 W/m 12,7 C 11,3 km/h (2 Bft)
06.08.2016 10:04 16,1 C 16,2 C 80 % 1025,9 hPa 0,0 mm 6,4 km/h (2 Bft) W-NW 292 1 min 0,000 mm 3,4 UV-I 483 W/m 12,6 C 11,3 km/h (2 Bft)
06.08.2016 10:05 15,9 C 16,1 C 82 % 1025,9 hPa 0,0 mm 4,8 km/h (1 Bft) W 270 1 min 0,000 mm 3,8 UV-I 483 W/m 12,8 C 6,4 km/h (2 Bft)
06.08.2016 10:06 15,9 C 15,9 C 83 % 1025,9 hPa 0,0 mm 3,2 km/h (1 Bft) W-NW 292 1 min 0,000 mm 4,1 UV-I 483 W/m 13,0 C 4,8 km/h (1 Bft)
06.08.2016 10:07 16,0 C 16,0 C 84 % 1025,9 hPa 0,0 mm 4,8 km/h (1 Bft) W-NW 292 1 min 0,000 mm 4,3 UV-I 796 W/m 13,3 C 6,4 km/h (2 Bft)
06.08.2016 10:08 16,1 C 16,1 C 84 % 1025,9 hPa 0,0 mm 6,4 km/h (2 Bft) W 270 1 min 0,000 mm 4,3 UV-I 717 W/m 13,4 C 9,7 km/h (2 Bft)
06.08.2016 10:09 16,3 C 16,3 C 84 % 1025,9 hPa 0,0 mm 6,4 km/h (2 Bft) W-NW 292 1 min 0,000 mm 4,5 UV-I 833 W/m 13,6 C 11,3 km/h (2 Bft)
06.08.2016 10:10 16,2 C 16,3 C 82 % 1025,9 hPa 0,0 mm 8,0 km/h (2 Bft) W 270 1 min 0,000 mm 4,6 UV-I 849 W/m 13,1 C 11,3 km/h (2 Bft)
06.08.2016 10:11 16,3 C 16,3 C 83 % 1025,9 hPa 0,0 mm 6,4 km/h (2 Bft) NW 315 1 min 0,000 mm 4,6 UV-I 837 W/m 13,4 C 12,9 km/h (3 Bft)
06.08.2016 10:12 16,3 C 16,3 C 82 % 1025,9 hPa 0,0 mm 8,0 km/h (2 Bft) W 270 1 min 0,000 mm 4,6 UV-I 828 W/m 13,2 C 12,9 km/h (3 Bft)
06.08.2016 10:13 16,3 C 16,3 C 82 % 1025,8 hPa 0,0 mm 6,4 km/h (2 Bft) W 270 1 min 0,000 mm 4,6 UV-I 788 W/m 13,2 C 9,7 km/h (2 Bft)
06.08.2016 10:14 16,3 C 16,3 C 81 % 1025,9 hPa 0,0 mm 8,0 km/h (2 Bft) W-SW 247 1 min 0,000 mm 4,8 UV-I 842 W/m 13,0 C 14,5 km/h (3 Bft)
06.08.2016 10:15 16,4 C 16,4 C 84 % 1025,9 hPa 0,0 mm 8,0 km/h (2 Bft) W-SW 247 1 min 0,000 mm 4,9 UV-I 844 W/m 13,7 C 11,3 km/h (2 Bft)
06.08.2016 10:16 16,6 C 16,6 C 82 % 1025,8 hPa 0,0 mm 9,7 km/h (2 Bft) W-SW 247 1 min 0,000 mm 4,6 UV-I 763 W/m 13,5 C 12,9 km/h (3 Bft)
06.08.2016 10:17 16,6 C 16,7 C 79 % 1025,8 hPa 0,0 mm 8,0 km/h (2 Bft) W 270 1 min 0,000 mm 4,7 UV-I 793 W/m 12,9 C 12,9 km/h (3 Bft)
06.08.2016 10:18 16,6 C 16,6 C 79 % 1025,8 hPa 0,0 mm 4,8 km/h (1 Bft) W-SW 247 1 min 0,000 mm 4,4 UV-I 805 W/m 12,9 C 8,0 km/h (2 Bft)
06.08.2016 10:19 16,6 C 16,6 C 82 % 1025,9 hPa 0,0 mm 3,2 km/h (1 Bft) S-SW 202 1 min 0,000 mm 3,5 UV-I 573 W/m 13,5 C 6,4 km/h (2 Bft)
06.08.2016 10:20 16,4 C 16,6 C 80 % 1025,8 hPa 0,0 mm 8,0 km/h (2 Bft) W 270 1 min 0,000 mm 3,5 UV-I 573 W/m 12,9 C 11,3 km/h (2 Bft)
06.08.2016 10:21 16,4 C 16,4 C 83 % 1025,9 hPa 0,0 mm 6,4 km/h (2 Bft) W 270 1 min 0,000 mm 3,5 UV-I 410 W/m 13,5 C 11,3 km/h (2 Bft)
06.08.2016 10:22 16,3 C 16,4 C 79 % 1025,9 hPa 0,0 mm 4,8 km/h (1 Bft) W-SW 247 1 min 0,000 mm 4,6 UV-I 410 W/m 12,6 C 8,0 km/h (2 Bft)
06.08.2016 10:23 16,2 C 16,3 C 81 % 1025,8 hPa 0,0 mm 3,2 km/h (1 Bft) S 180 1 min 0,000 mm 4,6 UV-I 747 W/m 12,9 C 4,8 km/h (1 Bft)
06.08.2016 10:24 16,2 C 16,2 C 82 % 1025,8 hPa 0,0 mm 4,8 km/h (1 Bft) SW 225 1 min 0,000 mm 4,6 UV-I 761 W/m 13,1 C 4,8 km/h (1 Bft)
06.08.2016 10:25 16,2 C 16,2 C 80 % 1025,8 hPa 0,0 mm 3,2 km/h (1 Bft) W-SW 247 1 min 0,000 mm 4,7 UV-I 763 W/m 12,7 C 4,8 km/h (1 Bft)
06.08.2016 10:26 16,2 C 16,3 C 81 % 1025,8 hPa 0,0 mm 6,4 km/h (2 Bft) W 270 0 min 0,000 mm 3,3 UV-I 352 W/m 12,9 C 9,7 km/h (2 Bft)
06.08.2016 10:27 16,2 C 16,2 C 80 % 1025,8 hPa 0,0 mm 4,8 km/h (1 Bft) SW 225 0 min 0,000 mm 5,0 UV-I 352 W/m 12,7 C 6,4 km/h (2 Bft)
06.08.2016 10:28 16,1 C 16,2 C 80 % 1025,8 hPa 0,0 mm 1,6 km/h (1 Bft) S 180 1 min 0,000 mm 4,9 UV-I 805 W/m 12,6 C 3,2 km/h (1 Bft)
06.08.2016 10:29 16,0 C 16,1 C 81 % 1025,8 hPa 0,0 mm 4,8 km/h (1 Bft) W-SW 247 1 min 0,000 mm 4,9 UV-I 782 W/m 12,7 C 11,3 km/h (2 Bft)
06.08.2016 10:30 16,0 C 16,1 C 78 % 1025,8 hPa 0,0 mm 4,8 km/h (1 Bft) S-SW 202 1 min 0,000 mm 3,3 UV-I 782 W/m 12,2 C 8,0 km/h (2 Bft)
06.08.2016 10:31 16,1 C 16,1 C 80 % 1025,8 hPa 0,0 mm 4,8 km/h (1 Bft) W-NW 292 0 min 0,000 mm 3,2 UV-I 267 W/m 12,6 C 6,4 km/h (2 Bft)
06.08.2016 10:32 16,1 C 16,1 C 80 % 1025,8 hPa 0,0 mm 6,4 km/h (2 Bft) NW 315 0 min 0,000 mm 3,2 UV-I 271 W/m 12,6 C 11,3 km/h (2 Bft)
06.08.2016 10:33 16,0 C 16,0 C 81 % 1025,8 hPa 0,0 mm 4,8 km/h (1 Bft) NW 315 0 min 0,000 mm 4,4 UV-I 271 W/m 12,7 C 8,0 km/h (2 Bft)
06.08.2016 10:34 16,1 C 16,1 C 80 % 1025,8 hPa 0,0 mm 3,2 km/h (1 Bft) N-NW 337 0 min 0,000 mm 4,5 UV-I 271 W/m 12,6 C 4,8 km/h (1 Bft)
06.08.2016 10:35 16,2 C 16,2 C 83 % 1025,9 hPa 0,0 mm 3,2 km/h (1 Bft) N-NO 22 0 min 0,000 mm 3,6 UV-I 271 W/m 13,3 C 4,8 km/h (1 Bft)
06.08.2016 10:36 16,3 C 16,3 C 80 % 1025,9 hPa 0,0 mm 6,4 km/h (2 Bft) NW 315 0 min 0,000 mm 2,6 UV-I 271 W/m 12,8 C 11,3 km/h (2 Bft)
06.08.2016 10:37 16,4 C 16,4 C 81 % 1025,9 hPa 0,0 mm 4,8 km/h (1 Bft) W-SW 247 0 min 0,000 mm 2,7 UV-I 292 W/m 13,1 C 8,0 km/h (2 Bft)
06.08.2016 10:38 16,3 C 16,4 C 78 % 1025,9 hPa 0,0 mm 4,8 km/h (1 Bft) W 270 0 min 0,000 mm 4,1 UV-I 292 W/m 12,5 C 6,4 km/h (2 Bft)
06.08.2016 10:39 16,3 C 16,3 C 76 % 1025,9 hPa 0,0 mm 3,2 km/h (1 Bft) W-SW 247 0 min 0,000 mm 3,6 UV-I 292 W/m 12,1 C 4,8 km/h (1 Bft)
06.08.2016 10:40 16,2 C 16,2 C 80 % 1025,9 hPa 0,0 mm 4,8 km/h (1 Bft) W 270 1 min 0,000 mm 4,0 UV-I 496 W/m 12,7 C 4,8 km/h (1 Bft)
06.08.2016 10:41 16,4 C 16,4 C 81 % 1025,9 hPa 0,0 mm 6,4 km/h (2 Bft) W 270 1 min 0,000 mm 4,3 UV-I 496 W/m 13,1 C 9,7 km/h (2 Bft)
06.08.2016 10:42 16,4 C 16,4 C 76 % 1025,9 hPa 0,0 mm 6,4 km/h (2 Bft) NW 315 1 min 0,000 mm 4,3 UV-I 701 W/m 12,2 C 8,0 km/h (2 Bft)
06.08.2016 10:43 16,4 C 16,4 C 78 % 1025,9 hPa 0,0 mm 6,4 km/h (2 Bft) NW 315 1 min 0,000 mm 5,1 UV-I 749 W/m 12,6 C 12,9 km/h (3 Bft)
06.08.2016 10:44 16,5 C 16,5 C 76 % 1025,9 hPa 0,0 mm 9,7 km/h (2 Bft) NW 315 1 min 0,000 mm 5,2 UV-I 749 W/m 12,3 C 12,9 km/h (3 Bft)
06.08.2016 10:45 16,6 C 16,6 C 78 % 1026,0 hPa 0,0 mm 6,4 km/h (2 Bft) NW 315 1 min 0,000 mm 3,0 UV-I 749 W/m 12,7 C 12,9 km/h (3 Bft)
06.08.2016 10:46 16,7 C 16,7 C 78 % 1026,0 hPa 0,0 mm 8,0 km/h (2 Bft) W-NW 292 1 min 0,000 mm 3,7 UV-I 749 W/m 12,8 C 14,5 km/h (3 Bft)
06.08.2016 10:47 16,7 C 16,7 C 77 % 1026,0 hPa 0,0 mm 8,0 km/h (2 Bft) W 270 1 min 0,000 mm 5,0 UV-I 749 W/m 12,6 C 12,9 km/h (3 Bft)
06.08.2016 10:48 16,7 C 16,8 C 78 % 1026,0 hPa 0,0 mm 9,7 km/h (2 Bft) W-NW 292 1 min 0,000 mm 4,9 UV-I 782 W/m 12,8 C 12,9 km/h (3 Bft)
06.08.2016 10:49 16,8 C 16,8 C 79 % 1025,9 hPa 0,0 mm 4,8 km/h (1 Bft) W-NW 292 1 min 0,000 mm 4,6 UV-I 686 W/m 13,1 C 8,0 km/h (2 Bft)
06.08.2016 10:50 16,7 C 16,8 C 78 % 1025,9 hPa 0,0 mm 4,8 km/h (1 Bft) W-NW 292 1 min 0,000 mm 3,5 UV-I 686 W/m 12,8 C 9,7 km/h (2 Bft)
06.08.2016 10:51 16,6 C 16,7 C 75 % 1025,9 hPa 0,0 mm 4,8 km/h (1 Bft) NW 315 1 min 0,000 mm 3,8 UV-I 415 W/m 12,1 C 8,0 km/h (2 Bft)
06.08.2016 10:52 16,5 C 16,6 C 75 % 1025,8 hPa 0,0 mm 4,8 km/h (1 Bft) W 270 1 min 0,000 mm 4,6 UV-I 415 W/m 12,1 C 6,4 km/h (2 Bft)
06.08.2016 10:53 16,4 C 16,5 C 75 % 1025,8 hPa 0,0 mm 8,0 km/h (2 Bft) W-NW 292 1 min 0,000 mm 5,0 UV-I 670 W/m 12,0 C 11,3 km/h (2 Bft)
06.08.2016 10:54 16,4 C 16,4 C 76 % 1025,9 hPa 0,0 mm 4,8 km/h (1 Bft) W-NW 292 1 min 0,000 mm 4,9 UV-I 675 W/m 12,2 C 6,4 km/h (2 Bft)
06.08.2016 10:55 16,4 C 16,4 C 77 % 1025,9 hPa 0,0 mm 8,0 km/h (2 Bft) W-SW 247 1 min 0,000 mm 5,1 UV-I 726 W/m 12,4 C 11,3 km/h (2 Bft)
06.08.2016 10:56 16,4 C 16,4 C 76 % 1025,9 hPa 0,0 mm 6,4 km/h (2 Bft) W-SW 247 1 min 0,000 mm 4,8 UV-I 708 W/m 12,2 C 8,0 km/h (2 Bft)
06.08.2016 10:57 16,4 C 16,4 C 76 % 1025,9 hPa 0,0 mm 8,0 km/h (2 Bft) W-NW 292 0 min 0,000 mm 3,8 UV-I 364 W/m 12,2 C 11,3 km/h (2 Bft)
06.08.2016 10:58 16,4 C 16,4 C 74 % 1025,9 hPa 0,0 mm 3,2 km/h (1 Bft) W-NW 292 0 min 0,000 mm 3,9 UV-I 387 W/m 11,8 C 4,8 km/h (1 Bft)
06.08.2016 10:59 16,4 C 16,4 C 74 % 1025,9 hPa 0,0 mm 3,2 km/h (1 Bft) W 270 0 min 0,000 mm 3,8 UV-I 367 W/m 11,8 C 4,8 km/h (1 Bft)
06.08.2016 11:00 16,3 C 16,3 C 75 % 1025,9 hPa 0,0 mm 4,8 km/h (1 Bft) W 270 0 min 0,330 mm 3,7 UV-I 369 W/m 11,9 C 4,8 km/h (1 Bft)
06.08.2016 11:01 16,3 C 16,3 C 74 % 1025,9 hPa 0,0 mm 1,6 km/h (1 Bft) NW 315 0 min 0,000 mm 3,4 UV-I 350 W/m 11,7 C 4,8 km/h (1 Bft)
06.08.2016 11:02 16,3 C 16,3 C 75 % 1025,9 hPa 0,0 mm 4,8 km/h (1 Bft) W-NW 292 0 min 0,000 mm 3,7 UV-I 364 W/m 11,9 C 6,4 km/h (2 Bft)
06.08.2016 11:03 16,3 C 16,4 C 75 % 1025,9 hPa 0,0 mm 4,8 km/h (1 Bft) W-NW 292 1 min 0,000 mm 4,0 UV-I 410 W/m 11,9 C 9,7 km/h (2 Bft)
06.08.2016 11:04 16,3 C 16,3 C 75 % 1025,9 hPa 0,0 mm 4,8 km/h (1 Bft) W 270 1 min 0,000 mm 4,3 UV-I 439 W/m 11,9 C 6,4 km/h (2 Bft)
06.08.2016 11:05 16,4 C 16,4 C 73 % 1025,8 hPa 0,0 mm 4,8 km/h (1 Bft) W 270 1 min 0,000 mm 4,7 UV-I 533 W/m 11,5 C 9,7 km/h (2 Bft)
06.08.2016 11:06 16,4 C 16,4 C 72 % 1025,9 hPa 0,0 mm 4,8 km/h (1 Bft) W-NW 292 1 min 0,000 mm 6,2 UV-I 875 W/m 11,3 C 6,4 km/h (2 Bft)
06.08.2016 11:07 16,8 C 16,8 C 79 % 1025,9 hPa 0,0 mm 6,4 km/h (2 Bft) W-NW 292 1 min 0,000 mm 5,9 UV-I 809 W/m 13,1 C 11,3 km/h (2 Bft)
06.08.2016 11:08 16,9 C 16,9 C 73 % 1025,9 hPa 0,0 mm 6,4 km/h (2 Bft) W-NW 292 1 min 0,000 mm 6,4 UV-I 809 W/m 12,0 C 9,7 km/h (2 Bft)
06.08.2016 11:09 17,0 C 17,0 C 74 % 1025,9 hPa 0,0 mm 4,8 km/h (1 Bft) NW 315 1 min 0,000 mm 6,4 UV-I 809 W/m 12,3 C 8,0 km/h (2 Bft)
06.08.2016 11:10 17,1 C 17,1 C 74 % 1025,9 hPa 0,0 mm 3,2 km/h (1 Bft) N-NW 337 1 min 0,000 mm 6,4 UV-I 1011 W/m 12,4 C 6,4 km/h (2 Bft)
06.08.2016 11:11 17,2 C 17,2 C 70 % 1025,9 hPa 0,0 mm 4,8 km/h (1 Bft) NW 315 1 min 0,000 mm 6,4 UV-I 962 W/m 11,7 C 8,0 km/h (2 Bft)
06.08.2016 11:12 17,2 C 17,2 C 73 % 1025,9 hPa 0,0 mm 1,6 km/h (1 Bft) W-SW 247 1 min 0,000 mm 4,3 UV-I 962 W/m 12,3 C 3,2 km/h (1 Bft)
06.08.2016 11:13 17,2 C 17,2 C 72 % 1025,9 hPa 0,0 mm 4,8 km/h (1 Bft) NW 315 1 min 0,000 mm 6,6 UV-I 962 W/m 12,1 C 8,0 km/h (2 Bft)
06.08.2016 11:14 17,1 C 17,1 C 72 % 1025,9 hPa 0,0 mm 9,7 km/h (2 Bft) W-NW 292 1 min 0,000 mm 6,6 UV-I 962 W/m 12,0 C 12,9 km/h (3 Bft)
06.08.2016 11:15 17,2 C 17,2 C 74 % 1025,9 hPa 0,0 mm 4,8 km/h (1 Bft) W 270 1 min 0,000 mm 6,4 UV-I 977 W/m 12,5 C 9,7 km/h (2 Bft)
06.08.2016 11:16 17,1 C 17,2 C 69 % 1026,0 hPa 0,0 mm 3,2 km/h (1 Bft) W-NW 292 1 min 0,000 mm 6,3 UV-I 942 W/m 11,4 C 4,8 km/h (1 Bft)
06.08.2016 11:17 17,2 C 17,2 C 70 % 1026,0 hPa 0,0 mm 3,2 km/h (1 Bft) W-NW 292 1 min 0,000 mm 5,9 UV-I 939 W/m 11,7 C 4,8 km/h (1 Bft)
06.08.2016 11:18 17,1 C 17,2 C 72 % 1025,9 hPa 0,0 mm 4,8 km/h (1 Bft) SW 225 1 min 0,000 mm 5,6 UV-I 742 W/m 12,0 C 11,3 km/h (2 Bft)
06.08.2016 11:19 17,1 C 17,1 C 71 % 1025,9 hPa 0,0 mm 8,0 km/h (2 Bft) W 270 1 min 0,000 mm 5,3 UV-I 684 W/m 11,8 C 11,3 km/h (2 Bft)
06.08.2016 11:20 17,1 C 17,1 C 73 % 1025,9 hPa 0,0 mm 4,8 km/h (1 Bft) W-NW 292 1 min 0,000 mm 5,6 UV-I 684 W/m 12,2 C 6,4 km/h (2 Bft)
06.08.2016 11:21 17,1 C 17,1 C 74 % 1025,9 hPa 0,0 mm 8,0 km/h (2 Bft) W-NW 292 1 min 0,000 mm 5,6 UV-I 768 W/m 12,4 C 11,3 km/h (2 Bft)
06.08.2016 11:22 17,3 C 17,3 C 73 % 1025,9 hPa 0,0 mm 6,4 km/h (2 Bft) W-NW 292 1 min 0,000 mm 6,0 UV-I 768 W/m 12,4 C 11,3 km/h (2 Bft)
06.08.2016 11:23 17,5 C 17,5 C 75 % 1025,9 hPa 0,0 mm 3,2 km/h (1 Bft) W 270 1 min 0,000 mm 6,1 UV-I 914 W/m 13,0 C 6,4 km/h (2 Bft)
06.08.2016 11:24 17,7 C 17,7 C 81 % 1025,9 hPa 0,0 mm 6,4 km/h (2 Bft) W-NW 292 1 min 0,000 mm 6,2 UV-I 986 W/m 14,4 C 11,3 km/h (2 Bft)
06.08.2016 11:25 17,8 C 17,8 C 75 % 1025,9 hPa 0,0 mm 6,4 km/h (2 Bft) W-NW 292 1 min 0,000 mm 6,4 UV-I 940 W/m 13,3 C 11,3 km/h (2 Bft)
06.08.2016 11:26 17,7 C 17,8 C 70 % 1025,9 hPa 0,0 mm 8,0 km/h (2 Bft) W 270 1 min 0,000 mm 5,8 UV-I 969 W/m 12,2 C 11,3 km/h (2 Bft)
06.08.2016 11:27 17,7 C 17,7 C 72 % 1025,9 hPa 0,0 mm 6,4 km/h (2 Bft) W-SW 247 1 min 0,000 mm 5,1 UV-I 969 W/m 12,6 C 8,0 km/h (2 Bft)
06.08.2016 11:28 17,6 C 17,6 C 70 % 1025,9 hPa 0,0 mm 4,8 km/h (1 Bft) SW 225 1 min 0,000 mm 6,3 UV-I 969 W/m 12,1 C 6,4 km/h (2 Bft)
06.08.2016 11:29 17,6 C 17,6 C 71 % 1025,9 hPa 0,0 mm 4,8 km/h (1 Bft) S-SW 202 1 min 0,000 mm 6,2 UV-I 1009 W/m 12,3 C 9,7 km/h (2 Bft)
06.08.2016 11:30 17,7 C 17,7 C 79 % 1025,9 hPa 0,0 mm 6,4 km/h (2 Bft) W-SW 247 1 min 0,000 mm 5,9 UV-I 963 W/m 14,0 C 8,0 km/h (2 Bft)
06.08.2016 11:31 17,7 C 17,7 C 72 % 1025,9 hPa 0,0 mm 3,2 km/h (1 Bft) N-NW 337 0 min 0,000 mm 3,2 UV-I 262 W/m 12,6 C 6,4 km/h (2 Bft)
06.08.2016 11:32 17,4 C 17,6 C 67 % 1025,9 hPa 0,0 mm 4,8 km/h (1 Bft) W-NW 292 0 min 0,000 mm 2,7 UV-I 243 W/m 11,2 C 6,4 km/h (2 Bft)
06.08.2016 11:33 17,3 C 17,4 C 69 % 1025,9 hPa 0,0 mm 3,2 km/h (1 Bft) W-NW 292 0 min 0,000 mm 2,5 UV-I 232 W/m 11,6 C 6,4 km/h (2 Bft)
06.08.2016 11:34 17,2 C 17,3 C 72 % 1026,0 hPa 0,0 mm 3,2 km/h (1 Bft) NW 315 0 min 0,000 mm 2,4 UV-I 232 W/m 12,1 C 4,8 km/h (1 Bft)
06.08.2016 11:35 16,9 C 17,1 C 70 % 1025,9 hPa 0,0 mm 3,2 km/h (1 Bft) W-NW 292 0 min 0,000 mm 2,3 UV-I 232 W/m 11,4 C 4,8 km/h (1 Bft)
06.08.2016 11:36 16,8 C 16,9 C 70 % 1025,9 hPa 0,0 mm 3,2 km/h (1 Bft) W 270 0 min 0,000 mm 2,0 UV-I 216 W/m 11,3 C 9,7 km/h (2 Bft)
06.08.2016 11:37 16,7 C 16,8 C 69 % 1025,9 hPa 0,0 mm 6,4 km/h (2 Bft) NW 315 0 min 0,000 mm 1,8 UV-I 167 W/m 11,0 C 9,7 km/h (2 Bft)
06.08.2016 11:38 16,6 C 16,7 C 69 % 1026,0 hPa 0,0 mm 4,8 km/h (1 Bft) W-SW 247 0 min 0,000 mm 1,3 UV-I 144 W/m 10,9 C 6,4 km/h (2 Bft)
06.08.2016 11:39 16,5 C 16,6 C 70 % 1026,0 hPa 0,0 mm 4,8 km/h (1 Bft) W 270 0 min 0,000 mm 1,2 UV-I 127 W/m 11,0 C 6,4 km/h (2 Bft)
06.08.2016 11:40 16,4 C 16,4 C 71 % 1026,0 hPa 0,0 mm 3,2 km/h (1 Bft) W-SW 247 0 min 0,000 mm 1,0 UV-I 118 W/m 11,1 C 4,8 km/h (1 Bft)
06.08.2016 11:41 16,3 C 16,4 C 71 % 1026,0 hPa 0,0 mm 3,2 km/h (1 Bft) NW 315 0 min 0,000 mm 0,9 UV-I 111 W/m 11,0 C 6,4 km/h (2 Bft)
06.08.2016 11:42 16,3 C 16,3 C 70 % 1026,0 hPa 0,0 mm 3,2 km/h (1 Bft) NW 315 0 min 0,000 mm 0,8 UV-I 95 W/m 10,8 C 6,4 km/h (2 Bft)
06.08.2016 11:43 16,2 C 16,2 C 73 % 1026,0 hPa 0,0 mm 6,4 km/h (2 Bft) NW 315 0 min 0,000 mm 0,7 UV-I 86 W/m 11,4 C 11,3 km/h (2 Bft)
06.08.2016 11:44 16,1 C 16,2 C 75 % 1026,0 hPa 0,0 mm 4,8 km/h (1 Bft) W-NW 292 0 min 0,000 mm 0,6 UV-I 79 W/m 11,7 C 4,8 km/h (1 Bft)
06.08.2016 11:45 16,0 C 16,1 C 75 % 1026,1 hPa 0,0 mm 8,0 km/h (2 Bft) NW 315 0 min 0,000 mm 0,6 UV-I 74 W/m 11,6 C 12,9 km/h (3 Bft)
06.08.2016 11:46 15,9 C 16,0 C 76 % 1026,1 hPa 0,0 mm 4,8 km/h (1 Bft) W-NW 292 0 min 0,000 mm 0,6 UV-I 70 W/m 11,7 C 8,0 km/h (2 Bft)
06.08.2016 11:47 15,8 C 15,9 C 76 % 1026,0 hPa 0,0 mm 6,4 km/h (2 Bft) NW 315 0 min 0,000 mm 0,6 UV-I 72 W/m 11,6 C 11,3 km/h (2 Bft)
06.08.2016 11:48 15,7 C 15,8 C 76 % 1026,1 hPa 0,0 mm 6,4 km/h (2 Bft) W-NW 292 0 min 0,000 mm 0,6 UV-I 76 W/m 11,5 C 11,3 km/h (2 Bft)
06.08.2016 11:49 15,7 C 15,7 C 77 % 1026,1 hPa 0,0 mm 4,8 km/h (1 Bft) W-NW 292 0 min 0,000 mm 0,6 UV-I 76 W/m 11,7 C 6,4 km/h (2 Bft)
06.08.2016 11:50 15,6 C 15,7 C 77 % 1026,2 hPa 0,0 mm 4,8 km/h (1 Bft) W-NW 292 0 min 0,000 mm 0,6 UV-I 74 W/m 11,6 C 11,3 km/h (2 Bft)
06.08.2016 11:51 15,5 C 15,6 C 78 % 1026,2 hPa 0,0 mm 6,4 km/h (2 Bft) W-NW 292 0 min 0,000 mm 0,6 UV-I 72 W/m 11,7 C 9,7 km/h (2 Bft)
06.08.2016 11:52 15,4 C 15,5 C 78 % 1026,2 hPa 0,0 mm 4,8 km/h (1 Bft) NW 315 0 min 0,000 mm 0,6 UV-I 70 W/m 11,6 C 6,4 km/h (2 Bft)
06.08.2016 11:53 15,4 C 15,4 C 78 % 1026,2 hPa 0,0 mm 4,8 km/h (1 Bft) NW 315 0 min 0,000 mm 0,7 UV-I 81 W/m 11,6 C 6,4 km/h (2 Bft)
06.08.2016 11:54 15,4 C 15,4 C 79 % 1026,2 hPa 0,0 mm 4,8 km/h (1 Bft) W 270 0 min 0,000 mm 0,8 UV-I 86 W/m 11,8 C 9,7 km/h (2 Bft)
06.08.2016 11:55 15,3 C 15,4 C 79 % 1026,2 hPa 0,0 mm 3,2 km/h (1 Bft) W-NW 292 0 min 0,000 mm 0,8 UV-I 91 W/m 11,7 C 6,4 km/h (2 Bft)
06.08.2016 11:56 15,3 C 15,3 C 79 % 1026,2 hPa 0,0 mm 3,2 km/h (1 Bft) W-NW 292 0 min 0,000 mm 0,8 UV-I 93 W/m 11,7 C 3,2 km/h (1 Bft)
06.08.2016 11:57 15,3 C 15,3 C 80 % 1026,2 hPa 0,0 mm 3,2 km/h (1 Bft) W-NW 292 0 min 0,000 mm 0,8 UV-I 91 W/m 11,9 C 4,8 km/h (1 Bft)
06.08.2016 11:58 15,3 C 15,3 C 80 % 1026,2 hPa 0,0 mm 3,2 km/h (1 Bft) W 270 0 min 0,000 mm 0,8 UV-I 88 W/m 11,9 C 6,4 km/h (2 Bft)
06.08.2016 11:59 15,3 C 15,3 C 80 % 1026,2 hPa 0,0 mm 3,2 km/h (1 Bft) W-NW 292 0 min 0,000 mm 0,8 UV-I 84 W/m 11,9 C 4,8 km/h (1 Bft)
06.08.2016 12:00 15,3 C 15,3 C 80 % 1026,2 hPa 0,0 mm 1,6 km/h (1 Bft) NW 315 0 min 0,254 mm 0,8 UV-I 90 W/m 11,9 C 4,8 km/h (1 Bft)
06.08.2016 12:01 15,3 C 15,3 C 81 % 1026,2 hPa 0,0 mm 1,6 km/h (1 Bft) W-NW 292 0 min 0,000 mm 0,8 UV-I 93 W/m 12,1 C 4,8 km/h (1 Bft)
06.08.2016 12:02 15,3 C 15,3 C 81 % 1026,2 hPa 0,0 mm 3,2 km/h (1 Bft) W-NW 292 0 min 0,000 mm 0,9 UV-I 97 W/m 12,1 C 6,4 km/h (2 Bft)
06.08.2016 12:03 15,3 C 15,3 C 82 % 1026,2 hPa 0,0 mm 4,8 km/h (1 Bft) W-NW 292 0 min 0,000 mm 0,9 UV-I 100 W/m 12,2 C 6,4 km/h (2 Bft)
06.08.2016 12:04 15,3 C 15,4 C 81 % 1026,2 hPa 0,0 mm 3,2 km/h (1 Bft) W-NW 292 0 min 0,000 mm 0,9 UV-I 102 W/m 12,1 C 6,4 km/h (2 Bft)
06.08.2016 12:05 15,4 C 15,4 C 82 % 1026,2 hPa 0,0 mm 1,6 km/h (1 Bft) W-NW 292 0 min 0,000 mm 0,9 UV-I 107 W/m 12,3 C 4,8 km/h (1 Bft)
06.08.2016 12:06 15,3 C 15,4 C 81 % 1026,3 hPa 0,0 mm 1,6 km/h (1 Bft) W-NW 292 0 min 0,000 mm 1,0 UV-I 111 W/m 12,1 C 3,2 km/h (1 Bft)
06.08.2016 12:07 15,3 C 15,4 C 83 % 1026,2 hPa 0,0 mm 1,6 km/h (1 Bft) W-NW 292 0 min 0,000 mm 1,0 UV-I 113 W/m 12,4 C 3,2 km/h (1 Bft)
06.08.2016 12:08 15,4 C 15,4 C 81 % 1026,3 hPa 0,0 mm 1,6 km/h (1 Bft) W 270 0 min 0,000 mm 1,0 UV-I 113 W/m 12,2 C 4,8 km/h (1 Bft)
06.08.2016 12:09 15,4 C 15,4 C 81 % 1026,3 hPa 0,0 mm 4,8 km/h (1 Bft) W 270 0 min 0,000 mm 1,0 UV-I 113 W/m 12,2 C 9,7 km/h (2 Bft)
06.08.2016 12:10 15,3 C 15,4 C 80 % 1026,3 hPa 0,0 mm 6,4 km/h (2 Bft) W 270 0 min 0,000 mm 1,0 UV-I 111 W/m 11,9 C 9,7 km/h (2 Bft)
06.08.2016 12:13 15,3 C 15,4 C 81 % 1026,2 hPa 0,0 mm 2,6 km/h (1 Bft) W-NW 294 0 min 0,001 mm 1,1 UV-I 114 W/m 12,1 C 3,2 km/h (1 Bft)
06.08.2016 12:14 15,4 C 15,4 C 81 % 1026,2 hPa 0,0 mm 4,4 km/h (1 Bft) W-SW 246 0 min 0,000 mm 1,1 UV-I 120 W/m 12,2 C 6,4 km/h (2 Bft)
06.08.2016 12:15 15,3 C 15,4 C 81 % 1026,2 hPa 0,0 mm 5,4 km/h (1 Bft) W-NW 286 0 min 0,000 mm 1,2 UV-I 128 W/m 12,1 C 6,4 km/h (2 Bft)
06.08.2016 12:16 15,4 C 15,4 C 81 % 1026,2 hPa 0,0 mm 4,0 km/h (1 Bft) W-NW 284 0 min 0,000 mm 1,2 UV-I 134 W/m 12,2 C 6,4 km/h (2 Bft)
06.08.2016 12:17 15,4 C 15,4 C 81 % 1026,3 hPa 0,0 mm 5,7 km/h (1 Bft) W 281 0 min 0,000 mm 1,2 UV-I 139 W/m 12,2 C 11,3 km/h (2 Bft)
06.08.2016 12:18 15,4 C 15,4 C 81 % 1026,3 hPa 0,0 mm 4,2 km/h (1 Bft) W 261 0 min 0,000 mm 1,3 UV-I 141 W/m 12,2 C 11,3 km/h (2 Bft)
06.08.2016 12:19 15,4 C 15,4 C 81 % 1026,3 hPa 0,0 mm 3,6 km/h (1 Bft) W 267 0 min 0,000 mm 1,3 UV-I 142 W/m 12,2 C 4,8 km/h (1 Bft)
06.08.2016 12:20 15,4 C 15,4 C 82 % 1026,4 hPa 0,0 mm 5,6 km/h (1 Bft) W 270 0 min 0,000 mm 1,3 UV-I 142 W/m 12,3 C 6,4 km/h (2 Bft)
06.08.2016 12:21 15,5 C 15,5 C 82 % 1026,4 hPa 0,0 mm 4,6 km/h (1 Bft) W-NW 288 0 min 0,000 mm 1,3 UV-I 137 W/m 12,4 C 6,4 km/h (2 Bft)
06.08.2016 12:22 15,5 C 15,6 C 81 % 1026,4 hPa 0,0 mm 2,6 km/h (1 Bft) W-NW 289 0 min 0,000 mm 1,2 UV-I 130 W/m 12,3 C 3,2 km/h (1 Bft)
06.08.2016 12:23 15,6 C 15,6 C 82 % 1026,4 hPa 0,0 mm 2,1 km/h (1 Bft) W-NW 290 0 min 0,000 mm 1,2 UV-I 132 W/m 12,5 C 3,2 km/h (1 Bft)
06.08.2016 12:24 15,6 C 15,6 C 81 % 1026,4 hPa 0,0 mm 2,3 km/h (1 Bft) W 271 0 min 0,000 mm 1,3 UV-I 142 W/m 12,3 C 3,2 km/h (1 Bft)
06.08.2016 12:25 15,6 C 15,6 C 80 % 1026,4 hPa 0,0 mm 1,8 km/h (1 Bft) W 271 0 min 0,000 mm 1,4 UV-I 151 W/m 12,2 C 3,2 km/h (1 Bft)
06.08.2016 12:26 15,6 C 15,6 C 82 % 1026,4 hPa 0,0 mm 0,0 km/h (0 Bft) W 270 0 min 0,000 mm 1,6 UV-I 162 W/m 12,5 C 0,0 km/h (0 Bft)
06.08.2016 12:27 15,7 C 15,7 C 83 % 1026,3 hPa 0,0 mm 0,1 km/h (0 Bft) W-SW 257 0 min 0,000 mm 1,7 UV-I 181 W/m 12,8 C 1,6 km/h (1 Bft)
06.08.2016 12:28 15,7 C 15,7 C 82 % 1026,3 hPa 0,0 mm 2,0 km/h (1 Bft) W-SW 257 0 min 0,000 mm 1,8 UV-I 193 W/m 12,6 C 3,2 km/h (1 Bft)
06.08.2016 12:29 15,7 C 15,7 C 81 % 1026,4 hPa 0,0 mm 4,9 km/h (1 Bft) W-SW 238 0 min 0,000 mm 1,8 UV-I 197 W/m 12,4 C 6,4 km/h (2 Bft)
06.08.2016 12:30 15,7 C 15,7 C 81 % 1026,4 hPa 0,0 mm 7,0 km/h (2 Bft) W-SW 257 0 min 0,000 mm 1,8 UV-I 197 W/m 12,4 C 9,7 km/h (2 Bft)
06.08.2016 12:31 15,7 C 15,7 C 79 % 1026,3 hPa 0,0 mm 3,9 km/h (1 Bft) SW 222 0 min 0,000 mm 1,9 UV-I 204 W/m 12,1 C 6,4 km/h (2 Bft)
06.08.2016 12:32 15,8 C 15,8 C 80 % 1026,4 hPa 0,0 mm 5,9 km/h (2 Bft) W-SW 244 0 min 0,000 mm 2,0 UV-I 209 W/m 12,4 C 9,7 km/h (2 Bft)
06.08.2016 12:33 15,8 C 15,8 C 80 % 1026,4 hPa 0,0 mm 7,5 km/h (2 Bft) W 268 0 min 0,000 mm 2,0 UV-I 209 W/m 12,4 C 11,3 km/h (2 Bft)
06.08.2016 12:34 15,8 C 15,8 C 78 % 1026,4 hPa 0,0 mm 7,7 km/h (2 Bft) S-SW 213 0 min 0,000 mm 2,0 UV-I 206 W/m 12,0 C 11,3 km/h (2 Bft)
06.08.2016 12:35 15,7 C 15,8 C 80 % 1026,4 hPa 0,0 mm 8,7 km/h (2 Bft) W 265 0 min 0,000 mm 2,0 UV-I 204 W/m 12,3 C 12,9 km/h (3 Bft)
06.08.2016 12:36 15,7 C 15,8 C 78 % 1026,4 hPa 0,0 mm 7,6 km/h (2 Bft) W-SW 248 0 min 0,000 mm 2,0 UV-I 206 W/m 11,9 C 9,7 km/h (2 Bft)
06.08.2016 12:37 15,7 C 15,7 C 79 % 1026,5 hPa 0,0 mm 6,9 km/h (2 Bft) W-SW 238 0 min 0,000 mm 2,0 UV-I 206 W/m 12,1 C 9,7 km/h (2 Bft)
06.08.2016 12:38 15,7 C 15,7 C 79 % 1026,5 hPa 0,0 mm 2,6 km/h (1 Bft) SW 223 0 min 0,000 mm 2,1 UV-I 207 W/m 12,1 C 4,8 km/h (1 Bft)
06.08.2016 12:39 15,7 C 15,7 C 80 % 1026,5 hPa 0,0 mm 2,6 km/h (1 Bft) W-SW 240 0 min 0,000 mm 2,1 UV-I 211 W/m 12,3 C 4,8 km/h (1 Bft)
06.08.2016 12:40 15,7 C 15,7 C 80 % 1026,6 hPa 0,0 mm 2,7 km/h (1 Bft) W 277 0 min 0,000 mm 2,2 UV-I 225 W/m 12,3 C 3,2 km/h (1 Bft)
06.08.2016 12:41 15,8 C 15,8 C 82 % 1026,5 hPa 0,0 mm 3,3 km/h (1 Bft) W-NW 286 0 min 0,000 mm 2,2 UV-I 225 W/m 12,7 C 4,8 km/h (1 Bft)
06.08.2016 12:42 15,9 C 15,9 C 80 % 1026,5 hPa 0,0 mm 3,1 km/h (1 Bft) W-SW 246 0 min 0,000 mm 2,4 UV-I 241 W/m 12,5 C 4,8 km/h (1 Bft)
06.08.2016 12:43 15,9 C 15,9 C 79 % 1026,4 hPa 0,0 mm 4,6 km/h (1 Bft) W-SW 258 0 min 0,000 mm 2,5 UV-I 248 W/m 12,3 C 6,4 km/h (2 Bft)
06.08.2016 12:44 15,8 C 15,9 C 80 % 1026,5 hPa 0,0 mm 3,1 km/h (1 Bft) W 264 0 min 0,000 mm 2,5 UV-I 255 W/m 12,4 C 4,8 km/h (1 Bft)
06.08.2016 12:45 15,8 C 15,8 C 80 % 1026,5 hPa 0,0 mm 4,1 km/h (1 Bft) W-SW 258 0 min 0,000 mm 2,6 UV-I 265 W/m 12,4 C 8,0 km/h (2 Bft)
06.08.2016 12:46 15,8 C 15,9 C 80 % 1026,5 hPa 0,0 mm 4,4 km/h (1 Bft) SW 235 0 min 0,000 mm 2,7 UV-I 274 W/m 12,4 C 6,4 km/h (2 Bft)
06.08.2016 12:47 15,9 C 15,9 C 80 % 1026,5 hPa 0,0 mm 4,5 km/h (1 Bft) W-SW 252 0 min 0,000 mm 2,7 UV-I 265 W/m 12,5 C 6,4 km/h (2 Bft)
06.08.2016 12:48 15,9 C 15,9 C 80 % 1026,4 hPa 0,0 mm 2,3 km/h (1 Bft) SW 220 0 min 0,000 mm 2,6 UV-I 257 W/m 12,5 C 6,4 km/h (2 Bft)
06.08.2016 12:49 15,9 C 15,9 C 80 % 1026,4 hPa 0,0 mm 4,4 km/h (1 Bft) W-SW 254 0 min 0,000 mm 2,7 UV-I 260 W/m 12,5 C 6,4 km/h (2 Bft)
06.08.2016 12:50 15,9 C 15,9 C 80 % 1026,4 hPa 0,0 mm 4,8 km/h (1 Bft) W 268 0 min 0,000 mm 2,8 UV-I 267 W/m 12,5 C 8,0 km/h (2 Bft)
06.08.2016 12:51 15,9 C 15,9 C 81 % 1026,4 hPa 0,0 mm 4,6 km/h (1 Bft) W 259 0 min 0,000 mm 2,9 UV-I 234 W/m 12,6 C 6,4 km/h (2 Bft)
06.08.2016 12:52 16,0 C 16,0 C 81 % 1026,4 hPa 0,0 mm 3,2 km/h (1 Bft) W-SW 238 0 min 0,000 mm 2,9 UV-I 285 W/m 12,7 C 4,8 km/h (1 Bft)
06.08.2016 12:53 16,1 C 16,1 C 80 % 1026,4 hPa 0,0 mm 4,2 km/h (1 Bft) W 264 0 min 0,000 mm 3,1 UV-I 292 W/m 12,6 C 6,4 km/h (2 Bft)
06.08.2016 12:54 16,2 C 16,2 C 83 % 1026,4 hPa 0,0 mm 1,7 km/h (1 Bft) W-SW 242 0 min 0,000 mm 3,1 UV-I 297 W/m 13,3 C 3,2 km/h (1 Bft)
06.08.2016 12:55 16,3 C 16,3 C 80 % 1026,4 hPa 0,0 mm 3,8 km/h (1 Bft) W-SW 246 0 min 0,000 mm 3,2 UV-I 301 W/m 12,8 C 4,8 km/h (1 Bft)
06.08.2016 12:56 16,2 C 16,3 C 80 % 1026,4 hPa 0,0 mm 3,0 km/h (1 Bft) W-SW 254 0 min 0,000 mm 3,2 UV-I 304 W/m 12,7 C 4,8 km/h (1 Bft)
06.08.2016 12:57 16,3 C 16,3 C 80 % 1026,4 hPa 0,0 mm 1,6 km/h (1 Bft) SW 215 0 min 0,000 mm 3,2 UV-I 304 W/m 12,8 C 3,2 km/h (1 Bft)
06.08.2016 12:58 16,3 C 16,3 C 80 % 1026,3 hPa 0,0 mm 2,1 km/h (1 Bft) S 178 0 min 0,000 mm 3,2 UV-I 287 W/m 12,8 C 3,2 km/h (1 Bft)
06.08.2016 12:59 16,2 C 16,3 C 76 % 1026,3 hPa 0,0 mm 4,6 km/h (1 Bft) S 177 0 min 0,000 mm 3,2 UV-I 294 W/m 12,0 C 8,0 km/h (2 Bft)
06.08.2016 13:00 16,2 C 16,2 C 76 % 1026,4 hPa 0,0 mm 2,8 km/h (1 Bft) W 259 0 min 0,000 mm 3,3 UV-I 304 W/m 12,0 C 6,4 km/h (2 Bft)
06.08.2016 13:01 16,2 C 16,2 C 78 % 1026,4 hPa 0,0 mm 4,6 km/h (1 Bft) W 276 0 min 0,101 mm 3,3 UV-I 304 W/m 12,4 C 8,0 km/h (2 Bft)
06.08.2016 13:02 16,2 C 16,2 C 76 % 1026,4 hPa 0,0 mm 4,8 km/h (1 Bft) W 268 0 min 0,000 mm 3,4 UV-I 311 W/m 12,0 C 9,7 km/h (2 Bft)
06.08.2016 13:03 16,2 C 16,2 C 77 % 1026,4 hPa 0,0 mm 8,0 km/h (2 Bft) W-SW 254 0 min 0,000 mm 3,3 UV-I 315 W/m 12,2 C 11,3 km/h (2 Bft)
06.08.2016 13:04 16,2 C 16,2 C 77 % 1026,4 hPa 0,0 mm 2,6 km/h (1 Bft) W-SW 239 0 min 0,000 mm 3,6 UV-I 360 W/m 12,2 C 6,4 km/h (2 Bft)
06.08.2016 13:05 16,3 C 16,3 C 76 % 1026,5 hPa 0,0 mm 3,6 km/h (1 Bft) W-SW 254 0 min 0,000 mm 3,9 UV-I 360 W/m 12,1 C 4,8 km/h (1 Bft)
06.08.2016 13:06 16,3 C 16,3 C 77 % 1026,4 hPa 0,0 mm 2,3 km/h (1 Bft) W-SW 254 1 min 0,000 mm 4,6 UV-I 490 W/m 12,3 C 3,2 km/h (1 Bft)
06.08.2016 13:07 16,4 C 16,4 C 76 % 1026,4 hPa 0,0 mm 2,9 km/h (1 Bft) W 265 1 min 0,000 mm 4,4 UV-I 526 W/m 12,2 C 4,8 km/h (1 Bft)
06.08.2016 13:08 16,6 C 16,6 C 75 % 1026,4 hPa 0,0 mm 4,5 km/h (1 Bft) SO 126 1 min 0,000 mm 7,3 UV-I 526 W/m 12,1 C 6,4 km/h (2 Bft)
06.08.2016 13:09 16,8 C 16,8 C 78 % 1026,4 hPa 0,0 mm 3,1 km/h (1 Bft) W-NW 282 1 min 0,000 mm 7,2 UV-I 1167 W/m 12,9 C 4,8 km/h (1 Bft)
06.08.2016 13:10 17,2 C 17,2 C 76 % 1026,4 hPa 0,0 mm 5,7 km/h (1 Bft) S 184 1 min 0,000 mm 4,2 UV-I 1167 W/m 12,9 C 8,0 km/h (2 Bft)
06.08.2016 13:11 17,3 C 17,3 C 70 % 1026,4 hPa 0,0 mm 4,9 km/h (1 Bft) S 182 1 min 0,000 mm 3,1 UV-I 1167 W/m 11,8 C 8,0 km/h (2 Bft)
06.08.2016 13:12 17,2 C 17,3 C 69 % 1026,4 hPa 0,0 mm 2,3 km/h (1 Bft) S 173 0 min 0,000 mm 2,8 UV-I 325 W/m 11,5 C 3,2 km/h (1 Bft)
06.08.2016 13:13 17,0 C 17,2 C 70 % 1026,4 hPa 0,0 mm 1,6 km/h (1 Bft) S 173 0 min 0,000 mm 2,6 UV-I 297 W/m 11,5 C 3,2 km/h (1 Bft)
06.08.2016 13:14 16,9 C 17,0 C 71 % 1026,5 hPa 0,0 mm 2,1 km/h (1 Bft) O-SO 122 0 min 0,000 mm 2,3 UV-I 258 W/m 11,6 C 4,8 km/h (1 Bft)
06.08.2016 13:15 16,8 C 16,9 C 72 % 1026,5 hPa 0,0 mm 4,6 km/h (1 Bft) W-SW 240 0 min 0,000 mm 2,1 UV-I 232 W/m 11,7 C 6,4 km/h (2 Bft)
06.08.2016 13:16 16,8 C 16,8 C 71 % 1026,5 hPa 0,0 mm 3,3 km/h (1 Bft) W-SW 244 0 min 0,000 mm 2,0 UV-I 202 W/m 11,5 C 4,8 km/h (1 Bft)
06.08.2016 13:17 16,7 C 16,8 C 71 % 1026,5 hPa 0,0 mm 6,0 km/h (2 Bft) W 279 0 min 0,000 mm 1,9 UV-I 197 W/m 11,4 C 9,7 km/h (2 Bft)
06.08.2016 13:18 16,7 C 16,7 C 72 % 1026,5 hPa 0,0 mm 6,2 km/h (2 Bft) W-NW 294 0 min 0,000 mm 1,8 UV-I 193 W/m 11,6 C 9,7 km/h (2 Bft)
06.08.2016 13:19 16,6 C 16,7 C 72 % 1026,5 hPa 0,0 mm 5,7 km/h (1 Bft) W 277 0 min 0,000 mm 1,8 UV-I 188 W/m 11,5 C 11,3 km/h (2 Bft)
06.08.2016 13:20 16,6 C 16,6 C 71 % 1026,5 hPa 0,0 mm 2,2 km/h (1 Bft) W 275 0 min 0,000 mm 1,7 UV-I 181 W/m 11,3 C 3,2 km/h (1 Bft)
06.08.2016 13:21 16,5 C 16,6 C 74 % 1026,5 hPa 0,0 mm 3,7 km/h (1 Bft) W-NW 289 0 min 0,000 mm 1,7 UV-I 169 W/m 11,8 C 4,8 km/h (1 Bft)
06.08.2016 13:22 16,4 C 16,5 C 72 % 1026,5 hPa 0,0 mm 6,7 km/h (2 Bft) W 265 0 min 0,000 mm 1,6 UV-I 169 W/m 11,3 C 9,7 km/h (2 Bft)
06.08.2016 13:23 16,4 C 16,4 C 71 % 1026,5 hPa 0,0 mm 3,1 km/h (1 Bft) W 260 0 min 0,000 mm 1,5 UV-I 155 W/m 11,1 C 4,8 km/h (1 Bft)
06.08.2016 13:24 16,3 C 16,4 C 70 % 1026,4 hPa 0,0 mm 3,7 km/h (1 Bft) W-SW 242 0 min 0,000 mm 1,4 UV-I 151 W/m 10,8 C 6,4 km/h (2 Bft)
06.08.2016 13:25 16,3 C 16,3 C 72 % 1026,4 hPa 0,0 mm 2,2 km/h (1 Bft) W-SW 246 0 min 0,000 mm 1,4 UV-I 148 W/m 11,2 C 3,2 km/h (1 Bft)
06.08.2016 13:26 16,3 C 16,3 C 72 % 1026,5 hPa 0,0 mm 3,2 km/h (1 Bft) W-NW 289 0 min 0,000 mm 1,4 UV-I 146 W/m 11,2 C 4,8 km/h (1 Bft)
06.08.2016 13:27 16,2 C 16,3 C 74 % 1026,6 hPa 0,0 mm 3,0 km/h (1 Bft) W-NW 285 0 min 0,000 mm 1,3 UV-I 137 W/m 11,6 C 4,8 km/h (1 Bft)
06.08.2016 13:28 16,2 C 16,3 C 73 % 1026,6 hPa 0,0 mm 3,5 km/h (1 Bft) W 264 0 min 0,000 mm 1,3 UV-I 128 W/m 11,4 C 4,8 km/h (1 Bft)
06.08.2016 13:29 16,3 C 16,3 C 74 % 1026,5 hPa 0,0 mm 4,3 km/h (1 Bft) S-SW 195 0 min 0,000 mm 1,2 UV-I 123 W/m 11,7 C 6,4 km/h (2 Bft)
06.08.2016 13:30 16,2 C 16,3 C 73 % 1026,6 hPa 0,0 mm 3,0 km/h (1 Bft) SW 236 0 min 0,000 mm 1,2 UV-I 118 W/m 11,4 C 4,8 km/h (1 Bft)
06.08.2016 13:31 16,1 C 16,2 C 75 % 1026,5 hPa 0,0 mm 1,9 km/h (1 Bft) SW 236 0 min 0,000 mm 1,1 UV-I 113 W/m 11,7 C 3,2 km/h (1 Bft)
06.08.2016 13:32 16,1 C 16,1 C 76 % 1026,5 hPa 0,0 mm 0,5 km/h (0 Bft) SW 236 0 min 0,000 mm 1,0 UV-I 105 W/m 11,9 C 1,6 km/h (1 Bft)
06.08.2016 13:33 16,1 C 16,1 C 75 % 1026,5 hPa 0,0 mm 1,3 km/h (1 Bft) W-SW 239 0 min 0,000 mm 1,0 UV-I 98 W/m 11,7 C 3,2 km/h (1 Bft)
06.08.2016 13:34 16,0 C 16,1 C 75 % 1026,5 hPa 0,0 mm 1,7 km/h (1 Bft) S-SW 211 0 min 0,000 mm 0,9 UV-I 100 W/m 11,6 C 3,2 km/h (1 Bft)
06.08.2016 13:35 16,0 C 16,1 C 76 % 1026,5 hPa 0,0 mm 2,7 km/h (1 Bft) SW 224 0 min 0,000 mm 1,0 UV-I 100 W/m 11,8 C 4,8 km/h (1 Bft)
06.08.2016 13:36 16,0 C 16,0 C 75 % 1026,5 hPa 0,0 mm 2,3 km/h (1 Bft) W-SW 256 0 min 0,000 mm 1,0 UV-I 100 W/m 11,6 C 4,8 km/h (1 Bft)
06.08.2016 13:37 15,9 C 16,0 C 75 % 1026,5 hPa 0,0 mm 0,9 km/h (0 Bft) W-SW 256 0 min 0,000 mm 1,0 UV-I 98 W/m 11,5 C 1,6 km/h (1 Bft)
06.08.2016 13:38 15,9 C 15,9 C 74 % 1026,5 hPa 0,0 mm 2,3 km/h (1 Bft) W-SW 250 0 min 0,000 mm 0,9 UV-I 97 W/m 11,3 C 3,2 km/h (1 Bft)
06.08.2016 13:39 15,9 C 15,9 C 78 % 1026,5 hPa 0,0 mm 1,3 km/h (1 Bft) W-SW 250 0 min 0,000 mm 0,9 UV-I 88 W/m 12,1 C 3,2 km/h (1 Bft)
06.08.2016 13:40 15,8 C 15,9 C 77 % 1026,5 hPa 0,0 mm 0,9 km/h (0 Bft) W-SW 250 0 min 0,000 mm 0,9 UV-I 86 W/m 11,8 C 3,2 km/h (1 Bft)
06.08.2016 13:41 15,7 C 15,8 C 79 % 1026,5 hPa 0,0 mm 1,5 km/h (1 Bft) SW 232 0 min 0,000 mm 0,8 UV-I 86 W/m 12,1 C 3,2 km/h (1 Bft)
06.08.2016 13:42 15,7 C 15,7 C 78 % 1026,5 hPa 0,0 mm 0,7 km/h (0 Bft) SW 232 0 min 0,000 mm 0,8 UV-I 86 W/m 11,9 C 1,6 km/h (1 Bft)
06.08.2016 13:43 15,4 C 15,7 C 79 % 1026,5 hPa 0,0 mm 0,5 km/h (0 Bft) SW 232 0 min 0,000 mm 0,7 UV-I 84 W/m 11,8 C 1,6 km/h (1 Bft)
06.08.2016 13:44 15,4 C 15,4 C 80 % 1026,5 hPa 0,0 mm 0,3 km/h (0 Bft) SW 232 0 min 0,000 mm 0,8 UV-I 79 W/m 12,0 C 1,6 km/h (1 Bft)
06.08.2016 13:45 15,3 C 15,4 C 80 % 1026,5 hPa 0,0 mm 0,3 km/h (0 Bft) SW 232 0 min 0,000 mm 0,7 UV-I 72 W/m 11,9 C 1,6 km/h (1 Bft)
06.08.2016 13:46 15,3 C 15,3 C 81 % 1026,4 hPa 0,0 mm 0,0 km/h (0 Bft) SW 232 0 min 0,000 mm 0,7 UV-I 70 W/m 12,1 C 0,0 km/h (0 Bft)
06.08.2016 13:47 15,2 C 15,3 C 81 % 1026,5 hPa 0,0 mm 0,0 km/h (0 Bft) SW 232 0 min 0,000 mm 0,6 UV-I 67 W/m 12,0 C 0,0 km/h (0 Bft)
06.08.2016 13:48 15,1 C 15,2 C 82 % 1026,5 hPa 0,0 mm 0,1 km/h (0 Bft) SW 232 0 min 0,000 mm 0,6 UV-I 65 W/m 12,0 C 1,6 km/h (1 Bft)
06.08.2016 13:49 15,1 C 15,1 C 81 % 1026,5 hPa 0,0 mm 0,3 km/h (0 Bft) SW 232 0 min 0,000 mm 0,6 UV-I 63 W/m 11,9 C 1,6 km/h (1 Bft)
06.08.2016 13:50 15,0 C 15,1 C 81 % 1026,5 hPa 0,0 mm 0,6 km/h (0 Bft) SW 232 0 min 0,000 mm 0,6 UV-I 62 W/m 11,8 C 1,6 km/h (1 Bft)
06.08.2016 13:51 14,9 C 15,0 C 82 % 1026,5 hPa 0,0 mm 0,1 km/h (0 Bft) SW 232 0 min 0,000 mm 0,6 UV-I 62 W/m 11,9 C 1,6 km/h (1 Bft)
06.08.2016 13:52 14,9 C 14,9 C 82 % 1026,5 hPa 0,0 mm 0,3 km/h (0 Bft) SW 232 0 min 0,000 mm 0,6 UV-I 62 W/m 11,9 C 1,6 km/h (1 Bft)
06.08.2016 13:53 14,8 C 14,9 C 83 % 1026,4 hPa 0,0 mm 0,1 km/h (0 Bft) SW 232 0 min 0,000 mm 0,6 UV-I 60 W/m 11,9 C 1,6 km/h (1 Bft)
06.08.2016 13:54 14,8 C 14,8 C 85 % 1026,5 hPa 0,0 mm 0,0 km/h (0 Bft) SW 232 0 min 0,000 mm 0,5 UV-I 58 W/m 12,3 C 0,0 km/h (0 Bft)
06.08.2016 13:55 14,8 C 14,8 C 84 % 1026,5 hPa 0,0 mm 0,2 km/h (0 Bft) SW 232 0 min 0,000 mm 0,0 UV-I 54 W/m 12,1 C 1,6 km/h (1 Bft)
06.08.2016 13:56 14,8 C 14,8 C 85 % 1026,5 hPa 0,0 mm 0,0 km/h (0 Bft) SW 232 0 min 0,000 mm 0,0 UV-I 51 W/m 12,3 C 0,0 km/h (0 Bft)
06.08.2016 13:57 14,7 C 14,8 C 85 % 1026,5 hPa 0,0 mm 0,0 km/h (0 Bft) SW 232 0 min 0,000 mm 0,0 UV-I 40 W/m 12,2 C 0,0 km/h (0 Bft)
06.08.2016 13:58 14,7 C 14,7 C 85 % 1026,5 hPa 0,0 mm 1,0 km/h (0 Bft) SW 232 0 min 0,000 mm 0,0 UV-I 39 W/m 12,2 C 1,6 km/h (1 Bft)
06.08.2016 13:59 14,7 C 14,7 C 87 % 1026,5 hPa 0,0 mm 0,9 km/h (0 Bft) SW 232 0 min 0,000 mm 0,0 UV-I 39 W/m 12,6 C 1,6 km/h (1 Bft)
06.08.2016 14:00 14,7 C 14,7 C 85 % 1026,6 hPa 0,0 mm 3,6 km/h (1 Bft) N 355 0 min 0,127 mm 0,0 UV-I 37 W/m 12,2 C 4,8 km/h (1 Bft)
06.08.2016 14:01 14,7 C 14,7 C 85 % 1026,6 hPa 0,0 mm 5,3 km/h (1 Bft) N 9 0 min 0,000 mm 0,0 UV-I 33 W/m 12,2 C 6,4 km/h (2 Bft)
06.08.2016 14:02 14,7 C 14,7 C 85 % 1026,6 hPa 0,0 mm 4,6 km/h (1 Bft) N-NO 24 0 min 0,000 mm 0,0 UV-I 30 W/m 12,2 C 6,4 km/h (2 Bft)
06.08.2016 14:03 14,8 C 14,8 C 83 % 1026,6 hPa 0,0 mm 4,3 km/h (1 Bft) N 5 0 min 0,000 mm 0,0 UV-I 32 W/m 11,9 C 4,8 km/h (1 Bft)
06.08.2016 14:04 14,9 C 14,9 C 82 % 1026,7 hPa 0,0 mm 4,6 km/h (1 Bft) N-NW 330 0 min 0,000 mm 0,0 UV-I 33 W/m 11,9 C 6,4 km/h (2 Bft)
06.08.2016 14:05 15,1 C 15,1 C 82 % 1026,7 hPa 0,0 mm 2,4 km/h (1 Bft) NO 55 0 min 0,000 mm 0,0 UV-I 35 W/m 12,0 C 4,8 km/h (1 Bft)
06.08.2016 14:06 15,2 C 15,2 C 82 % 1026,6 hPa 0,0 mm 3,2 km/h (1 Bft) NO 55 0 min 0,000 mm 0,0 UV-I 37 W/m 12,1 C 4,8 km/h (1 Bft)
06.08.2016 14:07 15,2 C 15,2 C 81 % 1026,7 hPa 0,0 mm 1,9 km/h (1 Bft) NO 54 0 min 0,000 mm 0,0 UV-I 40 W/m 12,0 C 3,2 km/h (1 Bft)
06.08.2016 14:08 15,2 C 15,2 C 81 % 1026,7 hPa 0,0 mm 2,7 km/h (1 Bft) NO 55 0 min 0,000 mm 0,0 UV-I 47 W/m 12,0 C 4,8 km/h (1 Bft)
06.08.2016 14:09 15,1 C 15,2 C 81 % 1026,6 hPa 0,0 mm 1,7 km/h (1 Bft) NO 55 0 min 0,000 mm 0,0 UV-I 53 W/m 11,9 C 3,2 km/h (1 Bft)
06.08.2016 14:10 15,1 C 15,1 C 82 % 1026,7 hPa 0,0 mm 0,2 km/h (0 Bft) NO 55 0 min 0,000 mm 0,5 UV-I 56 W/m 12,0 C 1,6 km/h (1 Bft)
06.08.2016 14:11 15,1 C 15,1 C 81 % 1026,7 hPa 0,0 mm 0,8 km/h (0 Bft) NO 55 0 min 0,000 mm 0,5 UV-I 60 W/m 11,9 C 1,6 km/h (1 Bft)
06.08.2016 14:12 15,1 C 15,1 C 81 % 1026,7 hPa 0,0 mm 0,3 km/h (0 Bft) NO 54 0 min 0,000 mm 0,6 UV-I 63 W/m 11,9 C 1,6 km/h (1 Bft)
06.08.2016 14:13 15,1 C 15,1 C 82 % 1026,7 hPa 0,0 mm 0,9 km/h (0 Bft) NO 55 0 min 0,000 mm 0,6 UV-I 69 W/m 12,0 C 1,6 km/h (1 Bft)
06.08.2016 14:14 15,1 C 15,1 C 82 % 1026,7 hPa 0,0 mm 0,1 km/h (0 Bft) NO 55 0 min 0,000 mm 0,6 UV-I 76 W/m 12,0 C 1,6 km/h (1 Bft)
06.08.2016 14:15 15,1 C 15,1 C 82 % 1026,7 hPa 0,0 mm 0,4 km/h (0 Bft) NO 54 0 min 0,000 mm 0,7 UV-I 79 W/m 12,0 C 1,6 km/h (1 Bft)
06.08.2016 14:16 15,1 C 15,1 C 83 % 1026,7 hPa 0,0 mm 0,1 km/h (0 Bft) NO 55 0 min 0,000 mm 0,8 UV-I 83 W/m 12,2 C 1,6 km/h (1 Bft)
06.08.2016 14:17 15,1 C 15,1 C 84 % 1026,7 hPa 0,0 mm 0,7 km/h (0 Bft) NO 55 0 min 0,000 mm 0,8 UV-I 77 W/m 12,4 C 1,6 km/h (1 Bft)
06.08.2016 14:18 15,1 C 15,1 C 81 % 1026,7 hPa 0,0 mm 1,4 km/h (1 Bft) NO 55 0 min 0,000 mm 0,8 UV-I 91 W/m 11,9 C 3,2 km/h (1 Bft)
06.08.2016 14:19 15,1 C 15,2 C 85 % 1026,7 hPa 0,0 mm 0,7 km/h (0 Bft) NO 55 0 min 0,000 mm 0,9 UV-I 95 W/m 12,6 C 1,6 km/h (1 Bft)
06.08.2016 14:20 15,1 C 15,1 C 84 % 1026,7 hPa 0,0 mm 2,4 km/h (1 Bft) NO 55 0 min 0,000 mm 0,9 UV-I 102 W/m 12,4 C 3,2 km/h (1 Bft)
06.08.2016 14:21 15,0 C 15,1 C 85 % 1026,7 hPa 0,0 mm 3,1 km/h (1 Bft) NO 55 0 min 0,000 mm 0,9 UV-I 105 W/m 12,5 C 3,2 km/h (1 Bft)
06.08.2016 14:22 14,9 C 15,0 C 87 % 1026,7 hPa 0,0 mm 2,7 km/h (1 Bft) NO 55 0 min 0,000 mm 1,0 UV-I 107 W/m 12,8 C 3,2 km/h (1 Bft)
06.08.2016 14:23 14,8 C 14,9 C 85 % 1026,7 hPa 0,0 mm 1,8 km/h (1 Bft) NO 55 0 min 0,000 mm 1,0 UV-I 111 W/m 12,3 C 3,2 km/h (1 Bft)
06.08.2016 14:24 14,8 C 14,8 C 85 % 1026,7 hPa 0,0 mm 1,4 km/h (1 Bft) NO 55 0 min 0,000 mm 1,1 UV-I 114 W/m 12,3 C 3,2 km/h (1 Bft)
06.08.2016 14:25 14,8 C 14,8 C 86 % 1026,7 hPa 0,0 mm 2,1 km/h (1 Bft) NO 55 0 min 0,000 mm 1,1 UV-I 118 W/m 12,5 C 3,2 km/h (1 Bft)
06.08.2016 14:26 14,8 C 14,8 C 84 % 1026,7 hPa 0,0 mm 0,5 km/h (0 Bft) NO 55 0 min 0,000 mm 1,1 UV-I 120 W/m 12,1 C 1,6 km/h (1 Bft)
06.08.2016 14:27 14,8 C 14,8 C 84 % 1026,7 hPa 0,0 mm 1,0 km/h (0 Bft) NO 55 0 min 0,000 mm 1,1 UV-I 123 W/m 12,1 C 3,2 km/h (1 Bft)
06.08.2016 14:28 14,8 C 14,8 C 85 % 1026,7 hPa 0,0 mm 0,3 km/h (0 Bft) NO 55 0 min 0,000 mm 1,2 UV-I 127 W/m 12,3 C 1,6 km/h (1 Bft)
06.08.2016 14:29 14,9 C 14,9 C 86 % 1026,7 hPa 0,0 mm 0,3 km/h (0 Bft) NO 55 0 min 0,000 mm 1,2 UV-I 130 W/m 12,6 C 1,6 km/h (1 Bft)
06.08.2016 14:30 15,0 C 15,0 C 87 % 1026,7 hPa 0,0 mm 0,2 km/h (0 Bft) NO 55 0 min 0,000 mm 1,2 UV-I 134 W/m 12,9 C 1,6 km/h (1 Bft)
06.08.2016 14:31 15,0 C 15,0 C 86 % 1026,8 hPa 0,0 mm 0,1 km/h (0 Bft) NO 55 0 min 0,000 mm 1,3 UV-I 135 W/m 12,7 C 1,6 km/h (1 Bft)
06.08.2016 14:32 15,0 C 15,1 C 84 % 1026,7 hPa 0,0 mm 0,5 km/h (0 Bft) NO 55 0 min 0,000 mm 1,3 UV-I 142 W/m 12,3 C 1,6 km/h (1 Bft)
06.08.2016 14:33 15,1 C 15,1 C 85 % 1026,7 hPa 0,0 mm 0,0 km/h (0 Bft) NO 55 0 min 0,000 mm 1,3 UV-I 148 W/m 12,6 C 0,0 km/h (0 Bft)
06.08.2016 14:34 15,1 C 15,1 C 85 % 1026,7 hPa 0,0 mm 0,7 km/h (0 Bft) NO 55 0 min 0,000 mm 1,4 UV-I 153 W/m 12,6 C 1,6 km/h (1 Bft)
06.08.2016 14:35 15,2 C 15,2 C 85 % 1026,7 hPa 0,0 mm 1,4 km/h (1 Bft) NO 55 0 min 0,000 mm 1,4 UV-I 160 W/m 12,7 C 3,2 km/h (1 Bft)
06.08.2016 14:36 15,2 C 15,2 C 83 % 1026,8 hPa 0,0 mm 3,0 km/h (1 Bft) O-NO 66 0 min 0,000 mm 1,5 UV-I 165 W/m 12,3 C 4,8 km/h (1 Bft)
06.08.2016 14:37 15,2 C 15,2 C 82 % 1026,8 hPa 0,0 mm 1,5 km/h (1 Bft) O-NO 66 0 min 0,000 mm 1,5 UV-I 172 W/m 12,1 C 3,2 km/h (1 Bft)
06.08.2016 14:38 15,3 C 15,3 C 83 % 1026,8 hPa 0,0 mm 2,3 km/h (1 Bft) O-NO 66 0 min 0,000 mm 1,5 UV-I 176 W/m 12,4 C 3,2 km/h (1 Bft)
06.08.2016 14:39 15,3 C 15,3 C 82 % 1026,8 hPa 0,0 mm 2,9 km/h (1 Bft) O-NO 66 0 min 0,000 mm 1,6 UV-I 167 W/m 12,2 C 3,2 km/h (1 Bft)
06.08.2016 14:40 15,3 C 15,3 C 82 % 1026,8 hPa 0,0 mm 1,6 km/h (1 Bft) O-NO 66 0 min 0,000 mm 1,6 UV-I 185 W/m 12,2 C 3,2 km/h (1 Bft)
06.08.2016 14:41 15,3 C 15,3 C 82 % 1026,8 hPa 0,0 mm 1,1 km/h (1 Bft) O-NO 66 0 min 0,000 mm 1,7 UV-I 188 W/m 12,2 C 3,2 km/h (1 Bft)
06.08.2016 14:42 15,4 C 15,4 C 83 % 1026,8 hPa 0,0 mm 3,6 km/h (1 Bft) O-NO 66 0 min 0,000 mm 1,7 UV-I 190 W/m 12,5 C 4,8 km/h (1 Bft)
06.08.2016 14:43 15,4 C 15,4 C 80 % 1026,8 hPa 0,0 mm 2,7 km/h (1 Bft) O-NO 66 0 min 0,000 mm 1,7 UV-I 190 W/m 12,0 C 3,2 km/h (1 Bft)
06.08.2016 14:44 15,4 C 15,4 C 81 % 1026,8 hPa 0,0 mm 1,1 km/h (1 Bft) O-NO 66 0 min 0,000 mm 1,7 UV-I 190 W/m 12,2 C 3,2 km/h (1 Bft)
06.08.2016 14:45 15,4 C 15,4 C 82 % 1026,8 hPa 0,0 mm 2,7 km/h (1 Bft) O-NO 66 0 min 0,000 mm 1,7 UV-I 192 W/m 12,3 C 3,2 km/h (1 Bft)
06.08.2016 14:46 15,5 C 15,5 C 84 % 1026,8 hPa 0,0 mm 2,1 km/h (1 Bft) O-NO 66 0 min 0,000 mm 1,7 UV-I 192 W/m 12,8 C 3,2 km/h (1 Bft)
06.08.2016 14:47 15,6 C 15,6 C 80 % 1026,8 hPa 0,0 mm 0,9 km/h (0 Bft) O-NO 66 0 min 0,000 mm 1,7 UV-I 195 W/m 12,2 C 1,6 km/h (1 Bft)
06.08.2016 14:48 15,6 C 15,6 C 80 % 1026,8 hPa 0,0 mm 1,9 km/h (1 Bft) O-NO 66 0 min 0,000 mm 1,8 UV-I 199 W/m 12,2 C 3,2 km/h (1 Bft)
06.08.2016 14:49 15,6 C 15,6 C 83 % 1026,8 hPa 0,0 mm 2,3 km/h (1 Bft) O-NO 66 0 min 0,000 mm 1,8 UV-I 204 W/m 12,7 C 3,2 km/h (1 Bft)
06.08.2016 14:50 15,6 C 15,6 C 81 % 1026,8 hPa 0,0 mm 2,1 km/h (1 Bft) O-NO 66 0 min 0,000 mm 1,8 UV-I 213 W/m 12,3 C 3,2 km/h (1 Bft)
06.08.2016 14:51 15,7 C 15,7 C 82 % 1026,8 hPa 0,0 mm 0,7 km/h (0 Bft) O-NO 66 0 min 0,000 mm 2,0 UV-I 218 W/m 12,6 C 1,6 km/h (1 Bft)
06.08.2016 14:52 15,6 C 15,7 C 80 % 1026,8 hPa 0,0 mm 0,0 km/h (0 Bft) O-NO 66 0 min 0,000 mm 2,0 UV-I 223 W/m 12,2 C 0,0 km/h (0 Bft)
06.08.2016 14:53 15,6 C 15,6 C 79 % 1026,7 hPa 0,0 mm 0,4 km/h (0 Bft) O-NO 66 0 min 0,000 mm 2,1 UV-I 223 W/m 12,0 C 1,6 km/h (1 Bft)
06.08.2016 14:54 15,7 C 15,7 C 80 % 1026,7 hPa 0,0 mm 0,0 km/h (0 Bft) O-NO 66 0 min 0,000 mm 2,1 UV-I 232 W/m 12,3 C 0,0 km/h (0 Bft)
06.08.2016 14:55 15,7 C 15,7 C 82 % 1026,8 hPa 0,0 mm 0,4 km/h (0 Bft) O-NO 66 0 min 0,000 mm 2,1 UV-I 236 W/m 12,6 C 1,6 km/h (1 Bft)
06.08.2016 14:56 15,8 C 15,8 C 80 % 1026,7 hPa 0,0 mm 0,9 km/h (0 Bft) O-NO 63 0 min 0,000 mm 2,2 UV-I 244 W/m 12,4 C 3,2 km/h (1 Bft)
06.08.2016 14:57 15,8 C 15,8 C 80 % 1026,7 hPa 0,0 mm 1,2 km/h (1 Bft) O-NO 63 0 min 0,000 mm 2,3 UV-I 251 W/m 12,4 C 1,6 km/h (1 Bft)
06.08.2016 14:58 15,9 C 15,9 C 82 % 1026,7 hPa 0,0 mm 1,2 km/h (1 Bft) O-NO 63 0 min 0,000 mm 2,3 UV-I 257 W/m 12,8 C 1,6 km/h (1 Bft)
06.08.2016 14:59 15,9 C 15,9 C 80 % 1026,7 hPa 0,0 mm 1,1 km/h (1 Bft) O-NO 63 0 min 0,000 mm 2,4 UV-I 260 W/m 12,5 C 1,6 km/h (1 Bft)
06.08.2016 15:00 16,0 C 16,0 C 81 % 1026,7 hPa 0,0 mm 1,5 km/h (1 Bft) O-NO 63 0 min 0,076 mm 2,4 UV-I 264 W/m 12,7 C 1,6 km/h (1 Bft)
06.08.2016 15:01 16,0 C 16,0 C 80 % 1026,7 hPa 0,0 mm 1,5 km/h (1 Bft) O-NO 63 0 min 0,000 mm 2,4 UV-I 267 W/m 12,5 C 1,6 km/h (1 Bft)
06.08.2016 15:02 16,1 C 16,1 C 81 % 1026,8 hPa 0,0 mm 1,5 km/h (1 Bft) O-NO 63 0 min 0,000 mm 2,5 UV-I 267 W/m 12,8 C 3,2 km/h (1 Bft)
06.08.2016 15:03 16,1 C 16,1 C 81 % 1026,7 hPa 0,0 mm 0,1 km/h (0 Bft) O-NO 63 0 min 0,000 mm 2,5 UV-I 271 W/m 12,8 C 1,6 km/h (1 Bft)
06.08.2016 15:04 16,1 C 16,1 C 81 % 1026,7 hPa 0,0 mm 0,9 km/h (0 Bft) O-NO 63 0 min 0,000 mm 2,6 UV-I 271 W/m 12,8 C 1,6 km/h (1 Bft)
06.08.2016 15:05 16,2 C 16,2 C 80 % 1026,7 hPa 0,0 mm 0,8 km/h (0 Bft) O-NO 63 0 min 0,000 mm 2,6 UV-I 285 W/m 12,7 C 1,6 km/h (1 Bft)
06.08.2016 15:06 16,2 C 16,2 C 79 % 1026,7 hPa 0,0 mm 1,4 km/h (1 Bft) O-NO 63 0 min 0,000 mm 2,7 UV-I 290 W/m 12,6 C 3,2 km/h (1 Bft)
06.08.2016 15:07 16,1 C 16,2 C 78 % 1026,7 hPa 0,0 mm 1,3 km/h (1 Bft) O-NO 63 0 min 0,000 mm 2,8 UV-I 299 W/m 12,3 C 3,2 km/h (1 Bft)
06.08.2016 15:08 16,1 C 16,1 C 79 % 1026,7 hPa 0,0 mm 1,3 km/h (1 Bft) O-NO 60 0 min 0,000 mm 2,8 UV-I 302 W/m 12,5 C 3,2 km/h (1 Bft)
06.08.2016 15:09 16,2 C 16,2 C 82 % 1026,7 hPa 0,0 mm 2,3 km/h (1 Bft) NW 311 0 min 0,000 mm 2,8 UV-I 302 W/m 13,1 C 3,2 km/h (1 Bft)
06.08.2016 15:10 16,3 C 16,3 C 80 % 1026,7 hPa 0,0 mm 1,1 km/h (1 Bft) NW 311 0 min 0,000 mm 2,8 UV-I 302 W/m 12,8 C 3,2 km/h (1 Bft)
06.08.2016 15:11 16,3 C 16,3 C 80 % 1026,7 hPa 0,0 mm 0,0 km/h (0 Bft) NW 311 0 min 0,000 mm 2,9 UV-I 302 W/m 12,8 C 0,0 km/h (0 Bft)
06.08.2016 15:12 16,4 C 16,4 C 79 % 1026,6 hPa 0,0 mm 0,0 km/h (0 Bft) NW 311 0 min 0,000 mm 3,0 UV-I 309 W/m 12,7 C 0,0 km/h (0 Bft)
06.08.2016 15:13 16,4 C 16,4 C 78 % 1026,6 hPa 0,0 mm 0,0 km/h (0 Bft) NW 311 0 min 0,000 mm 3,0 UV-I 339 W/m 12,6 C 0,0 km/h (0 Bft)
06.08.2016 15:14 16,5 C 16,5 C 78 % 1026,6 hPa 0,0 mm 0,0 km/h (0 Bft) N-NO 28 0 min 0,000 mm 3,3 UV-I 418 W/m 12,6 C 0,0 km/h (0 Bft)
06.08.2016 15:15 16,6 C 16,6 C 78 % 1026,6 hPa 0,0 mm 0,0 km/h (0 Bft) N-NO 21 0 min 0,000 mm 3,4 UV-I 380 W/m 12,7 C 0,0 km/h (0 Bft)
06.08.2016 15:16 16,6 C 16,6 C 77 % 1026,6 hPa 0,0 mm 0,0 km/h (0 Bft) N-NO 22 0 min 0,000 mm 3,3 UV-I 359 W/m 12,5 C 0,0 km/h (0 Bft)
06.08.2016 15:17 16,6 C 16,6 C 79 % 1026,7 hPa 0,0 mm 1,1 km/h (1 Bft) NW 311 0 min 0,000 mm 3,3 UV-I 357 W/m 12,9 C 3,2 km/h (1 Bft)
06.08.2016 15:18 16,7 C 16,7 C 78 % 1026,7 hPa 0,0 mm 4,3 km/h (1 Bft) W-NW 290 0 min 0,000 mm 3,4 UV-I 360 W/m 12,8 C 6,4 km/h (2 Bft)
06.08.2016 15:19 16,7 C 16,7 C 78 % 1026,6 hPa 0,0 mm 2,4 km/h (1 Bft) W-NW 290 0 min 0,000 mm 3,4 UV-I 366 W/m 12,8 C 3,2 km/h (1 Bft)
06.08.2016 15:20 16,7 C 16,7 C 77 % 1026,6 hPa 0,0 mm 2,1 km/h (1 Bft) W-NW 294 0 min 0,000 mm 3,4 UV-I 360 W/m 12,6 C 3,2 km/h (1 Bft)
06.08.2016 15:21 16,8 C 16,8 C 77 % 1026,7 hPa 0,0 mm 1,9 km/h (1 Bft) NW 321 0 min 0,000 mm 3,4 UV-I 355 W/m 12,7 C 3,2 km/h (1 Bft)
06.08.2016 15:22 16,8 C 16,8 C 78 % 1026,6 hPa 0,0 mm 2,8 km/h (1 Bft) S 181 0 min 0,000 mm 3,3 UV-I 353 W/m 12,9 C 4,8 km/h (1 Bft)
06.08.2016 15:23 16,8 C 16,8 C 77 % 1026,7 hPa 0,0 mm 3,0 km/h (1 Bft) S-SO 156 0 min 0,000 mm 3,3 UV-I 353 W/m 12,7 C 6,4 km/h (2 Bft)
06.08.2016 15:24 16,8 C 16,8 C 76 % 1026,7 hPa 0,0 mm 1,4 km/h (1 Bft) S-SO 153 0 min 0,000 mm 3,4 UV-I 360 W/m 12,5 C 3,2 km/h (1 Bft)
06.08.2016 15:25 16,7 C 16,8 C 78 % 1026,7 hPa 0,0 mm 0,7 km/h (0 Bft) S-SO 153 0 min 0,000 mm 3,4 UV-I 378 W/m 12,8 C 1,6 km/h (1 Bft)
06.08.2016 15:26 16,7 C 16,7 C 78 % 1026,7 hPa 0,0 mm 1,7 km/h (1 Bft) S 177 1 min 0,000 mm 4,0 UV-I 455 W/m 12,8 C 3,2 km/h (1 Bft)
06.08.2016 15:27 16,7 C 16,7 C 75 % 1026,6 hPa 0,0 mm 3,0 km/h (1 Bft) S-SW 196 0 min 0,000 mm 3,8 UV-I 410 W/m 12,2 C 6,4 km/h (2 Bft)
06.08.2016 15:28 16,7 C 16,7 C 76 % 1026,7 hPa 0,0 mm 1,7 km/h (1 Bft) S-SW 213 0 min 0,000 mm 4,4 UV-I 410 W/m 12,4 C 3,2 km/h (1 Bft)
06.08.2016 15:29 16,7 C 16,7 C 76 % 1026,7 hPa 0,0 mm 2,6 km/h (1 Bft) S 179 1 min 0,000 mm 4,6 UV-I 541 W/m 12,4 C 4,8 km/h (1 Bft)
06.08.2016 15:30 16,7 C 16,7 C 75 % 1026,5 hPa 0,0 mm 4,8 km/h (1 Bft) S 174 1 min 0,000 mm 4,5 UV-I 575 W/m 12,2 C 6,4 km/h (2 Bft)
06.08.2016 15:31 16,7 C 16,7 C 75 % 1026,5 hPa 0,0 mm 1,4 km/h (1 Bft) S 174 1 min 0,000 mm 4,9 UV-I 587 W/m 12,2 C 3,2 km/h (1 Bft)
06.08.2016 15:32 16,9 C 16,9 C 78 % 1026,5 hPa 0,0 mm 1,5 km/h (1 Bft) O-NO 74 1 min 0,000 mm 5,7 UV-I 587 W/m 13,0 C 3,2 km/h (1 Bft)
06.08.2016 15:33 16,9 C 16,9 C 76 % 1026,6 hPa 0,0 mm 0,5 km/h (0 Bft) O-NO 74 1 min 0,000 mm 5,9 UV-I 587 W/m 12,6 C 1,6 km/h (1 Bft)
06.08.2016 15:34 16,9 C 16,9 C 76 % 1026,6 hPa 0,0 mm 0,3 km/h (0 Bft) O-NO 74 1 min 0,000 mm 5,5 UV-I 919 W/m 12,6 C 1,6 km/h (1 Bft)
06.08.2016 15:35 16,9 C 16,9 C 76 % 1026,6 hPa 0,0 mm 1,5 km/h (1 Bft) O-NO 74 1 min 0,000 mm 4,7 UV-I 919 W/m 12,6 C 3,2 km/h (1 Bft)
06.08.2016 15:36 16,9 C 16,9 C 74 % 1026,5 hPa 0,0 mm 1,3 km/h (1 Bft) O-NO 74 1 min 0,000 mm 3,9 UV-I 424 W/m 12,2 C 3,2 km/h (1 Bft)
06.08.2016 15:37 16,9 C 16,9 C 76 % 1026,5 hPa 0,0 mm 1,9 km/h (1 Bft) O-NO 74 1 min 0,000 mm 3,8 UV-I 448 W/m 12,6 C 3,2 km/h (1 Bft)
06.08.2016 15:38 17,1 C 17,1 C 79 % 1026,5 hPa 0,0 mm 0,9 km/h (0 Bft) O-NO 74 0 min 0,000 mm 3,6 UV-I 362 W/m 13,4 C 1,6 km/h (1 Bft)
06.08.2016 15:39 17,1 C 17,2 C 77 % 1026,5 hPa 0,0 mm 3,2 km/h (1 Bft) W 264 0 min 0,000 mm 3,6 UV-I 355 W/m 13,0 C 4,8 km/h (1 Bft)
06.08.2016 15:40 17,2 C 17,2 C 75 % 1026,5 hPa 0,0 mm 2,2 km/h (1 Bft) W 264 0 min 0,000 mm 4,7 UV-I 355 W/m 12,7 C 3,2 km/h (1 Bft)
06.08.2016 15:41 17,2 C 17,2 C 74 % 1026,4 hPa 0,0 mm 2,8 km/h (1 Bft) S-SW 192 0 min 0,000 mm 5,3 UV-I 355 W/m 12,5 C 4,8 km/h (1 Bft)
06.08.2016 15:42 17,3 C 17,3 C 75 % 1026,4 hPa 0,0 mm 2,0 km/h (1 Bft) S-SW 207 1 min 0,000 mm 5,6 UV-I 629 W/m 12,8 C 3,2 km/h (1 Bft)
06.08.2016 15:43 17,3 C 17,3 C 74 % 1026,4 hPa 0,0 mm 2,5 km/h (1 Bft) W-NW 298 1 min 0,000 mm 4,2 UV-I 629 W/m 12,6 C 3,2 km/h (1 Bft)
06.08.2016 15:44 17,4 C 17,4 C 75 % 1026,4 hPa 0,0 mm 2,0 km/h (1 Bft) NW 315 1 min 0,000 mm 4,0 UV-I 473 W/m 12,9 C 3,2 km/h (1 Bft)
06.08.2016 15:45 17,4 C 17,4 C 75 % 1026,3 hPa 0,0 mm 1,3 km/h (1 Bft) S-SW 211 0 min 0,000 mm 3,5 UV-I 381 W/m 12,9 C 1,6 km/h (1 Bft)
06.08.2016 15:46 17,5 C 17,5 C 76 % 1026,4 hPa 0,0 mm 0,5 km/h (0 Bft) S-SW 211 0 min 0,000 mm 3,9 UV-I 381 W/m 13,2 C 1,6 km/h (1 Bft)
06.08.2016 15:47 17,6 C 17,6 C 77 % 1026,4 hPa 0,0 mm 3,0 km/h (1 Bft) W-SW 254 0 min 0,000 mm 3,4 UV-I 352 W/m 13,5 C 4,8 km/h (1 Bft)
06.08.2016 15:48 17,5 C 17,6 C 73 % 1026,4 hPa 0,0 mm 3,0 km/h (1 Bft) S-SW 206 1 min 0,000 mm 4,5 UV-I 605 W/m 12,6 C 4,8 km/h (1 Bft)
06.08.2016 15:49 17,6 C 17,6 C 76 % 1026,4 hPa 0,0 mm 3,6 km/h (1 Bft) W-SW 257 1 min 0,000 mm 3,0 UV-I 605 W/m 13,3 C 8,0 km/h (2 Bft)
06.08.2016 15:50 17,5 C 17,6 C 75 % 1026,4 hPa 0,0 mm 1,5 km/h (1 Bft) W-SW 258 0 min 0,000 mm 2,9 UV-I 257 W/m 13,0 C 3,2 km/h (1 Bft)
06.08.2016 15:51 17,4 C 17,5 C 75 % 1026,4 hPa 0,0 mm 3,9 km/h (1 Bft) W-NW 294 0 min 0,000 mm 2,9 UV-I 269 W/m 12,9 C 6,4 km/h (2 Bft)
06.08.2016 15:52 17,4 C 17,5 C 75 % 1026,4 hPa 0,0 mm 4,0 km/h (1 Bft) S-SW 200 0 min 0,000 mm 3,5 UV-I 322 W/m 12,9 C 6,4 km/h (2 Bft)
06.08.2016 15:53 17,3 C 17,4 C 74 % 1026,4 hPa 0,0 mm 6,0 km/h (2 Bft) S-SW 203 0 min 0,000 mm 3,9 UV-I 357 W/m 12,6 C 9,7 km/h (2 Bft)
06.08.2016 15:54 17,3 C 17,3 C 74 % 1026,4 hPa 0,0 mm 4,5 km/h (1 Bft) S 178 0 min 0,000 mm 3,5 UV-I 362 W/m 12,6 C 8,0 km/h (2 Bft)
06.08.2016 15:55 17,2 C 17,3 C 74 % 1026,3 hPa 0,0 mm 3,0 km/h (1 Bft) S-SW 192 0 min 0,000 mm 3,0 UV-I 274 W/m 12,5 C 4,8 km/h (1 Bft)
06.08.2016 15:56 17,2 C 17,3 C 72 % 1026,4 hPa 0,0 mm 3,0 km/h (1 Bft) W 267 0 min 0,000 mm 2,9 UV-I 253 W/m 12,1 C 4,8 km/h (1 Bft)
06.08.2016 15:57 17,2 C 17,2 C 72 % 1026,4 hPa 0,0 mm 1,7 km/h (1 Bft) W 267 0 min 0,000 mm 3,0 UV-I 272 W/m 12,1 C 3,2 km/h (1 Bft)
06.08.2016 15:58 17,2 C 17,2 C 73 % 1026,4 hPa 0,0 mm 3,1 km/h (1 Bft) S 178 0 min 0,000 mm 3,0 UV-I 272 W/m 12,3 C 4,8 km/h (1 Bft)
06.08.2016 15:59 17,1 C 17,2 C 72 % 1026,4 hPa 0,0 mm 1,7 km/h (1 Bft) SO 134 0 min 0,000 mm 3,5 UV-I 373 W/m 12,0 C 3,2 km/h (1 Bft)
06.08.2016 16:00 17,2 C 17,2 C 75 % 1026,3 hPa 0,0 mm 1,9 km/h (1 Bft) W 267 0 min 0,000 mm 3,7 UV-I 376 W/m 12,7 C 4,8 km/h (1 Bft)
06.08.2016 16:01 17,3 C 17,3 C 75 % 1026,3 hPa 0,0 mm 0,9 km/h (0 Bft) W 267 1 min 0,229 mm 4,6 UV-I 791 W/m 12,8 C 1,6 km/h (1 Bft)
06.08.2016 16:02 17,4 C 17,4 C 76 % 1026,3 hPa 0,0 mm 0,6 km/h (0 Bft) W 267 1 min 0,000 mm 4,9 UV-I 809 W/m 13,1 C 1,6 km/h (1 Bft)
06.08.2016 16:03 17,6 C 17,6 C 75 % 1026,3 hPa 0,0 mm 3,1 km/h (1 Bft) N-NO 28 1 min 0,000 mm 4,9 UV-I 821 W/m 13,1 C 6,4 km/h (2 Bft)
06.08.2016 16:04 17,7 C 17,7 C 75 % 1026,3 hPa 0,0 mm 0,8 km/h (0 Bft) N-NO 28 1 min 0,000 mm 4,9 UV-I 789 W/m 13,2 C 3,2 km/h (1 Bft)
06.08.2016 16:05 17,8 C 17,8 C 75 % 1026,2 hPa 0,0 mm 2,8 km/h (1 Bft) W 271 1 min 0,000 mm 4,8 UV-I 768 W/m 13,3 C 4,8 km/h (1 Bft)
06.08.2016 16:06 18,0 C 18,0 C 72 % 1026,2 hPa 0,0 mm 4,4 km/h (1 Bft) S 179 0 min 0,000 mm 3,2 UV-I 195 W/m 12,9 C 8,0 km/h (2 Bft)
06.08.2016 16:07 17,9 C 18,0 C 73 % 1026,2 hPa 0,0 mm 3,6 km/h (1 Bft) W-SW 254 0 min 0,000 mm 2,8 UV-I 188 W/m 13,0 C 6,4 km/h (2 Bft)
06.08.2016 16:08 17,8 C 17,9 C 72 % 1026,3 hPa 0,0 mm 2,4 km/h (1 Bft) SW 221 0 min 0,000 mm 2,8 UV-I 197 W/m 12,7 C 4,8 km/h (1 Bft)
06.08.2016 16:09 17,7 C 17,8 C 70 % 1026,3 hPa 0,0 mm 1,6 km/h (1 Bft) S-SW 196 0 min 0,000 mm 3,6 UV-I 197 W/m 12,2 C 3,2 km/h (1 Bft)
06.08.2016 16:10 17,6 C 17,7 C 70 % 1026,2 hPa 0,0 mm 1,4 km/h (1 Bft) SO 125 0 min 0,000 mm 4,5 UV-I 197 W/m 12,1 C 4,8 km/h (1 Bft)
06.08.2016 16:11 17,6 C 17,6 C 70 % 1026,3 hPa 0,0 mm 2,7 km/h (1 Bft) O-SO 119 1 min 0,000 mm 4,4 UV-I 731 W/m 12,1 C 3,2 km/h (1 Bft)
06.08.2016 16:12 17,7 C 17,7 C 71 % 1026,2 hPa 0,0 mm 0,9 km/h (0 Bft) O-SO 121 1 min 0,000 mm 4,0 UV-I 731 W/m 12,4 C 1,6 km/h (1 Bft)
06.08.2016 16:13 17,7 C 17,7 C 71 % 1026,2 hPa 0,0 mm 2,3 km/h (1 Bft) O 80 1 min 0,000 mm 3,8 UV-I 731 W/m 12,4 C 4,8 km/h (1 Bft)
06.08.2016 16:14 17,7 C 17,7 C 71 % 1026,2 hPa 0,0 mm 2,3 km/h (1 Bft) W 279 1 min 0,000 mm 3,1 UV-I 731 W/m 12,4 C 4,8 km/h (1 Bft)
06.08.2016 16:15 17,8 C 17,8 C 72 % 1026,2 hPa 0,0 mm 3,8 km/h (1 Bft) S 173 0 min 0,000 mm 3,1 UV-I 267 W/m 12,7 C 6,4 km/h (2 Bft)
06.08.2016 16:16 17,9 C 17,9 C 72 % 1026,2 hPa 0,0 mm 2,5 km/h (1 Bft) O-NO 67 0 min 0,000 mm 3,0 UV-I 246 W/m 12,8 C 4,8 km/h (1 Bft)
06.08.2016 16:17 18,0 C 18,0 C 73 % 1026,2 hPa 0,0 mm 3,0 km/h (1 Bft) O-NO 57 0 min 0,000 mm 3,0 UV-I 264 W/m 13,1 C 4,8 km/h (1 Bft)
06.08.2016 16:18 18,1 C 18,1 C 69 % 1026,1 hPa 0,0 mm 3,8 km/h (1 Bft) NO 49 0 min 0,000 mm 3,0 UV-I 283 W/m 12,3 C 6,4 km/h (2 Bft)
06.08.2016 16:19 18,1 C 18,2 C 67 % 1026,1 hPa 0,0 mm 3,5 km/h (1 Bft) N-NW 329 0 min 0,000 mm 3,0 UV-I 288 W/m 11,9 C 4,8 km/h (1 Bft)
06.08.2016 16:20 18,2 C 18,2 C 69 % 1026,1 hPa 0,0 mm 2,6 km/h (1 Bft) N-NW 329 0 min 0,000 mm 3,0 UV-I 304 W/m 12,4 C 4,8 km/h (1 Bft)
06.08.2016 16:21 18,2 C 18,3 C 67 % 1026,1 hPa 0,0 mm 2,6 km/h (1 Bft) N 5 0 min 0,000 mm 2,9 UV-I 304 W/m 12,0 C 4,8 km/h (1 Bft)
06.08.2016 16:22 18,4 C 18,4 C 69 % 1026,1 hPa 0,0 mm 3,0 km/h (1 Bft) N-NO 13 0 min 0,000 mm 2,9 UV-I 308 W/m 12,6 C 3,2 km/h (1 Bft)
06.08.2016 16:23 18,6 C 18,6 C 69 % 1026,2 hPa 0,0 mm 2,1 km/h (1 Bft) N-NO 12 0 min 0,000 mm 2,9 UV-I 332 W/m 12,8 C 3,2 km/h (1 Bft)
06.08.2016 16:24 18,6 C 18,6 C 68 % 1026,1 hPa 0,0 mm 1,8 km/h (1 Bft) O-NO 65 0 min 0,000 mm 2,9 UV-I 341 W/m 12,6 C 4,8 km/h (1 Bft)
06.08.2016 16:25 18,6 C 18,6 C 66 % 1026,1 hPa 0,0 mm 3,0 km/h (1 Bft) SW 232 0 min 0,000 mm 2,9 UV-I 339 W/m 12,1 C 4,8 km/h (1 Bft)
06.08.2016 16:26 18,6 C 18,6 C 72 % 1026,1 hPa 0,0 mm 3,1 km/h (1 Bft) W-SW 240 0 min 0,000 mm 2,9 UV-I 336 W/m 13,4 C 6,4 km/h (2 Bft)
06.08.2016 16:27 18,6 C 18,6 C 71 % 1026,1 hPa 0,0 mm 5,5 km/h (1 Bft) W 268 0 min 0,000 mm 3,0 UV-I 345 W/m 13,2 C 8,0 km/h (2 Bft)
06.08.2016 16:28 18,5 C 18,6 C 69 % 1026,0 hPa 0,0 mm 4,4 km/h (1 Bft) SW 216 0 min 0,000 mm 3,0 UV-I 348 W/m 12,7 C 8,0 km/h (2 Bft)
06.08.2016 16:29 18,4 C 18,5 C 69 % 1026,0 hPa 0,0 mm 3,0 km/h (1 Bft) SW 216 0 min 0,000 mm 2,9 UV-I 353 W/m 12,6 C 4,8 km/h (1 Bft)
06.08.2016 16:30 18,3 C 18,4 C 71 % 1026,0 hPa 0,0 mm 0,9 km/h (0 Bft) SW 216 0 min 0,000 mm 2,9 UV-I 352 W/m 12,9 C 1,6 km/h (1 Bft)
06.08.2016 16:31 18,3 C 18,3 C 68 % 1026,1 hPa 0,0 mm 1,7 km/h (1 Bft) O-NO 61 1 min 0,000 mm 2,9 UV-I 360 W/m 12,3 C 4,8 km/h (1 Bft)
06.08.2016 16:32 18,3 C 18,3 C 71 % 1026,0 hPa 0,0 mm 4,3 km/h (1 Bft) NW 325 1 min 0,000 mm 2,9 UV-I 362 W/m 12,9 C 8,0 km/h (2 Bft)
06.08.2016 16:33 18,4 C 18,4 C 72 % 1026,0 hPa 0,0 mm 1,9 km/h (1 Bft) NW 308 1 min 0,000 mm 2,8 UV-I 353 W/m 13,3 C 4,8 km/h (1 Bft)
06.08.2016 16:34 18,6 C 18,6 C 69 % 1026,0 hPa 0,0 mm 5,0 km/h (1 Bft) W-SW 252 0 min 0,000 mm 2,7 UV-I 330 W/m 12,8 C 9,7 km/h (2 Bft)
06.08.2016 16:35 18,7 C 18,7 C 69 % 1026,0 hPa 0,0 mm 4,5 km/h (1 Bft) W-SW 246 0 min 0,000 mm 2,5 UV-I 285 W/m 12,9 C 8,0 km/h (2 Bft)
06.08.2016 16:36 18,7 C 18,7 C 66 % 1026,0 hPa 0,0 mm 3,9 km/h (1 Bft) W 273 0 min 0,000 mm 2,2 UV-I 269 W/m 12,2 C 8,0 km/h (2 Bft)
06.08.2016 16:37 18,7 C 18,7 C 67 % 1026,0 hPa 0,0 mm 4,0 km/h (1 Bft) W 276 0 min 0,000 mm 2,1 UV-I 258 W/m 12,4 C 8,0 km/h (2 Bft)
06.08.2016 16:38 18,7 C 18,7 C 65 % 1026,1 hPa 0,0 mm 4,1 km/h (1 Bft) S 190 0 min 0,000 mm 2,0 UV-I 262 W/m 12,0 C 4,8 km/h (1 Bft)
06.08.2016 16:39 18,6 C 18,7 C 65 % 1026,0 hPa 0,0 mm 3,4 km/h (1 Bft) W-SW 239 0 min 0,000 mm 1,9 UV-I 257 W/m 11,9 C 4,8 km/h (1 Bft)
06.08.2016 16:40 18,4 C 18,6 C 65 % 1026,0 hPa 0,0 mm 2,9 km/h (1 Bft) O-SO 121 0 min 0,000 mm 1,9 UV-I 248 W/m 11,7 C 4,8 km/h (1 Bft)
06.08.2016 16:41 18,3 C 18,4 C 69 % 1026,0 hPa 0,0 mm 2,1 km/h (1 Bft) O-SO 116 0 min 0,000 mm 1,8 UV-I 236 W/m 12,5 C 4,8 km/h (1 Bft)
06.08.2016 16:42 18,2 C 18,3 C 66 % 1026,0 hPa 0,0 mm 1,1 km/h (1 Bft) O-SO 120 0 min 0,000 mm 1,7 UV-I 234 W/m 11,7 C 3,2 km/h (1 Bft)
06.08.2016 16:43 18,1 C 18,2 C 69 % 1026,0 hPa 0,0 mm 1,7 km/h (1 Bft) S 188 0 min 0,000 mm 1,7 UV-I 237 W/m 12,3 C 4,8 km/h (1 Bft)
06.08.2016 16:44 18,1 C 18,1 C 67 % 1026,0 hPa 0,0 mm 0,8 km/h (0 Bft) S 190 0 min 0,000 mm 1,7 UV-I 239 W/m 11,9 C 3,2 km/h (1 Bft)
06.08.2016 16:45 18,1 C 18,1 C 68 % 1026,0 hPa 0,0 mm 0,9 km/h (0 Bft) S 186 0 min 0,000 mm 1,7 UV-I 239 W/m 12,1 C 1,6 km/h (1 Bft)
06.08.2016 16:46 18,0 C 18,1 C 69 % 1026,0 hPa 0,0 mm 0,1 km/h (0 Bft) S 186 0 min 0,000 mm 1,7 UV-I 244 W/m 12,2 C 1,6 km/h (1 Bft)
06.08.2016 16:47 18,1 C 18,1 C 71 % 1026,0 hPa 0,0 mm 4,0 km/h (1 Bft) W 265 0 min 0,000 mm 1,7 UV-I 246 W/m 12,8 C 8,0 km/h (2 Bft)
06.08.2016 16:48 18,1 C 18,1 C 69 % 1026,0 hPa 0,0 mm 3,8 km/h (1 Bft) W 267 0 min 0,000 mm 1,7 UV-I 244 W/m 12,3 C 6,4 km/h (2 Bft)
06.08.2016 16:49 18,1 C 18,1 C 66 % 1026,0 hPa 0,0 mm 3,0 km/h (1 Bft) W-NW 291 0 min 0,000 mm 1,7 UV-I 243 W/m 11,6 C 4,8 km/h (1 Bft)
06.08.2016 16:50 18,1 C 18,1 C 64 % 1026,0 hPa 0,0 mm 2,1 km/h (1 Bft) W-NW 296 0 min 0,000 mm 1,6 UV-I 234 W/m 11,2 C 3,2 km/h (1 Bft)
06.08.2016 16:51 18,2 C 18,2 C 67 % 1026,0 hPa 0,0 mm 3,3 km/h (1 Bft) W-SW 252 0 min 0,000 mm 1,6 UV-I 220 W/m 12,0 C 6,4 km/h (2 Bft)
06.08.2016 16:52 18,2 C 18,3 C 64 % 1026,0 hPa 0,0 mm 3,6 km/h (1 Bft) SW 236 0 min 0,000 mm 1,5 UV-I 204 W/m 11,3 C 6,4 km/h (2 Bft)
06.08.2016 16:53 18,2 C 18,3 C 63 % 1026,0 hPa 0,0 mm 3,8 km/h (1 Bft) W-SW 249 0 min 0,000 mm 1,5 UV-I 199 W/m 11,0 C 4,8 km/h (1 Bft)
06.08.2016 16:54 18,1 C 18,2 C 62 % 1026,0 hPa 0,0 mm 2,6 km/h (1 Bft) SW 232 0 min 0,000 mm 1,4 UV-I 195 W/m 10,7 C 4,8 km/h (1 Bft)
06.08.2016 16:55 18,1 C 18,1 C 62 % 1026,0 hPa 0,0 mm 6,2 km/h (2 Bft) W 278 0 min 0,000 mm 1,4 UV-I 188 W/m 10,7 C 12,9 km/h (3 Bft)
06.08.2016 16:56 18,0 C 18,1 C 64 % 1026,1 hPa 0,0 mm 6,2 km/h (2 Bft) W 279 0 min 0,000 mm 1,4 UV-I 181 W/m 11,1 C 11,3 km/h (2 Bft)
06.08.2016 16:57 17,9 C 18,0 C 63 % 1026,0 hPa 0,0 mm 2,5 km/h (1 Bft) W 281 0 min 0,000 mm 1,3 UV-I 174 W/m 10,8 C 4,8 km/h (1 Bft)
06.08.2016 16:58 17,9 C 17,9 C 67 % 1026,1 hPa 0,0 mm 3,1 km/h (1 Bft) W-SW 249 0 min 0,000 mm 1,3 UV-I 160 W/m 11,7 C 4,8 km/h (1 Bft)
06.08.2016 16:59 17,9 C 17,9 C 64 % 1026,1 hPa 0,0 mm 3,4 km/h (1 Bft) W-SW 257 0 min 0,000 mm 1,2 UV-I 155 W/m 11,0 C 6,4 km/h (2 Bft)
06.08.2016 17:00 17,8 C 17,9 C 65 % 1026,1 hPa 0,0 mm 3,4 km/h (1 Bft) SW 236 0 min 0,000 mm 1,2 UV-I 148 W/m 11,1 C 6,4 km/h (2 Bft)
06.08.2016 17:01 17,8 C 17,8 C 63 % 1026,1 hPa 0,0 mm 1,9 km/h (1 Bft) SW 236 0 min 0,203 mm 1,1 UV-I 141 W/m 10,7 C 4,8 km/h (1 Bft)
06.08.2016 17:02 17,8 C 17,8 C 69 % 1026,1 hPa 0,0 mm 2,8 km/h (1 Bft) W-NW 294 0 min 0,000 mm 1,0 UV-I 132 W/m 12,0 C 4,8 km/h (1 Bft)
06.08.2016 17:03 17,6 C 17,8 C 68 % 1026,1 hPa 0,0 mm 2,1 km/h (1 Bft) SW 234 0 min 0,000 mm 1,0 UV-I 123 W/m 11,6 C 3,2 km/h (1 Bft)
06.08.2016 17:04 17,4 C 17,6 C 71 % 1026,1 hPa 0,0 mm 3,4 km/h (1 Bft) W 259 0 min 0,000 mm 0,9 UV-I 113 W/m 12,1 C 4,8 km/h (1 Bft)
06.08.2016 17:05 17,3 C 17,4 C 70 % 1026,1 hPa 0,0 mm 2,1 km/h (1 Bft) W-SW 254 0 min 0,000 mm 0,9 UV-I 109 W/m 11,8 C 3,2 km/h (1 Bft)
06.08.2016 17:06 17,2 C 17,3 C 70 % 1026,1 hPa 0,0 mm 0,7 km/h (0 Bft) W-SW 254 0 min 0,000 mm 0,8 UV-I 104 W/m 11,7 C 1,6 km/h (1 Bft)
06.08.2016 17:07 16,9 C 17,2 C 74 % 1026,1 hPa 0,0 mm 0,5 km/h (0 Bft) W-SW 254 0 min 0,000 mm 0,8 UV-I 102 W/m 12,2 C 1,6 km/h (1 Bft)
06.08.2016 17:08 16,8 C 16,9 C 75 % 1026,1 hPa 0,0 mm 0,0 km/h (0 Bft) W-SW 254 0 min 0,000 mm 0,8 UV-I 98 W/m 12,3 C 0,0 km/h (0 Bft)
06.08.2016 17:09 16,7 C 16,8 C 75 % 1026,1 hPa 0,0 mm 2,4 km/h (1 Bft) W-SW 253 0 min 0,000 mm 0,8 UV-I 97 W/m 12,2 C 4,8 km/h (1 Bft)
06.08.2016 17:10 16,8 C 16,8 C 74 % 1026,1 hPa 0,0 mm 0,9 km/h (0 Bft) W-SW 253 0 min 0,000 mm 0,7 UV-I 88 W/m 12,1 C 3,2 km/h (1 Bft)
06.08.2016 17:11 16,8 C 16,8 C 69 % 1026,1 hPa 0,0 mm 0,5 km/h (0 Bft) W-SW 253 0 min 0,000 mm 0,7 UV-I 83 W/m 11,1 C 1,6 km/h (1 Bft)
06.08.2016 17:12 16,9 C 16,9 C 69 % 1026,2 hPa 0,0 mm 3,2 km/h (1 Bft) NW 311 0 min 0,000 mm 0,6 UV-I 77 W/m 11,2 C 6,4 km/h (2 Bft)
06.08.2016 17:13 17,1 C 17,1 C 67 % 1026,2 hPa 0,0 mm 3,8 km/h (1 Bft) W-NW 300 0 min 0,000 mm 0,6 UV-I 72 W/m 10,9 C 6,4 km/h (2 Bft)
06.08.2016 17:14 17,1 C 17,1 C 69 % 1026,2 hPa 0,0 mm 2,5 km/h (1 Bft) W-NW 303 0 min 0,000 mm 0,6 UV-I 69 W/m 11,4 C 4,8 km/h (1 Bft)
06.08.2016 17:15 17,1 C 17,1 C 68 % 1026,2 hPa 0,0 mm 0,5 km/h (0 Bft) W-NW 303 0 min 0,000 mm 0,5 UV-I 65 W/m 11,1 C 1,6 km/h (1 Bft)
06.08.2016 17:16 17,0 C 17,1 C 73 % 1026,2 hPa 0,0 mm 0,0 km/h (0 Bft) W-NW 303 0 min 0,000 mm 0,5 UV-I 62 W/m 12,1 C 0,0 km/h (0 Bft)
06.08.2016 17:17 16,8 C 17,0 C 73 % 1026,2 hPa 0,0 mm 0,0 km/h (0 Bft) W-NW 303 0 min 0,000 mm 0,5 UV-I 62 W/m 11,9 C 0,0 km/h (0 Bft)
06.08.2016 17:18 16,8 C 16,8 C 71 % 1026,2 hPa 0,0 mm 1,9 km/h (1 Bft) W-NW 300 0 min 0,000 mm 0,5 UV-I 58 W/m 11,5 C 4,8 km/h (1 Bft)
06.08.2016 17:19 16,6 C 16,8 C 76 % 1026,2 hPa 0,0 mm 2,2 km/h (1 Bft) W-NW 296 0 min 0,000 mm 0,0 UV-I 56 W/m 12,3 C 4,8 km/h (1 Bft)
06.08.2016 17:20 16,4 C 16,6 C 72 % 1026,2 hPa 0,0 mm 1,0 km/h (0 Bft) W-NW 296 0 min 0,000 mm 0,0 UV-I 53 W/m 11,3 C 1,6 km/h (1 Bft)
06.08.2016 17:21 16,4 C 16,5 C 76 % 1026,2 hPa 0,0 mm 0,0 km/h (0 Bft) W-NW 296 0 min 0,000 mm 0,0 UV-I 49 W/m 12,2 C 0,0 km/h (0 Bft)
06.08.2016 17:22 16,3 C 16,4 C 74 % 1026,2 hPa 0,0 mm 0,1 km/h (0 Bft) W-NW 296 0 min 0,000 mm 0,0 UV-I 46 W/m 11,7 C 1,6 km/h (1 Bft)
06.08.2016 17:23 16,3 C 16,3 C 75 % 1026,2 hPa 0,2 mm 0,7 km/h (0 Bft) W-NW 296 0 min 0,000 mm 0,0 UV-I 44 W/m 11,9 C 1,6 km/h (1 Bft)
06.08.2016 17:24 16,2 C 16,3 C 74 % 1026,3 hPa 0,0 mm 1,1 km/h (1 Bft) W-NW 296 0 min 0,000 mm 0,0 UV-I 42 W/m 11,6 C 1,6 km/h (1 Bft)
06.08.2016 17:25 16,2 C 16,2 C 76 % 1026,3 hPa 0,0 mm 0,6 km/h (0 Bft) W-NW 296 0 min 0,000 mm 0,0 UV-I 42 W/m 12,0 C 1,6 km/h (1 Bft)
06.08.2016 17:26 16,1 C 16,2 C 77 % 1026,2 hPa 0,0 mm 0,1 km/h (0 Bft) W-NW 296 0 min 0,000 mm 0,0 UV-I 40 W/m 12,1 C 1,6 km/h (1 Bft)
06.08.2016 17:27 16,0 C 16,1 C 75 % 1026,2 hPa 0,0 mm 0,0 km/h (0 Bft) W-NW 296 0 min 0,000 mm 0,0 UV-I 40 W/m 11,6 C 0,0 km/h (0 Bft)
06.08.2016 17:28 15,9 C 16,0 C 77 % 1026,2 hPa 0,0 mm 0,0 km/h (0 Bft) W-NW 296 0 min 0,000 mm 0,0 UV-I 39 W/m 11,9 C 0,0 km/h (0 Bft)
06.08.2016 17:29 15,8 C 15,9 C 77 % 1026,2 hPa 0,0 mm 0,1 km/h (0 Bft) W-NW 296 0 min 0,000 mm 0,0 UV-I 37 W/m 11,8 C 1,6 km/h (1 Bft)
06.08.2016 17:30 15,8 C 15,8 C 77 % 1026,2 hPa 0,0 mm 0,1 km/h (0 Bft) W-NW 296 0 min 0,000 mm 0,0 UV-I 35 W/m 11,8 C 1,6 km/h (1 Bft)
06.08.2016 17:31 15,7 C 15,8 C 78 % 1026,2 hPa 0,0 mm 1,3 km/h (1 Bft) W-NW 296 0 min 0,000 mm 0,0 UV-I 35 W/m 11,9 C 1,6 km/h (1 Bft)
06.08.2016 17:32 15,6 C 15,7 C 77 % 1026,2 hPa 0,0 mm 0,7 km/h (0 Bft) W-NW 296 0 min 0,000 mm 0,0 UV-I 35 W/m 11,6 C 1,6 km/h (1 Bft)
06.08.2016 17:33 15,5 C 15,6 C 79 % 1026,3 hPa 0,0 mm 0,0 km/h (0 Bft) W-NW 296 0 min 0,000 mm 0,0 UV-I 33 W/m 11,9 C 0,0 km/h (0 Bft)
06.08.2016 17:34 15,4 C 15,5 C 79 % 1026,3 hPa 0,0 mm 0,0 km/h (0 Bft) W-NW 296 0 min 0,000 mm 0,0 UV-I 33 W/m 11,8 C 0,0 km/h (0 Bft)
06.08.2016 17:35 15,4 C 15,4 C 80 % 1026,3 hPa 0,0 mm 0,0 km/h (0 Bft) W-NW 296 0 min 0,000 mm 0,0 UV-I 33 W/m 12,0 C 0,0 km/h (0 Bft)
06.08.2016 17:36 15,3 C 15,4 C 82 % 1026,3 hPa 0,0 mm 0,6 km/h (0 Bft) W-NW 296 0 min 0,000 mm 0,0 UV-I 32 W/m 12,2 C 1,6 km/h (1 Bft)
06.08.2016 17:37 15,3 C 15,4 C 79 % 1026,3 hPa 0,0 mm 0,9 km/h (0 Bft) N 360 0 min 0,000 mm 0,0 UV-I 30 W/m 11,7 C 3,2 km/h (1 Bft)
06.08.2016 17:38 15,3 C 15,3 C 79 % 1026,4 hPa 0,0 mm 1,3 km/h (1 Bft) NW 310 0 min 0,000 mm 0,0 UV-I 28 W/m 11,7 C 3,2 km/h (1 Bft)
06.08.2016 17:39 15,3 C 15,3 C 78 % 1026,4 hPa 0,0 mm 5,9 km/h (2 Bft) N 355 0 min 0,000 mm 0,0 UV-I 30 W/m 11,5 C 8,0 km/h (2 Bft)
06.08.2016 17:40 15,4 C 15,4 C 81 % 1026,4 hPa 0,0 mm 7,3 km/h (2 Bft) N-NW 333 0 min 0,000 mm 0,0 UV-I 30 W/m 12,2 C 12,9 km/h (3 Bft)
06.08.2016 17:41 15,6 C 15,6 C 81 % 1026,4 hPa 0,0 mm 4,4 km/h (1 Bft) N 355 0 min 0,000 mm 0,0 UV-I 30 W/m 12,3 C 8,0 km/h (2 Bft)
06.08.2016 17:42 15,7 C 15,7 C 81 % 1026,4 hPa 0,0 mm 1,3 km/h (1 Bft) N-NO 30 0 min 0,000 mm 0,0 UV-I 30 W/m 12,4 C 3,2 km/h (1 Bft)
06.08.2016 17:43 15,9 C 15,9 C 80 % 1026,4 hPa 0,0 mm 2,4 km/h (1 Bft) NO 39 0 min 0,000 mm 0,0 UV-I 30 W/m 12,5 C 3,2 km/h (1 Bft)
06.08.2016 17:44 15,9 C 15,9 C 80 % 1026,4 hPa 0,0 mm 5,4 km/h (1 Bft) NO 34 0 min 0,000 mm 0,0 UV-I 28 W/m 12,5 C 8,0 km/h (2 Bft)
06.08.2016 17:45 15,9 C 15,9 C 80 % 1026,4 hPa 0,0 mm 4,0 km/h (1 Bft) NO 44 0 min 0,000 mm 0,0 UV-I 26 W/m 12,5 C 6,4 km/h (2 Bft)
06.08.2016 17:46 15,9 C 16,0 C 80 % 1026,4 hPa 0,0 mm 8,6 km/h (2 Bft) O-NO 67 0 min 0,000 mm 0,0 UV-I 26 W/m 12,5 C 11,3 km/h (2 Bft)
06.08.2016 17:47 15,9 C 15,9 C 80 % 1026,5 hPa 0,0 mm 4,3 km/h (1 Bft) NO 55 0 min 0,000 mm 0,0 UV-I 26 W/m 12,5 C 6,4 km/h (2 Bft)
06.08.2016 17:48 15,9 C 16,0 C 80 % 1026,5 hPa 0,0 mm 2,3 km/h (1 Bft) NO 44 0 min 0,000 mm 0,0 UV-I 25 W/m 12,5 C 4,8 km/h (1 Bft)
06.08.2016 17:49 15,9 C 16,0 C 80 % 1026,5 hPa 0,0 mm 2,2 km/h (1 Bft) NO 44 0 min 0,000 mm 0,0 UV-I 25 W/m 12,5 C 3,2 km/h (1 Bft)
06.08.2016 17:50 15,9 C 15,9 C 80 % 1026,5 hPa 0,0 mm 1,7 km/h (1 Bft) NO 44 0 min 0,000 mm 0,0 UV-I 25 W/m 12,5 C 3,2 km/h (1 Bft)
06.08.2016 17:51 15,8 C 15,9 C 81 % 1026,5 hPa 0,0 mm 2,3 km/h (1 Bft) O-NO 65 0 min 0,000 mm 0,0 UV-I 26 W/m 12,5 C 3,2 km/h (1 Bft)
06.08.2016 17:52 15,8 C 15,8 C 81 % 1026,5 hPa 0,0 mm 1,0 km/h (0 Bft) O-NO 65 0 min 0,000 mm 0,0 UV-I 26 W/m 12,5 C 3,2 km/h (1 Bft)
06.08.2016 17:53 15,8 C 15,8 C 81 % 1026,5 hPa 0,0 mm 1,3 km/h (1 Bft) O-NO 65 0 min 0,000 mm 0,0 UV-I 26 W/m 12,5 C 3,2 km/h (1 Bft)
06.08.2016 17:54 15,7 C 15,8 C 83 % 1026,5 hPa 0,0 mm 1,9 km/h (1 Bft) O-NO 67 0 min 0,000 mm 0,0 UV-I 25 W/m 12,8 C 3,2 km/h (1 Bft)
06.08.2016 17:55 15,6 C 15,7 C 82 % 1026,5 hPa 0,0 mm 2,0 km/h (1 Bft) O-NO 67 0 min 0,000 mm 0,0 UV-I 25 W/m 12,5 C 3,2 km/h (1 Bft)
06.08.2016 17:56 15,6 C 15,6 C 82 % 1026,5 hPa 0,0 mm 1,1 km/h (1 Bft) O-NO 68 0 min 0,000 mm 0,0 UV-I 23 W/m 12,5 C 1,6 km/h (1 Bft)
06.08.2016 17:57 15,6 C 15,6 C 82 % 1026,6 hPa 0,0 mm 1,4 km/h (1 Bft) O-NO 68 0 min 0,000 mm 0,0 UV-I 21 W/m 12,5 C 1,6 km/h (1 Bft)
06.08.2016 17:58 15,6 C 15,6 C 81 % 1026,6 hPa 0,0 mm 0,4 km/h (0 Bft) O-NO 68 0 min 0,000 mm 0,0 UV-I 19 W/m 12,3 C 1,6 km/h (1 Bft)
06.08.2016 17:59 15,6 C 15,6 C 81 % 1026,6 hPa 0,0 mm 0,0 km/h (0 Bft) O-NO 68 0 min 0,000 mm 0,0 UV-I 18 W/m 12,3 C 0,0 km/h (0 Bft)
06.08.2016 18:00 15,6 C 15,6 C 80 % 1026,6 hPa 0,0 mm 0,0 km/h (0 Bft) O-NO 68 0 min 0,000 mm 0,0 UV-I 18 W/m 12,2 C 0,0 km/h (0 Bft)
06.08.2016 18:01 15,6 C 15,7 C 81 % 1026,6 hPa 0,0 mm 0,0 km/h (0 Bft) O-NO 68 0 min 0,025 mm 0,0 UV-I 19 W/m 12,3 C 0,0 km/h (0 Bft)
06.08.2016 18:02 15,6 C 15,7 C 81 % 1026,6 hPa 0,0 mm 0,0 km/h (0 Bft) O-NO 68 0 min 0,001 mm 0,0 UV-I 19 W/m 12,3 C 0,0 km/h (0 Bft)
06.08.2016 18:03 15,6 C 15,7 C 81 % 1026,6 hPa 0,0 mm 0,0 km/h (0 Bft) O-NO 68 0 min 0,000 mm 0,0 UV-I 18 W/m 12,3 C 0,0 km/h (0 Bft)
06.08.2016 18:04 15,6 C 15,6 C 82 % 1026,6 hPa 0,0 mm 0,0 km/h (0 Bft) O-NO 68 0 min 0,000 mm 0,0 UV-I 19 W/m 12,5 C 0,0 km/h (0 Bft)
06.08.2016 18:05 15,6 C 15,6 C 82 % 1026,6 hPa 0,0 mm 0,0 km/h (0 Bft) O-NO 68 0 min 0,000 mm 0,0 UV-I 19 W/m 12,5 C 0,0 km/h (0 Bft)
06.08.2016 18:06 15,5 C 15,6 C 81 % 1026,6 hPa 0,0 mm 0,0 km/h (0 Bft) O-NO 68 0 min 0,000 mm 0,0 UV-I 19 W/m 12,3 C 0,0 km/h (0 Bft)
06.08.2016 18:07 15,5 C 15,5 C 81 % 1026,6 hPa 0,0 mm 0,0 km/h (0 Bft) O-NO 68 0 min 0,000 mm 0,0 UV-I 19 W/m 12,3 C 0,0 km/h (0 Bft)
06.08.2016 18:08 15,4 C 15,5 C 82 % 1026,6 hPa 0,0 mm 0,0 km/h (0 Bft) O-NO 68 0 min 0,000 mm 0,0 UV-I 19 W/m 12,3 C 0,0 km/h (0 Bft)
06.08.2016 18:09 15,4 C 15,4 C 82 % 1026,6 hPa 0,0 mm 0,0 km/h (0 Bft) O-NO 68 0 min 0,000 mm 0,0 UV-I 19 W/m 12,3 C 0,0 km/h (0 Bft)
06.08.2016 18:10 15,3 C 15,4 C 82 % 1026,6 hPa 0,0 mm 0,0 km/h (0 Bft) O-NO 68 0 min 0,000 mm 0,0 UV-I 19 W/m 12,2 C 0,0 km/h (0 Bft)
06.08.2016 18:11 15,3 C 15,4 C 83 % 1026,6 hPa 0,0 mm 0,0 km/h (0 Bft) O-NO 68 0 min 0,000 mm 0,0 UV-I 19 W/m 12,4 C 0,0 km/h (0 Bft)
06.08.2016 18:12 15,3 C 15,4 C 83 % 1026,5 hPa 0,0 mm 0,0 km/h (0 Bft) O 81 0 min 0,000 mm 0,0 UV-I 21 W/m 12,4 C 0,0 km/h (0 Bft)
06.08.2016 18:13 15,3 C 15,3 C 83 % 1026,5 hPa 0,0 mm 0,0 km/h (0 Bft) O 81 0 min 0,000 mm 0,0 UV-I 21 W/m 12,4 C 0,0 km/h (0 Bft)
06.08.2016 18:14 15,2 C 15,3 C 83 % 1026,5 hPa 0,0 mm 0,0 km/h (0 Bft) O 84 0 min 0,000 mm 0,0 UV-I 21 W/m 12,3 C 0,0 km/h (0 Bft)
06.08.2016 18:15 15,2 C 15,2 C 81 % 1026,5 hPa 0,0 mm 0,0 km/h (0 Bft) O 84 0 min 0,000 mm 0,0 UV-I 23 W/m 12,0 C 0,0 km/h (0 Bft)
06.08.2016 18:16 15,2 C 15,2 C 83 % 1026,5 hPa 0,0 mm 0,0 km/h (0 Bft) O 84 0 min 0,000 mm 0,0 UV-I 23 W/m 12,3 C 0,0 km/h (0 Bft)
06.08.2016 18:17 15,2 C 15,2 C 82 % 1026,5 hPa 0,0 mm 0,0 km/h (0 Bft) O 84 0 min 0,000 mm 0,0 UV-I 23 W/m 12,1 C 0,0 km/h (0 Bft)
06.08.2016 18:18 15,3 C 15,3 C 82 % 1026,5 hPa 0,0 mm 0,0 km/h (0 Bft) O 84 0 min 0,000 mm 0,0 UV-I 23 W/m 12,2 C 0,0 km/h (0 Bft)
06.08.2016 18:19 15,3 C 15,3 C 83 % 1026,5 hPa 0,0 mm 0,0 km/h (0 Bft) O-SO 114 0 min 0,000 mm 0,0 UV-I 23 W/m 12,4 C 0,0 km/h (0 Bft)
06.08.2016 18:20 15,2 C 15,3 C 82 % 1026,5 hPa 0,0 mm 0,0 km/h (0 Bft) O-SO 123 0 min 0,000 mm 0,0 UV-I 21 W/m 12,1 C 0,0 km/h (0 Bft)
06.08.2016 18:21 15,2 C 15,2 C 83 % 1026,6 hPa 0,0 mm 0,0 km/h (0 Bft) O-SO 123 0 min 0,000 mm 0,0 UV-I 21 W/m 12,3 C 0,0 km/h (0 Bft)
06.08.2016 18:22 15,2 C 15,2 C 84 % 1026,6 hPa 0,0 mm 0,0 km/h (0 Bft) O-SO 123 0 min 0,000 mm 0,0 UV-I 19 W/m 12,5 C 0,0 km/h (0 Bft)
06.08.2016 18:23 15,1 C 15,2 C 83 % 1026,7 hPa 0,0 mm 0,0 km/h (0 Bft) O-SO 123 0 min 0,000 mm 0,0 UV-I 19 W/m 12,2 C 0,0 km/h (0 Bft)
06.08.2016 18:24 15,1 C 15,1 C 82 % 1026,7 hPa 0,0 mm 0,0 km/h (0 Bft) O-SO 121 0 min 0,000 mm 0,0 UV-I 18 W/m 12,0 C 0,0 km/h (0 Bft)
06.08.2016 18:25 15,1 C 15,1 C 81 % 1026,7 hPa 0,0 mm 0,0 km/h (0 Bft) O-SO 121 0 min 0,000 mm 0,0 UV-I 18 W/m 11,9 C 0,0 km/h (0 Bft)
06.08.2016 18:26 15,1 C 15,1 C 83 % 1026,6 hPa 0,0 mm 0,0 km/h (0 Bft) O-SO 121 0 min 0,000 mm 0,0 UV-I 16 W/m 12,2 C 0,0 km/h (0 Bft)
06.08.2016 18:27 15,1 C 15,1 C 81 % 1026,7 hPa 0,0 mm 0,0 km/h (0 Bft) O-SO 121 0 min 0,000 mm 0,0 UV-I 16 W/m 11,9 C 0,0 km/h (0 Bft)
06.08.2016 18:28 15,1 C 15,1 C 83 % 1026,7 hPa 0,0 mm 0,0 km/h (0 Bft) O-SO 121 0 min 0,000 mm 0,0 UV-I 16 W/m 12,2 C 0,0 km/h (0 Bft)
06.08.2016 18:29 15,1 C 15,1 C 83 % 1026,7 hPa 0,0 mm 0,0 km/h (0 Bft) O-SO 121 0 min 0,000 mm 0,0 UV-I 16 W/m 12,2 C 0,0 km/h (0 Bft)
06.08.2016 18:30 15,1 C 15,1 C 84 % 1026,7 hPa 0,0 mm 0,0 km/h (0 Bft) O-SO 121 0 min 0,000 mm 0,0 UV-I 16 W/m 12,4 C 0,0 km/h (0 Bft)
06.08.2016 18:31 15,0 C 15,1 C 84 % 1026,7 hPa 0,0 mm 0,0 km/h (0 Bft) O-SO 121 0 min 0,000 mm 0,0 UV-I 16 W/m 12,3 C 0,0 km/h (0 Bft)
06.08.2016 18:32 14,9 C 15,0 C 83 % 1026,7 hPa 0,0 mm 0,0 km/h (0 Bft) O-SO 121 0 min 0,000 mm 0,0 UV-I 14 W/m 12,0 C 0,0 km/h (0 Bft)
06.08.2016 18:33 14,9 C 14,9 C 85 % 1026,7 hPa 0,0 mm 0,0 km/h (0 Bft) O-SO 121 0 min 0,000 mm 0,0 UV-I 14 W/m 12,4 C 0,0 km/h (0 Bft)
06.08.2016 18:34 14,9 C 14,9 C 83 % 1026,7 hPa 0,0 mm 0,0 km/h (0 Bft) O-SO 121 0 min 0,000 mm 0,0 UV-I 14 W/m 12,0 C 0,0 km/h (0 Bft)
06.08.2016 18:35 14,9 C 14,9 C 84 % 1026,7 hPa 0,0 mm 0,0 km/h (0 Bft) O-SO 121 0 min 0,000 mm 0,0 UV-I 14 W/m 12,2 C 0,0 km/h (0 Bft)
06.08.2016 18:36 14,9 C 14,9 C 85 % 1026,7 hPa 0,0 mm 0,0 km/h (0 Bft) O-SO 121 0 min 0,000 mm 0,0 UV-I 14 W/m 12,4 C 0,0 km/h (0 Bft)
06.08.2016 18:37 14,9 C 14,9 C 85 % 1026,7 hPa 0,0 mm 0,0 km/h (0 Bft) O-SO 112 0 min 0,000 mm 0,0 UV-I 14 W/m 12,4 C 0,0 km/h (0 Bft)
06.08.2016 18:38 14,8 C 14,9 C 86 % 1026,7 hPa 0,0 mm 0,0 km/h (0 Bft) O-SO 113 0 min 0,000 mm 0,0 UV-I 14 W/m 12,5 C 0,0 km/h (0 Bft)
06.08.2016 18:39 14,8 C 14,9 C 86 % 1026,7 hPa 0,0 mm 0,0 km/h (0 Bft) O-SO 113 0 min 0,000 mm 0,0 UV-I 14 W/m 12,5 C 0,0 km/h (0 Bft)
06.08.2016 18:40 14,8 C 14,8 C 87 % 1026,7 hPa 0,0 mm 0,0 km/h (0 Bft) O-SO 113 0 min 0,000 mm 0,0 UV-I 14 W/m 12,7 C 0,0 km/h (0 Bft)
06.08.2016 18:41 14,7 C 14,8 C 87 % 1026,7 hPa 0,0 mm 0,0 km/h (0 Bft) O-SO 113 0 min 0,000 mm 0,0 UV-I 14 W/m 12,6 C 0,0 km/h (0 Bft)
06.08.2016 18:42 14,7 C 14,7 C 87 % 1026,7 hPa 0,0 mm 0,0 km/h (0 Bft) O-SO 113 0 min 0,000 mm 0,0 UV-I 14 W/m 12,6 C 0,0 km/h (0 Bft)
06.08.2016 18:43 14,6 C 14,7 C 87 % 1026,7 hPa 0,0 mm 1,7 km/h (1 Bft) O-NO 75 0 min 0,000 mm 0,0 UV-I 14 W/m 12,5 C 4,8 km/h (1 Bft)
06.08.2016 18:44 14,6 C 14,6 C 87 % 1026,7 hPa 0,0 mm 2,8 km/h (1 Bft) O 80 0 min 0,000 mm 0,0 UV-I 14 W/m 12,5 C 3,2 km/h (1 Bft)
06.08.2016 18:45 14,6 C 14,6 C 87 % 1026,7 hPa 0,0 mm 2,8 km/h (1 Bft) O 98 0 min 0,000 mm 0,0 UV-I 14 W/m 12,5 C 3,2 km/h (1 Bft)
06.08.2016 18:46 14,6 C 14,6 C 87 % 1026,7 hPa 0,0 mm 2,3 km/h (1 Bft) O 97 0 min 0,000 mm 0,0 UV-I 14 W/m 12,5 C 3,2 km/h (1 Bft)
06.08.2016 18:47 14,6 C 14,6 C 88 % 1026,7 hPa 0,0 mm 1,9 km/h (1 Bft) O 97 0 min 0,000 mm 0,0 UV-I 16 W/m 12,6 C 4,8 km/h (1 Bft)
06.08.2016 18:48 14,6 C 14,6 C 88 % 1026,7 hPa 0,0 mm 1,1 km/h (1 Bft) O 97 0 min 0,000 mm 0,0 UV-I 16 W/m 12,6 C 3,2 km/h (1 Bft)
06.08.2016 18:49 14,5 C 14,6 C 88 % 1026,7 hPa 0,0 mm 2,1 km/h (1 Bft) O 97 0 min 0,000 mm 0,0 UV-I 16 W/m 12,5 C 3,2 km/h (1 Bft)
06.08.2016 18:50 14,4 C 14,5 C 87 % 1026,7 hPa 0,0 mm 0,1 km/h (0 Bft) O 97 0 min 0,000 mm 0,0 UV-I 16 W/m 12,3 C 1,6 km/h (1 Bft)
06.08.2016 18:51 14,4 C 14,5 C 87 % 1026,7 hPa 0,0 mm 0,5 km/h (0 Bft) O-SO 102 0 min 0,000 mm 0,0 UV-I 16 W/m 12,3 C 3,2 km/h (1 Bft)
06.08.2016 18:52 14,5 C 14,5 C 87 % 1026,7 hPa 0,0 mm 3,3 km/h (1 Bft) S-SO 156 0 min 0,000 mm 0,0 UV-I 16 W/m 12,4 C 4,8 km/h (1 Bft)
06.08.2016 18:53 14,5 C 14,5 C 86 % 1026,7 hPa 0,0 mm 1,1 km/h (1 Bft) S-SO 155 0 min 0,000 mm 0,0 UV-I 18 W/m 12,2 C 3,2 km/h (1 Bft)
06.08.2016 18:54 14,5 C 14,6 C 85 % 1026,7 hPa 0,0 mm 1,2 km/h (1 Bft) S-SO 155 0 min 0,000 mm 0,0 UV-I 18 W/m 12,0 C 3,2 km/h (1 Bft)
06.08.2016 18:55 14,6 C 14,6 C 87 % 1026,7 hPa 0,0 mm 1,5 km/h (1 Bft) O-SO 113 0 min 0,000 mm 0,0 UV-I 18 W/m 12,5 C 4,8 km/h (1 Bft)
06.08.2016 18:56 14,6 C 14,6 C 86 % 1026,7 hPa 0,0 mm 2,2 km/h (1 Bft) O 95 0 min 0,000 mm 0,0 UV-I 18 W/m 12,3 C 4,8 km/h (1 Bft)
06.08.2016 18:57 14,6 C 14,6 C 87 % 1026,7 hPa 0,0 mm 0,6 km/h (0 Bft) O 95 0 min 0,000 mm 0,0 UV-I 18 W/m 12,5 C 1,6 km/h (1 Bft)
06.08.2016 18:58 14,6 C 14,6 C 86 % 1026,7 hPa 0,0 mm 1,0 km/h (0 Bft) O 95 0 min 0,000 mm 0,0 UV-I 18 W/m 12,3 C 3,2 km/h (1 Bft)
06.08.2016 18:59 14,6 C 14,6 C 86 % 1026,7 hPa 0,0 mm 0,2 km/h (0 Bft) O 95 0 min 0,000 mm 0,0 UV-I 18 W/m 12,3 C 1,6 km/h (1 Bft)
06.08.2016 19:00 14,6 C 14,6 C 87 % 1026,7 hPa 0,0 mm 0,8 km/h (0 Bft) O 95 0 min 0,000 mm 0,0 UV-I 19 W/m 12,5 C 1,6 km/h (1 Bft)
06.08.2016 19:01 14,6 C 14,6 C 87 % 1026,7 hPa 0,0 mm 0,7 km/h (0 Bft) O 95 0 min 0,025 mm 0,0 UV-I 19 W/m 12,5 C 1,6 km/h (1 Bft)
06.08.2016 19:02 14,6 C 14,6 C 87 % 1026,7 hPa 0,0 mm 0,0 km/h (0 Bft) O 95 0 min 0,000 mm 0,0 UV-I 19 W/m 12,5 C 0,0 km/h (0 Bft)
06.08.2016 19:03 14,5 C 14,6 C 87 % 1026,7 hPa 0,0 mm 0,0 km/h (0 Bft) O 95 0 min 0,000 mm 0,0 UV-I 19 W/m 12,4 C 0,0 km/h (0 Bft)
06.08.2016 19:04 14,5 C 14,6 C 87 % 1026,7 hPa 0,0 mm 1,3 km/h (1 Bft) O 95 0 min 0,000 mm 0,0 UV-I 21 W/m 12,4 C 1,6 km/h (1 Bft)
06.08.2016 19:05 14,5 C 14,5 C 87 % 1026,6 hPa 0,0 mm 1,4 km/h (1 Bft) O 95 0 min 0,000 mm 0,0 UV-I 21 W/m 12,4 C 1,6 km/h (1 Bft)
06.08.2016 19:06 14,5 C 14,5 C 87 % 1026,7 hPa 0,0 mm 0,3 km/h (0 Bft) O 95 0 min 0,000 mm 0,0 UV-I 21 W/m 12,4 C 1,6 km/h (1 Bft)
06.08.2016 19:07 14,4 C 14,5 C 87 % 1026,6 hPa 0,0 mm 0,7 km/h (0 Bft) O 95 0 min 0,000 mm 0,0 UV-I 23 W/m 12,3 C 1,6 km/h (1 Bft)
06.08.2016 19:08 14,4 C 14,4 C 87 % 1026,6 hPa 0,0 mm 0,0 km/h (0 Bft) O 95 0 min 0,000 mm 0,0 UV-I 23 W/m 12,3 C 0,0 km/h (0 Bft)
06.08.2016 19:09 14,4 C 14,4 C 87 % 1026,6 hPa 0,0 mm 0,0 km/h (0 Bft) O 95 0 min 0,000 mm 0,0 UV-I 23 W/m 12,3 C 0,0 km/h (0 Bft)
06.08.2016 19:10 14,4 C 14,4 C 87 % 1026,6 hPa 0,0 mm 0,0 km/h (0 Bft) O 95 0 min 0,000 mm 0,0 UV-I 23 W/m 12,3 C 0,0 km/h (0 Bft)
06.08.2016 19:11 14,4 C 14,4 C 88 % 1026,6 hPa 0,0 mm 0,0 km/h (0 Bft) O 95 0 min 0,000 mm 0,0 UV-I 25 W/m 12,4 C 0,0 km/h (0 Bft)
06.08.2016 19:12 14,4 C 14,4 C 87 % 1026,6 hPa 0,0 mm 0,0 km/h (0 Bft) O 95 0 min 0,000 mm 0,0 UV-I 26 W/m 12,3 C 0,0 km/h (0 Bft)
06.08.2016 19:13 14,4 C 14,4 C 88 % 1026,7 hPa 0,0 mm 0,0 km/h (0 Bft) O 95 0 min 0,000 mm 0,0 UV-I 28 W/m 12,4 C 0,0 km/h (0 Bft)
06.08.2016 19:14 14,4 C 14,4 C 88 % 1026,6 hPa 0,0 mm 0,0 km/h (0 Bft) O 95 0 min 0,000 mm 0,0 UV-I 28 W/m 12,4 C 0,0 km/h (0 Bft)
06.08.2016 19:15 14,4 C 14,4 C 87 % 1026,7 hPa 0,0 mm 0,0 km/h (0 Bft) O 95 0 min 0,000 mm 0,0 UV-I 28 W/m 12,3 C 0,0 km/h (0 Bft)
06.08.2016 19:16 14,4 C 14,4 C 88 % 1026,7 hPa 0,0 mm 0,1 km/h (0 Bft) O 95 0 min 0,000 mm 0,0 UV-I 28 W/m 12,4 C 1,6 km/h (1 Bft)
06.08.2016 19:17 14,4 C 14,4 C 88 % 1026,6 hPa 0,0 mm 0,1 km/h (0 Bft) O 95 0 min 0,000 mm 0,0 UV-I 28 W/m 12,4 C 1,6 km/h (1 Bft)
06.08.2016 19:18 14,4 C 14,4 C 88 % 1026,6 hPa 0,0 mm 0,0 km/h (0 Bft) O 95 0 min 0,000 mm 0,0 UV-I 28 W/m 12,4 C 0,0 km/h (0 Bft)
06.08.2016 19:19 14,4 C 14,4 C 88 % 1026,6 hPa 0,0 mm 0,0 km/h (0 Bft) O 95 0 min 0,000 mm 0,0 UV-I 33 W/m 12,4 C 0,0 km/h (0 Bft)
06.08.2016 19:20 14,4 C 14,4 C 88 % 1026,6 hPa 0,0 mm 0,0 km/h (0 Bft) O 95 0 min 0,000 mm 0,0 UV-I 42 W/m 12,4 C 0,0 km/h (0 Bft)
06.08.2016 19:21 14,4 C 14,4 C 88 % 1026,6 hPa 0,0 mm 0,0 km/h (0 Bft) O 95 0 min 0,000 mm 0,0 UV-I 39 W/m 12,4 C 0,0 km/h (0 Bft)
06.08.2016 19:22 14,4 C 14,4 C 88 % 1026,6 hPa 0,0 mm 0,0 km/h (0 Bft) O 95 0 min 0,000 mm 0,0 UV-I 39 W/m 12,4 C 0,0 km/h (0 Bft)
06.08.2016 19:23 14,4 C 14,4 C 88 % 1026,6 hPa 0,0 mm 0,0 km/h (0 Bft) O 95 0 min 0,000 mm 0,0 UV-I 42 W/m 12,4 C 0,0 km/h (0 Bft)
06.08.2016 19:24 14,4 C 14,4 C 87 % 1026,7 hPa 0,0 mm 0,0 km/h (0 Bft) O 95 0 min 0,000 mm 0,0 UV-I 44 W/m 12,3 C 0,0 km/h (0 Bft)
06.08.2016 19:25 14,4 C 14,4 C 88 % 1026,7 hPa 0,0 mm 0,0 km/h (0 Bft) O 95 0 min 0,000 mm 0,0 UV-I 49 W/m 12,4 C 0,0 km/h (0 Bft)
06.08.2016 19:26 14,4 C 14,4 C 88 % 1026,7 hPa 0,0 mm 0,0 km/h (0 Bft) O 95 0 min 0,000 mm 0,0 UV-I 51 W/m 12,4 C 0,0 km/h (0 Bft)
06.08.2016 19:27 14,4 C 14,4 C 87 % 1026,6 hPa 0,0 mm 0,0 km/h (0 Bft) O 95 0 min 0,000 mm 0,0 UV-I 53 W/m 12,3 C 0,0 km/h (0 Bft)
06.08.2016 19:28 14,5 C 14,5 C 87 % 1026,7 hPa 0,0 mm 0,0 km/h (0 Bft) O 95 0 min 0,000 mm 0,0 UV-I 53 W/m 12,4 C 0,0 km/h (0 Bft)
06.08.2016 19:29 14,6 C 14,6 C 88 % 1026,7 hPa 0,0 mm 0,0 km/h (0 Bft) O 95 0 min 0,000 mm 0,0 UV-I 54 W/m 12,6 C 0,0 km/h (0 Bft)
06.08.2016 19:30 14,6 C 14,6 C 88 % 1026,7 hPa 0,0 mm 0,0 km/h (0 Bft) O 95 0 min 0,000 mm 0,0 UV-I 56 W/m 12,6 C 0,0 km/h (0 Bft)
06.08.2016 19:31 14,6 C 14,6 C 88 % 1026,7 hPa 0,0 mm 0,0 km/h (0 Bft) O 95 0 min 0,000 mm 0,0 UV-I 60 W/m 12,6 C 0,0 km/h (0 Bft)
06.08.2016 19:32 14,6 C 14,6 C 88 % 1026,7 hPa 0,0 mm 0,0 km/h (0 Bft) O 95 0 min 0,000 mm 0,0 UV-I 60 W/m 12,6 C 0,0 km/h (0 Bft)
06.08.2016 19:33 14,6 C 14,6 C 89 % 1026,7 hPa 0,0 mm 0,0 km/h (0 Bft) O 95 0 min 0,000 mm 0,0 UV-I 60 W/m 12,8 C 0,0 km/h (0 Bft)
06.08.2016 19:34 14,7 C 14,7 C 88 % 1026,7 hPa 0,0 mm 0,0 km/h (0 Bft) O 95 0 min 0,000 mm 0,0 UV-I 60 W/m 12,7 C 0,0 km/h (0 Bft)
06.08.2016 19:35 14,6 C 14,7 C 88 % 1026,7 hPa 0,0 mm 0,1 km/h (0 Bft) O 95 0 min 0,000 mm 0,0 UV-I 58 W/m 12,6 C 1,6 km/h (1 Bft)
06.08.2016 19:36 14,7 C 14,7 C 88 % 1026,7 hPa 0,0 mm 0,0 km/h (0 Bft) O 95 0 min 0,000 mm 0,0 UV-I 47 W/m 12,7 C 0,0 km/h (0 Bft)
06.08.2016 19:37 14,7 C 14,7 C 88 % 1026,7 hPa 0,0 mm 0,0 km/h (0 Bft) O 95 0 min 0,000 mm 0,0 UV-I 42 W/m 12,7 C 0,0 km/h (0 Bft)
06.08.2016 19:38 14,7 C 14,7 C 88 % 1026,7 hPa 0,0 mm 0,0 km/h (0 Bft) O 95 0 min 0,000 mm 0,0 UV-I 39 W/m 12,7 C 0,0 km/h (0 Bft)
06.08.2016 19:39 14,7 C 14,7 C 87 % 1026,8 hPa 0,0 mm 0,0 km/h (0 Bft) O 95 0 min 0,000 mm 0,0 UV-I 37 W/m 12,6 C 0,0 km/h (0 Bft)
06.08.2016 19:40 14,7 C 14,7 C 88 % 1026,7 hPa 0,0 mm 0,0 km/h (0 Bft) O 95 0 min 0,000 mm 0,0 UV-I 35 W/m 12,7 C 0,0 km/h (0 Bft)
06.08.2016 19:41 14,7 C 14,7 C 88 % 1026,8 hPa 0,0 mm 0,0 km/h (0 Bft) O 95 0 min 0,000 mm 0,0 UV-I 35 W/m 12,7 C 0,0 km/h (0 Bft)
06.08.2016 19:42 14,7 C 14,7 C 89 % 1026,8 hPa 0,0 mm 0,0 km/h (0 Bft) O 95 0 min 0,000 mm 0,0 UV-I 32 W/m 12,9 C 0,0 km/h (0 Bft)
06.08.2016 19:43 14,6 C 14,7 C 87 % 1026,8 hPa 0,0 mm 0,0 km/h (0 Bft) O 95 0 min 0,000 mm 0,0 UV-I 28 W/m 12,5 C 0,0 km/h (0 Bft)
06.08.2016 19:44 14,6 C 14,6 C 87 % 1026,8 hPa 0,0 mm 0,0 km/h (0 Bft) O 95 0 min 0,000 mm 0,0 UV-I 25 W/m 12,5 C 0,0 km/h (0 Bft)
06.08.2016 19:45 14,5 C 14,6 C 88 % 1026,9 hPa 0,0 mm 0,0 km/h (0 Bft) O 95 0 min 0,000 mm 0,0 UV-I 21 W/m 12,5 C 0,0 km/h (0 Bft)
06.08.2016 19:46 14,5 C 14,5 C 87 % 1026,9 hPa 0,0 mm 0,0 km/h (0 Bft) O 95 0 min 0,000 mm 0,0 UV-I 19 W/m 12,4 C 0,0 km/h (0 Bft)
06.08.2016 19:47 14,4 C 14,5 C 87 % 1026,9 hPa 0,0 mm 0,0 km/h (0 Bft) O 95 0 min 0,000 mm 0,0 UV-I 18 W/m 12,3 C 0,0 km/h (0 Bft)
06.08.2016 19:48 14,4 C 14,4 C 88 % 1026,9 hPa 0,0 mm 0,0 km/h (0 Bft) O 95 0 min 0,000 mm 0,0 UV-I 16 W/m 12,4 C 0,0 km/h (0 Bft)
06.08.2016 19:49 14,4 C 14,4 C 88 % 1026,9 hPa 0,0 mm 0,0 km/h (0 Bft) O 95 0 min 0,000 mm 0,0 UV-I 14 W/m 12,4 C 0,0 km/h (0 Bft)
06.08.2016 19:50 14,4 C 14,4 C 89 % 1026,9 hPa 0,0 mm 0,0 km/h (0 Bft) O 95 0 min 0,000 mm 0,0 UV-I 12 W/m 12,6 C 0,0 km/h (0 Bft)
06.08.2016 19:51 14,4 C 14,4 C 88 % 1026,9 hPa 0,0 mm 0,0 km/h (0 Bft) O 95 0 min 0,000 mm 0,0 UV-I 12 W/m 12,4 C 0,0 km/h (0 Bft)
06.08.2016 19:52 14,4 C 14,4 C 88 % 1026,9 hPa 0,0 mm 0,0 km/h (0 Bft) O 95 0 min 0,000 mm 0,0 UV-I 12 W/m 12,4 C 0,0 km/h (0 Bft)
06.08.2016 19:53 14,3 C 14,4 C 89 % 1026,9 hPa 0,0 mm 0,0 km/h (0 Bft) O 95 0 min 0,000 mm 0,0 UV-I 12 W/m 12,5 C 0,0 km/h (0 Bft)
06.08.2016 19:54 14,3 C 14,3 C 88 % 1027,0 hPa 0,0 mm 0,0 km/h (0 Bft) O 95 0 min 0,000 mm 0,0 UV-I 11 W/m 12,3 C 0,0 km/h (0 Bft)
06.08.2016 19:55 14,3 C 14,3 C 88 % 1026,9 hPa 0,0 mm 0,0 km/h (0 Bft) O 95 0 min 0,000 mm 0,0 UV-I 11 W/m 12,3 C 0,0 km/h (0 Bft)
06.08.2016 19:56 14,3 C 14,3 C 89 % 1026,9 hPa 0,0 mm 0,0 km/h (0 Bft) O 95 0 min 0,000 mm 0,0 UV-I 11 W/m 12,5 C 0,0 km/h (0 Bft)
06.08.2016 19:57 14,3 C 14,3 C 89 % 1027,0 hPa 0,0 mm 0,0 km/h (0 Bft) O 95 0 min 0,000 mm 0,0 UV-I 11 W/m 12,5 C 0,0 km/h (0 Bft)
06.08.2016 19:58 14,3 C 14,3 C 88 % 1026,9 hPa 0,0 mm 0,0 km/h (0 Bft) O 95 0 min 0,000 mm 0,0 UV-I 11 W/m 12,3 C 0,0 km/h (0 Bft)
06.08.2016 19:59 14,3 C 14,3 C 88 % 1027,0 hPa 0,0 mm 0,0 km/h (0 Bft) O 95 0 min 0,000 mm 0,0 UV-I 11 W/m 12,3 C 0,0 km/h (0 Bft)
06.08.2016 20:00 14,3 C 14,3 C 89 % 1026,9 hPa 0,0 mm 0,0 km/h (0 Bft) O 95 0 min 0,000 mm 0,0 UV-I 9 W/m 12,5 C 0,0 km/h (0 Bft)
06.08.2016 20:01 14,3 C 14,3 C 88 % 1027,0 hPa 0,0 mm 0,0 km/h (0 Bft) O 95 0 min 0,025 mm 0,0 UV-I 9 W/m 12,3 C 0,0 km/h (0 Bft)
06.08.2016 20:02 14,3 C 14,3 C 89 % 1027,0 hPa 0,0 mm 0,0 km/h (0 Bft) O 95 0 min 0,000 mm 0,0 UV-I 9 W/m 12,5 C 0,0 km/h (0 Bft)
06.08.2016 20:03 14,3 C 14,3 C 89 % 1027,0 hPa 0,0 mm 0,0 km/h (0 Bft) O 95 0 min 0,000 mm 0,0 UV-I 9 W/m 12,5 C 0,0 km/h (0 Bft)
06.08.2016 20:04 14,2 C 14,3 C 89 % 1027,0 hPa 0,0 mm 0,0 km/h (0 Bft) O 95 0 min 0,000 mm 0,0 UV-I 9 W/m 12,4 C 0,0 km/h (0 Bft)
06.08.2016 20:05 14,2 C 14,2 C 89 % 1027,0 hPa 0,0 mm 0,0 km/h (0 Bft) O 95 0 min 0,000 mm 0,0 UV-I 7 W/m 12,4 C 0,0 km/h (0 Bft)
06.08.2016 20:06 14,2 C 14,2 C 89 % 1027,0 hPa 0,0 mm 0,0 km/h (0 Bft) O 95 0 min 0,000 mm 0,0 UV-I 7 W/m 12,4 C 0,0 km/h (0 Bft)
06.08.2016 20:07 14,2 C 14,2 C 89 % 1027,0 hPa 0,0 mm 0,0 km/h (0 Bft) O 95 0 min 0,000 mm 0,0 UV-I 7 W/m 12,4 C 0,0 km/h (0 Bft)
06.08.2016 20:08 14,2 C 14,2 C 89 % 1027,0 hPa 0,0 mm 0,0 km/h (0 Bft) O 95 0 min 0,000 mm 0,0 UV-I 7 W/m 12,4 C 0,0 km/h (0 Bft)
06.08.2016 20:09 14,2 C 14,2 C 89 % 1027,0 hPa 0,0 mm 0,0 km/h (0 Bft) O 95 0 min 0,000 mm 0,0 UV-I 5 W/m 12,4 C 0,0 km/h (0 Bft)
06.08.2016 20:10 14,1 C 14,2 C 89 % 1027,0 hPa 0,0 mm 0,0 km/h (0 Bft) O 95 0 min 0,000 mm 0,0 UV-I 5 W/m 12,3 C 0,0 km/h (0 Bft)
06.08.2016 20:11 14,1 C 14,2 C 89 % 1027,0 hPa 0,0 mm 0,0 km/h (0 Bft) O 95 0 min 0,000 mm 0,0 UV-I 5 W/m 12,3 C 0,0 km/h (0 Bft)
06.08.2016 20:12 14,1 C 14,1 C 89 % 1027,0 hPa 0,0 mm 0,0 km/h (0 Bft) O 95 0 min 0,000 mm 0,0 UV-I 5 W/m 12,3 C 0,0 km/h (0 Bft)
06.08.2016 20:13 14,1 C 14,1 C 88 % 1027,0 hPa 0,0 mm 0,0 km/h (0 Bft) O 95 0 min 0,000 mm 0,0 UV-I 5 W/m 12,1 C 0,0 km/h (0 Bft)
06.08.2016 20:14 14,1 C 14,1 C 89 % 1027,0 hPa 0,0 mm 0,0 km/h (0 Bft) O 95 0 min 0,000 mm 0,0 UV-I 0 W/m 12,3 C 0,0 km/h (0 Bft)
06.08.2016 20:15 14,1 C 14,1 C 89 % 1027,1 hPa 0,0 mm 0,0 km/h (0 Bft) O 95 0 min 0,000 mm 0,0 UV-I 0 W/m 12,3 C 0,0 km/h (0 Bft)
06.08.2016 20:16 14,1 C 14,1 C 89 % 1027,1 hPa 0,0 mm 0,0 km/h (0 Bft) O 95 0 min 0,000 mm 0,0 UV-I 0 W/m 12,3 C 0,0 km/h (0 Bft)
06.08.2016 20:17 14,1 C 14,1 C 89 % 1027,0 hPa 0,0 mm 0,0 km/h (0 Bft) O 95 0 min 0,000 mm 0,0 UV-I 0 W/m 12,3 C 0,0 km/h (0 Bft)
06.08.2016 20:18 14,1 C 14,1 C 89 % 1027,1 hPa 0,0 mm 0,0 km/h (0 Bft) O 95 0 min 0,000 mm 0,0 UV-I 0 W/m 12,3 C 0,0 km/h (0 Bft)
06.08.2016 20:19 14,1 C 14,1 C 88 % 1027,1 hPa 0,0 mm 0,0 km/h (0 Bft) O 95 0 min 0,000 mm 0,0 UV-I 0 W/m 12,1 C 0,0 km/h (0 Bft)
06.08.2016 20:20 14,1 C 14,1 C 88 % 1027,0 hPa 0,0 mm 0,0 km/h (0 Bft) O 95 0 min 0,000 mm 0,0 UV-I 0 W/m 12,1 C 0,0 km/h (0 Bft)
06.08.2016 20:21 14,0 C 14,1 C 88 % 1027,0 hPa 0,0 mm 0,0 km/h (0 Bft) O 95 0 min 0,000 mm 0,0 UV-I 0 W/m 12,0 C 0,0 km/h (0 Bft)
06.08.2016 20:22 14,0 C 14,1 C 88 % 1027,0 hPa 0,0 mm 0,0 km/h (0 Bft) O 95 0 min 0,000 mm 0,0 UV-I 0 W/m 12,0 C 0,0 km/h (0 Bft)
06.08.2016 20:23 14,0 C 14,0 C 88 % 1027,0 hPa 0,0 mm 0,0 km/h (0 Bft) O 95 0 min 0,000 mm 0,0 UV-I 0 W/m 12,0 C 0,0 km/h (0 Bft)
06.08.2016 20:24 14,0 C 14,0 C 88 % 1027,1 hPa 0,0 mm 0,0 km/h (0 Bft) O 95 0 min 0,000 mm 0,0 UV-I 0 W/m 12,0 C 0,0 km/h (0 Bft)
06.08.2016 20:25 14,0 C 14,0 C 88 % 1027,0 hPa 0,0 mm 0,0 km/h (0 Bft) O 95 0 min 0,000 mm 0,0 UV-I 0 W/m 12,0 C 0,0 km/h (0 Bft)
06.08.2016 20:26 14,0 C 14,0 C 88 % 1027,1 hPa 0,0 mm 0,0 km/h (0 Bft) O 95 0 min 0,000 mm 0,0 UV-I 0 W/m 12,0 C 0,0 km/h (0 Bft)
06.08.2016 20:27 14,0 C 14,0 C 88 % 1027,1 hPa 0,0 mm 0,0 km/h (0 Bft) O 95 0 min 0,000 mm 0,0 UV-I 0 W/m 12,0 C 0,0 km/h (0 Bft)
06.08.2016 20:28 14,0 C 14,0 C 88 % 1027,1 hPa 0,0 mm 0,0 km/h (0 Bft) O 95 0 min 0,000 mm 0,0 UV-I 0 W/m 12,0 C 0,0 km/h (0 Bft)
06.08.2016 20:29 14,0 C 14,0 C 88 % 1027,1 hPa 0,0 mm 0,0 km/h (0 Bft) O 95 0 min 0,000 mm 0,0 UV-I 0 W/m 12,0 C 0,0 km/h (0 Bft)
06.08.2016 20:30 14,0 C 14,0 C 88 % 1027,1 hPa 0,0 mm 0,0 km/h (0 Bft) O 95 0 min 0,000 mm 0,0 UV-I 0 W/m 12,0 C 0,0 km/h (0 Bft)
06.08.2016 20:31 14,0 C 14,0 C 88 % 1027,1 hPa 0,0 mm 0,0 km/h (0 Bft) O 95 0 min 0,000 mm 0,0 UV-I 0 W/m 12,0 C 0,0 km/h (0 Bft)
06.08.2016 20:32 14,0 C 14,0 C 88 % 1027,1 hPa 0,0 mm 0,0 km/h (0 Bft) O 95 0 min 0,000 mm 0,0 UV-I 0 W/m 12,0 C 0,0 km/h (0 Bft)
06.08.2016 20:33 14,0 C 14,1 C 89 % 1027,1 hPa 0,0 mm 0,0 km/h (0 Bft) O 95 0 min 0,000 mm 0,0 UV-I 0 W/m 12,2 C 0,0 km/h (0 Bft)
06.08.2016 20:34 13,9 C 14,0 C 89 % 1027,1 hPa 0,0 mm 0,0 km/h (0 Bft) O 95 0 min 0,000 mm 0,0 UV-I 0 W/m 12,1 C 0,0 km/h (0 Bft)
06.08.2016 20:35 13,9 C 14,0 C 89 % 1027,2 hPa 0,0 mm 0,0 km/h (0 Bft) O 95 0 min 0,000 mm 0,0 UV-I 0 W/m 12,1 C 0,0 km/h (0 Bft)
06.08.2016 20:36 13,9 C 14,0 C 89 % 1027,1 hPa 0,0 mm 0,0 km/h (0 Bft) O 95 0 min 0,000 mm 0,0 UV-I 0 W/m 12,1 C 0,0 km/h (0 Bft)
06.08.2016 20:37 13,9 C 14,0 C 89 % 1027,2 hPa 0,0 mm 0,0 km/h (0 Bft) O 95 0 min 0,000 mm 0,0 UV-I 0 W/m 12,1 C 0,0 km/h (0 Bft)
06.08.2016 20:38 13,9 C 13,9 C 89 % 1027,2 hPa 0,0 mm 0,0 km/h (0 Bft) O 95 0 min 0,000 mm 0,0 UV-I 0 W/m 12,1 C 0,0 km/h (0 Bft)
06.08.2016 20:39 13,9 C 14,0 C 89 % 1027,3 hPa 0,0 mm 0,0 km/h (0 Bft) O 95 0 min 0,000 mm 0,0 UV-I 0 W/m 12,1 C 0,0 km/h (0 Bft)
06.08.2016 20:40 14,0 C 14,0 C 88 % 1027,2 hPa 0,0 mm 0,0 km/h (0 Bft) O 95 0 min 0,000 mm 0,0 UV-I 0 W/m 12,0 C 0,0 km/h (0 Bft)
06.08.2016 20:41 14,0 C 14,0 C 89 % 1027,3 hPa 0,0 mm 0,0 km/h (0 Bft) O 95 0 min 0,000 mm 0,0 UV-I 0 W/m 12,2 C 0,0 km/h (0 Bft)
06.08.2016 20:42 14,0 C 14,0 C 88 % 1027,2 hPa 0,0 mm 0,0 km/h (0 Bft) O 95 0 min 0,000 mm 0,0 UV-I 0 W/m 12,0 C 0,0 km/h (0 Bft)
06.08.2016 20:43 14,0 C 14,0 C 88 % 1027,2 hPa 0,0 mm 0,0 km/h (0 Bft) O 95 0 min 0,000 mm 0,0 UV-I 0 W/m 12,0 C 0,0 km/h (0 Bft)
06.08.2016 20:44 14,0 C 14,0 C 88 % 1027,3 hPa 0,0 mm 0,0 km/h (0 Bft) O 95 0 min 0,000 mm 0,0 UV-I 0 W/m 12,0 C 0,0 km/h (0 Bft)
06.08.2016 20:45 14,0 C 14,0 C 87 % 1027,3 hPa 0,0 mm 0,0 km/h (0 Bft) O 95 0 min 0,000 mm 0,0 UV-I 0 W/m 11,9 C 0,0 km/h (0 Bft)
06.08.2016 20:46 14,1 C 14,1 C 88 % 1027,3 hPa 0,0 mm 0,0 km/h (0 Bft) O 95 0 min 0,000 mm 0,0 UV-I 0 W/m 12,1 C 0,0 km/h (0 Bft)
06.08.2016 20:47 14,1 C 14,1 C 88 % 1027,3 hPa 0,0 mm 0,0 km/h (0 Bft) O 95 0 min 0,000 mm 0,0 UV-I 0 W/m 12,1 C 0,0 km/h (0 Bft)
06.08.2016 20:48 14,1 C 14,1 C 88 % 1027,3 hPa 0,0 mm 0,0 km/h (0 Bft) O 95 0 min 0,000 mm 0,0 UV-I 0 W/m 12,1 C 0,0 km/h (0 Bft)
06.08.2016 20:49 14,1 C 14,1 C 89 % 1027,3 hPa 0,0 mm 0,0 km/h (0 Bft) O 95 0 min 0,000 mm 0,0 UV-I 0 W/m 12,3 C 0,0 km/h (0 Bft)
06.08.2016 20:50 14,0 C 14,1 C 88 % 1027,4 hPa 0,0 mm 0,0 km/h (0 Bft) O 95 0 min 0,000 mm 0,0 UV-I 0 W/m 12,0 C 0,0 km/h (0 Bft)
06.08.2016 20:51 14,1 C 14,1 C 88 % 1027,4 hPa 0,0 mm 0,0 km/h (0 Bft) O 95 0 min 0,000 mm 0,0 UV-I 0 W/m 12,1 C 0,0 km/h (0 Bft)
06.08.2016 20:52 14,0 C 14,1 C 88 % 1027,4 hPa 0,0 mm 0,0 km/h (0 Bft) O 95 0 min 0,000 mm 0,0 UV-I 0 W/m 12,0 C 0,0 km/h (0 Bft)
06.08.2016 20:53 14,0 C 14,0 C 88 % 1027,5 hPa 0,0 mm 0,0 km/h (0 Bft) O 95 0 min 0,000 mm 0,0 UV-I 0 W/m 12,0 C 0,0 km/h (0 Bft)
06.08.2016 20:54 14,0 C 14,0 C 88 % 1027,4 hPa 0,0 mm 0,0 km/h (0 Bft) O 95 0 min 0,000 mm 0,0 UV-I 0 W/m 12,0 C 0,0 km/h (0 Bft)
06.08.2016 20:55 13,9 C 14,0 C 89 % 1027,4 hPa 0,0 mm 0,0 km/h (0 Bft) O 95 0 min 0,000 mm 0,0 UV-I 0 W/m 12,1 C 0,0 km/h (0 Bft)
06.08.2016 20:56 13,9 C 13,9 C 90 % 1027,5 hPa 0,0 mm 0,0 km/h (0 Bft) O 95 0 min 0,000 mm 0,0 UV-I 0 W/m 12,3 C 0,0 km/h (0 Bft)
06.08.2016 20:57 13,9 C 13,9 C 90 % 1027,5 hPa 0,0 mm 0,0 km/h (0 Bft) O 95 0 min 0,000 mm 0,0 UV-I 0 W/m 12,3 C 0,0 km/h (0 Bft)
06.08.2016 20:58 13,8 C 13,9 C 90 % 1027,4 hPa 0,0 mm 0,0 km/h (0 Bft) O 95 0 min 0,000 mm 0,0 UV-I 0 W/m 12,2 C 0,0 km/h (0 Bft)
06.08.2016 20:59 13,8 C 13,8 C 90 % 1027,4 hPa 0,0 mm 0,0 km/h (0 Bft) O 95 0 min 0,000 mm 0,0 UV-I 0 W/m 12,2 C 0,0 km/h (0 Bft)
06.08.2016 21:00 13,8 C 13,8 C 89 % 1027,4 hPa 0,0 mm 0,0 km/h (0 Bft) O 95 0 min 0,000 mm 0,0 UV-I 0 W/m 12,0 C 0,0 km/h (0 Bft)
06.08.2016 21:01 13,8 C 13,8 C 89 % 1027,4 hPa 0,0 mm 0,0 km/h (0 Bft) O 95 0 min 0,000 mm 0,0 UV-I 0 W/m 12,0 C 0,0 km/h (0 Bft)
06.08.2016 21:02 13,8 C 13,8 C 89 % 1027,4 hPa 0,0 mm 0,0 km/h (0 Bft) O 95 0 min 0,000 mm 0,0 UV-I 0 W/m 12,0 C 0,0 km/h (0 Bft)
06.08.2016 21:03 13,8 C 13,8 C 89 % 1027,5 hPa 0,0 mm 0,0 km/h (0 Bft) O 95 0 min 0,000 mm 0,0 UV-I 0 W/m 12,0 C 0,0 km/h (0 Bft)
06.08.2016 21:04 13,8 C 13,8 C 89 % 1027,5 hPa 0,0 mm 0,0 km/h (0 Bft) O 95 0 min 0,000 mm 0,0 UV-I 0 W/m 12,0 C 0,0 km/h (0 Bft)
06.08.2016 21:05 13,8 C 13,8 C 89 % 1027,5 hPa 0,0 mm 0,0 km/h (0 Bft) O 95 0 min 0,000 mm 0,0 UV-I 0 W/m 12,0 C 0,0 km/h (0 Bft)
06.08.2016 21:06 13,8 C 13,8 C 89 % 1027,5 hPa 0,0 mm 0,0 km/h (0 Bft) O 95 0 min 0,000 mm 0,0 UV-I 0 W/m 12,0 C 0,0 km/h (0 Bft)
06.08.2016 21:07 13,8 C 13,8 C 89 % 1027,5 hPa 0,0 mm 0,0 km/h (0 Bft) O 95 0 min 0,000 mm 0,0 UV-I 0 W/m 12,0 C 0,0 km/h (0 Bft)
06.08.2016 21:08 13,8 C 13,8 C 89 % 1027,5 hPa 0,0 mm 0,0 km/h (0 Bft) O 95 0 min 0,000 mm 0,0 UV-I 0 W/m 12,0 C 0,0 km/h (0 Bft)
06.08.2016 21:09 13,8 C 13,8 C 89 % 1027,5 hPa 0,0 mm 0,0 km/h (0 Bft) O 95 0 min 0,000 mm 0,0 UV-I 0 W/m 12,0 C 0,0 km/h (0 Bft)
06.08.2016 21:10 13,7 C 13,8 C 90 % 1027,6 hPa 0,0 mm 0,0 km/h (0 Bft) O 95 0 min 0,000 mm 0,0 UV-I 0 W/m 12,1 C 0,0 km/h (0 Bft)
06.08.2016 21:11 13,7 C 13,7 C 89 % 1027,6 hPa 0,0 mm 0,0 km/h (0 Bft) O 95 0 min 0,000 mm 0,0 UV-I 0 W/m 11,9 C 0,0 km/h (0 Bft)
06.08.2016 21:12 13,7 C 13,7 C 89 % 1027,6 hPa 0,0 mm 0,0 km/h (0 Bft) O 95 0 min 0,000 mm 0,0 UV-I 0 W/m 11,9 C 0,0 km/h (0 Bft)
06.08.2016 21:13 13,7 C 13,7 C 90 % 1027,6 hPa 0,0 mm 0,0 km/h (0 Bft) O 95 0 min 0,000 mm 0,0 UV-I 0 W/m 12,1 C 0,0 km/h (0 Bft)
06.08.2016 21:14 13,7 C 13,7 C 90 % 1027,6 hPa 0,0 mm 0,0 km/h (0 Bft) O 95 0 min 0,000 mm 0,0 UV-I 0 W/m 12,1 C 0,0 km/h (0 Bft)
06.08.2016 21:15 13,6 C 13,7 C 90 % 1027,6 hPa 0,0 mm 0,0 km/h (0 Bft) O 95 0 min 0,000 mm 0,0 UV-I 0 W/m 12,0 C 0,0 km/h (0 Bft)
06.08.2016 21:16 13,6 C 13,7 C 90 % 1027,6 hPa 0,0 mm 0,0 km/h (0 Bft) O 95 0 min 0,000 mm 0,0 UV-I 0 W/m 12,0 C 0,0 km/h (0 Bft)
06.08.2016 21:17 13,6 C 13,6 C 90 % 1027,6 hPa 0,0 mm 0,0 km/h (0 Bft) O 95 0 min 0,000 mm 0,0 UV-I 0 W/m 12,0 C 0,0 km/h (0 Bft)
06.08.2016 21:18 13,6 C 13,6 C 91 % 1027,6 hPa 0,0 mm 0,0 km/h (0 Bft) O 95 0 min 0,000 mm 0,0 UV-I 0 W/m 12,2 C 0,0 km/h (0 Bft)
06.08.2016 21:19 13,6 C 13,6 C 91 % 1027,6 hPa 0,0 mm 0,0 km/h (0 Bft) O 95 0 min 0,000 mm 0,0 UV-I 0 W/m 12,2 C 0,0 km/h (0 Bft)
06.08.2016 21:20 13,6 C 13,6 C 91 % 1027,6 hPa 0,0 mm 0,0 km/h (0 Bft) O 95 0 min 0,000 mm 0,0 UV-I 0 W/m 12,2 C 0,0 km/h (0 Bft)
06.08.2016 21:21 13,6 C 13,6 C 91 % 1027,7 hPa 0,0 mm 0,0 km/h (0 Bft) O 95 0 min 0,000 mm 0,0 UV-I 0 W/m 12,2 C 0,0 km/h (0 Bft)
06.08.2016 21:22 13,6 C 13,6 C 90 % 1027,6 hPa 0,0 mm 0,0 km/h (0 Bft) O 95 0 min 0,000 mm 0,0 UV-I 0 W/m 12,0 C 0,0 km/h (0 Bft)
06.08.2016 21:23 13,6 C 13,6 C 90 % 1027,7 hPa 0,0 mm 0,0 km/h (0 Bft) O 95 0 min 0,000 mm 0,0 UV-I 0 W/m 12,0 C 0,0 km/h (0 Bft)
06.08.2016 21:24 13,6 C 13,6 C 90 % 1027,7 hPa 0,0 mm 0,0 km/h (0 Bft) O 95 0 min 0,000 mm 0,0 UV-I 0 W/m 12,0 C 0,0 km/h (0 Bft)
06.08.2016 21:25 13,6 C 13,6 C 90 % 1027,7 hPa 0,0 mm 0,0 km/h (0 Bft) O 95 0 min 0,000 mm 0,0 UV-I 0 W/m 12,0 C 0,0 km/h (0 Bft)
06.08.2016 21:26 13,7 C 13,7 C 90 % 1027,7 hPa 0,0 mm 0,0 km/h (0 Bft) O 95 0 min 0,000 mm 0,0 UV-I 0 W/m 12,1 C 0,0 km/h (0 Bft)
06.08.2016 21:27 13,7 C 13,7 C 90 % 1027,7 hPa 0,0 mm 1,1 km/h (1 Bft) W 277 0 min 0,000 mm 0,0 UV-I 0 W/m 12,1 C 6,4 km/h (2 Bft)
06.08.2016 21:28 13,7 C 13,7 C 90 % 1027,7 hPa 0,0 mm 2,9 km/h (1 Bft) W 275 0 min 0,000 mm 0,0 UV-I 0 W/m 12,1 C 4,8 km/h (1 Bft)
06.08.2016 21:29 13,8 C 13,8 C 90 % 1027,8 hPa 0,0 mm 1,5 km/h (1 Bft) W 275 0 min 0,000 mm 0,0 UV-I 0 W/m 12,2 C 1,6 km/h (1 Bft)
06.08.2016 21:30 13,8 C 13,8 C 89 % 1027,7 hPa 0,0 mm 0,6 km/h (0 Bft) W 275 0 min 0,000 mm 0,0 UV-I 0 W/m 12,0 C 1,6 km/h (1 Bft)
06.08.2016 21:31 13,9 C 13,9 C 89 % 1027,8 hPa 0,0 mm 0,8 km/h (0 Bft) W 275 0 min 0,000 mm 0,0 UV-I 0 W/m 12,1 C 1,6 km/h (1 Bft)
06.08.2016 21:32 13,8 C 13,9 C 90 % 1027,8 hPa 0,0 mm 0,1 km/h (0 Bft) W 275 0 min 0,000 mm 0,0 UV-I 0 W/m 12,2 C 1,6 km/h (1 Bft)
06.08.2016 21:33 13,8 C 13,9 C 90 % 1027,9 hPa 0,0 mm 0,0 km/h (0 Bft) W 275 0 min 0,000 mm 0,0 UV-I 0 W/m 12,2 C 0,0 km/h (0 Bft)
06.08.2016 21:34 13,8 C 13,8 C 90 % 1027,9 hPa 0,0 mm 0,0 km/h (0 Bft) W 275 0 min 0,000 mm 0,0 UV-I 0 W/m 12,2 C 0,0 km/h (0 Bft)
06.08.2016 21:35 13,7 C 13,8 C 90 % 1028,0 hPa 0,0 mm 0,0 km/h (0 Bft) W 275 0 min 0,000 mm 0,0 UV-I 0 W/m 12,1 C 0,0 km/h (0 Bft)
06.08.2016 21:36 13,7 C 13,7 C 91 % 1028,0 hPa 0,0 mm 0,0 km/h (0 Bft) W 275 0 min 0,000 mm 0,0 UV-I 0 W/m 12,3 C 0,0 km/h (0 Bft)
06.08.2016 21:37 13,6 C 13,7 C 91 % 1028,0 hPa 0,0 mm 1,0 km/h (0 Bft) W 281 0 min 0,000 mm 0,0 UV-I 0 W/m 12,2 C 3,2 km/h (1 Bft)
06.08.2016 21:38 13,6 C 13,7 C 91 % 1028,1 hPa 0,0 mm 3,0 km/h (1 Bft) N-NW 333 0 min 0,000 mm 0,0 UV-I 0 W/m 12,2 C 4,8 km/h (1 Bft)
06.08.2016 21:39 13,6 C 13,6 C 91 % 1028,1 hPa 0,0 mm 2,3 km/h (1 Bft) N-NW 333 0 min 0,000 mm 0,0 UV-I 0 W/m 12,2 C 3,2 km/h (1 Bft)
06.08.2016 21:40 13,7 C 13,7 C 91 % 1028,1 hPa 0,0 mm 1,0 km/h (0 Bft) N-NW 333 0 min 0,000 mm 0,0 UV-I 0 W/m 12,3 C 1,6 km/h (1 Bft)
06.08.2016 21:41 13,7 C 13,7 C 91 % 1028,1 hPa 0,0 mm 1,2 km/h (1 Bft) O-NO 60 0 min 0,000 mm 0,0 UV-I 0 W/m 12,3 C 3,2 km/h (1 Bft)
06.08.2016 21:42 13,7 C 13,7 C 91 % 1028,1 hPa 0,0 mm 2,3 km/h (1 Bft) O-NO 60 0 min 0,000 mm 0,0 UV-I 0 W/m 12,3 C 3,2 km/h (1 Bft)
06.08.2016 21:43 13,7 C 13,7 C 91 % 1028,1 hPa 0,0 mm 2,2 km/h (1 Bft) O-NO 63 0 min 0,000 mm 0,0 UV-I 0 W/m 12,3 C 3,2 km/h (1 Bft)
06.08.2016 21:44 13,7 C 13,7 C 91 % 1028,1 hPa 0,0 mm 2,7 km/h (1 Bft) O-NO 64 0 min 0,000 mm 0,0 UV-I 0 W/m 12,3 C 3,2 km/h (1 Bft)
06.08.2016 21:45 13,7 C 13,7 C 91 % 1028,1 hPa 0,0 mm 2,9 km/h (1 Bft) O-NO 71 0 min 0,000 mm 0,0 UV-I 0 W/m 12,3 C 4,8 km/h (1 Bft)
06.08.2016 21:46 13,6 C 13,7 C 91 % 1028,1 hPa 0,0 mm 2,1 km/h (1 Bft) O-NO 71 0 min 0,000 mm 0,0 UV-I 0 W/m 12,2 C 3,2 km/h (1 Bft)
06.08.2016 21:47 13,6 C 13,6 C 91 % 1028,1 hPa 0,0 mm 2,2 km/h (1 Bft) O 101 0 min 0,000 mm 0,0 UV-I 0 W/m 12,2 C 3,2 km/h (1 Bft)
06.08.2016 21:48 13,6 C 13,6 C 91 % 1028,1 hPa 0,0 mm 3,1 km/h (1 Bft) S-SO 148 0 min 0,000 mm 0,0 UV-I 0 W/m 12,2 C 3,2 km/h (1 Bft)
06.08.2016 21:49 13,6 C 13,6 C 91 % 1028,1 hPa 0,0 mm 3,9 km/h (1 Bft) S-SO 161 0 min 0,000 mm 0,0 UV-I 0 W/m 12,2 C 6,4 km/h (2 Bft)
06.08.2016 21:50 13,6 C 13,6 C 91 % 1028,1 hPa 0,0 mm 2,9 km/h (1 Bft) S 171 0 min 0,000 mm 0,0 UV-I 0 W/m 12,2 C 6,4 km/h (2 Bft)
06.08.2016 21:51 13,6 C 13,6 C 90 % 1028,1 hPa 0,0 mm 3,3 km/h (1 Bft) S 180 0 min 0,000 mm 0,0 UV-I 0 W/m 12,0 C 4,8 km/h (1 Bft)
06.08.2016 21:52 13,7 C 13,7 C 90 % 1028,1 hPa 0,0 mm 2,4 km/h (1 Bft) S 180 0 min 0,000 mm 0,0 UV-I 0 W/m 12,1 C 4,8 km/h (1 Bft)
06.08.2016 21:53 13,7 C 13,7 C 90 % 1028,1 hPa 0,0 mm 1,0 km/h (0 Bft) S 180 0 min 0,000 mm 0,0 UV-I 0 W/m 12,1 C 3,2 km/h (1 Bft)
06.08.2016 21:54 13,7 C 13,7 C 90 % 1028,1 hPa 0,0 mm 1,1 km/h (1 Bft) W-SW 253 0 min 0,000 mm 0,0 UV-I 0 W/m 12,1 C 3,2 km/h (1 Bft)
06.08.2016 21:55 13,7 C 13,7 C 90 % 1028,1 hPa 0,0 mm 1,8 km/h (1 Bft) W-SW 254 0 min 0,000 mm 0,0 UV-I 0 W/m 12,1 C 3,2 km/h (1 Bft)
06.08.2016 21:56 13,7 C 13,7 C 90 % 1028,1 hPa 0,0 mm 0,9 km/h (0 Bft) W-SW 254 0 min 0,000 mm 0,0 UV-I 0 W/m 12,1 C 1,6 km/h (1 Bft)
06.08.2016 21:57 13,7 C 13,7 C 90 % 1028,1 hPa 0,0 mm 0,8 km/h (0 Bft) W-SW 254 0 min 0,000 mm 0,0 UV-I 0 W/m 12,1 C 1,6 km/h (1 Bft)
06.08.2016 21:58 13,7 C 13,7 C 90 % 1028,0 hPa 0,0 mm 0,4 km/h (0 Bft) W-SW 254 0 min 0,000 mm 0,0 UV-I 0 W/m 12,1 C 1,6 km/h (1 Bft)
06.08.2016 21:59 13,6 C 13,7 C 90 % 1028,0 hPa 0,0 mm 0,0 km/h (0 Bft) W-SW 254 0 min 0,000 mm 0,0 UV-I 0 W/m 12,0 C 0,0 km/h (0 Bft)
06.08.2016 22:00 13,6 C 13,6 C 91 % 1028,1 hPa 0,0 mm 0,0 km/h (0 Bft) W-SW 254 0 min 0,000 mm 0,0 UV-I 0 W/m 12,2 C 0,0 km/h (0 Bft)
06.08.2016 22:01 13,6 C 13,6 C 91 % 1028,1 hPa 0,0 mm 0,0 km/h (0 Bft) W-SW 254 0 min 0,000 mm 0,0 UV-I 0 W/m 12,2 C 0,0 km/h (0 Bft)
06.08.2016 22:02 13,6 C 13,6 C 91 % 1028,1 hPa 0,0 mm 0,3 km/h (0 Bft) W-SW 254 0 min 0,000 mm 0,0 UV-I 0 W/m 12,2 C 1,6 km/h (1 Bft)
06.08.2016 22:03 13,5 C 13,6 C 91 % 1028,1 hPa 0,0 mm 0,2 km/h (0 Bft) W-SW 254 0 min 0,000 mm 0,0 UV-I 0 W/m 12,1 C 1,6 km/h (1 Bft)
06.08.2016 22:04 13,5 C 13,5 C 91 % 1028,1 hPa 0,0 mm 0,0 km/h (0 Bft) W-SW 254 0 min 0,000 mm 0,0 UV-I 0 W/m 12,1 C 0,0 km/h (0 Bft)
06.08.2016 22:05 13,5 C 13,5 C 90 % 1028,1 hPa 0,0 mm 0,5 km/h (0 Bft) W-SW 254 0 min 0,000 mm 0,0 UV-I 0 W/m 11,9 C 1,6 km/h (1 Bft)
06.08.2016 22:06 13,4 C 13,5 C 91 % 1028,1 hPa 0,0 mm 0,1 km/h (0 Bft) W-SW 254 0 min 0,000 mm 0,0 UV-I 0 W/m 12,0 C 1,6 km/h (1 Bft)
06.08.2016 22:07 13,4 C 13,5 C 91 % 1028,1 hPa 0,0 mm 0,0 km/h (0 Bft) W-SW 254 0 min 0,000 mm 0,0 UV-I 0 W/m 12,0 C 0,0 km/h (0 Bft)
06.08.2016 22:08 13,4 C 13,4 C 92 % 1028,1 hPa 0,0 mm 0,1 km/h (0 Bft) W-SW 254 0 min 0,000 mm 0,0 UV-I 0 W/m 12,1 C 1,6 km/h (1 Bft)
06.08.2016 22:09 13,3 C 13,4 C 92 % 1028,1 hPa 0,0 mm 0,0 km/h (0 Bft) W-SW 254 0 min 0,000 mm 0,0 UV-I 0 W/m 12,0 C 0,0 km/h (0 Bft)
06.08.2016 22:10 13,3 C 13,3 C 92 % 1028,2 hPa 0,0 mm 0,0 km/h (0 Bft) W-SW 254 0 min 0,000 mm 0,0 UV-I 0 W/m 12,0 C 0,0 km/h (0 Bft)
06.08.2016 22:11 13,3 C 13,3 C 92 % 1028,2 hPa 0,0 mm 0,0 km/h (0 Bft) W-SW 254 0 min 0,000 mm 0,0 UV-I 0 W/m 12,0 C 0,0 km/h (0 Bft)
06.08.2016 22:12 13,3 C 13,3 C 92 % 1028,1 hPa 0,0 mm 0,0 km/h (0 Bft) W-SW 254 0 min 0,000 mm 0,0 UV-I 0 W/m 12,0 C 0,0 km/h (0 Bft)
06.08.2016 22:13 13,2 C 13,3 C 92 % 1028,2 hPa 0,0 mm 0,0 km/h (0 Bft) W-SW 254 0 min 0,000 mm 0,0 UV-I 0 W/m 11,9 C 0,0 km/h (0 Bft)
06.08.2016 22:14 13,2 C 13,2 C 92 % 1028,1 hPa 0,0 mm 0,0 km/h (0 Bft) W-SW 254 0 min 0,000 mm 0,0 UV-I 0 W/m 11,9 C 0,0 km/h (0 Bft)
06.08.2016 22:15 13,2 C 13,2 C 92 % 1028,2 hPa 0,0 mm 0,0 km/h (0 Bft) W-SW 254 0 min 0,000 mm 0,0 UV-I 0 W/m 11,9 C 0,0 km/h (0 Bft)
06.08.2016 22:16 13,2 C 13,2 C 92 % 1028,2 hPa 0,0 mm 0,0 km/h (0 Bft) W-SW 254 0 min 0,000 mm 0,0 UV-I 0 W/m 11,9 C 0,0 km/h (0 Bft)
06.08.2016 22:17 13,2 C 13,2 C 93 % 1028,2 hPa 0,0 mm 0,0 km/h (0 Bft) W-SW 254 0 min 0,000 mm 0,0 UV-I 0 W/m 12,1 C 0,0 km/h (0 Bft)
06.08.2016 22:18 13,2 C 13,2 C 93 % 1028,2 hPa 0,0 mm 0,0 km/h (0 Bft) W-SW 254 0 min 0,000 mm 0,0 UV-I 0 W/m 12,1 C 0,0 km/h (0 Bft)
06.08.2016 22:19 13,2 C 13,2 C 93 % 1028,2 hPa 0,0 mm 0,0 km/h (0 Bft) W-SW 254 0 min 0,000 mm 0,0 UV-I 0 W/m 12,1 C 0,0 km/h (0 Bft)
06.08.2016 22:20 13,2 C 13,2 C 93 % 1028,2 hPa 0,0 mm 0,0 km/h (0 Bft) W-SW 254 0 min 0,000 mm 0,0 UV-I 0 W/m 12,1 C 0,0 km/h (0 Bft)
06.08.2016 22:21 13,2 C 13,2 C 93 % 1028,2 hPa 0,0 mm 0,0 km/h (0 Bft) W-SW 254 0 min 0,000 mm 0,0 UV-I 0 W/m 12,1 C 0,0 km/h (0 Bft)
06.08.2016 22:22 13,2 C 13,2 C 93 % 1028,2 hPa 0,0 mm 0,3 km/h (0 Bft) W-SW 254 0 min 0,000 mm 0,0 UV-I 0 W/m 12,1 C 1,6 km/h (1 Bft)
06.08.2016 22:23 13,2 C 13,2 C 93 % 1028,2 hPa 0,0 mm 0,0 km/h (0 Bft) W-SW 254 0 min 0,000 mm 0,0 UV-I 0 W/m 12,1 C 0,0 km/h (0 Bft)
06.08.2016 22:24 13,2 C 13,2 C 93 % 1028,2 hPa 0,0 mm 1,1 km/h (1 Bft) W-SW 254 0 min 0,000 mm 0,0 UV-I 0 W/m 12,1 C 1,6 km/h (1 Bft)
06.08.2016 22:25 13,2 C 13,2 C 93 % 1028,2 hPa 0,0 mm 0,9 km/h (0 Bft) W-SW 254 0 min 0,000 mm 0,0 UV-I 0 W/m 12,1 C 1,6 km/h (1 Bft)
06.08.2016 22:26 13,2 C 13,2 C 92 % 1028,2 hPa 0,0 mm 0,0 km/h (0 Bft) W-SW 254 0 min 0,000 mm 0,0 UV-I 0 W/m 11,9 C 0,0 km/h (0 Bft)
06.08.2016 22:27 13,2 C 13,2 C 92 % 1028,2 hPa 0,0 mm 1,5 km/h (1 Bft) W-SW 253 0 min 0,000 mm 0,0 UV-I 0 W/m 11,9 C 3,2 km/h (1 Bft)
06.08.2016 22:28 13,2 C 13,2 C 92 % 1028,2 hPa 0,0 mm 1,2 km/h (1 Bft) W-SW 246 0 min 0,000 mm 0,0 UV-I 0 W/m 11,9 C 1,6 km/h (1 Bft)
06.08.2016 22:29 13,2 C 13,3 C 92 % 1028,2 hPa 0,0 mm 0,4 km/h (0 Bft) W-SW 246 0 min 0,000 mm 0,0 UV-I 0 W/m 11,9 C 1,6 km/h (1 Bft)
06.08.2016 22:30 13,3 C 13,3 C 92 % 1028,2 hPa 0,0 mm 1,3 km/h (1 Bft) W-SW 246 0 min 0,000 mm 0,0 UV-I 0 W/m 12,0 C 3,2 km/h (1 Bft)
06.08.2016 22:31 13,2 C 13,3 C 92 % 1028,2 hPa 0,0 mm 1,0 km/h (0 Bft) N-NW 341 0 min 0,000 mm 0,0 UV-I 0 W/m 11,9 C 3,2 km/h (1 Bft)
06.08.2016 22:32 13,3 C 13,3 C 92 % 1028,3 hPa 0,0 mm 1,2 km/h (1 Bft) N 355 0 min 0,000 mm 0,0 UV-I 0 W/m 12,0 C 4,8 km/h (1 Bft)
06.08.2016 22:33 13,2 C 13,3 C 92 % 1028,2 hPa 0,0 mm 0,1 km/h (0 Bft) N 355 0 min 0,000 mm 0,0 UV-I 0 W/m 11,9 C 1,6 km/h (1 Bft)
06.08.2016 22:34 13,3 C 13,3 C 92 % 1028,2 hPa 0,0 mm 0,5 km/h (0 Bft) N 355 0 min 0,000 mm 0,0 UV-I 0 W/m 12,0 C 1,6 km/h (1 Bft)
06.08.2016 22:35 13,2 C 13,3 C 92 % 1028,2 hPa 0,0 mm 0,5 km/h (0 Bft) N 355 0 min 0,000 mm 0,0 UV-I 0 W/m 11,9 C 1,6 km/h (1 Bft)
06.08.2016 22:36 13,2 C 13,2 C 92 % 1028,2 hPa 0,0 mm 0,0 km/h (0 Bft) N 355 0 min 0,000 mm 0,0 UV-I 0 W/m 11,9 C 0,0 km/h (0 Bft)
06.08.2016 22:37 13,2 C 13,2 C 92 % 1028,2 hPa 0,0 mm 0,1 km/h (0 Bft) N 355 0 min 0,000 mm 0,0 UV-I 0 W/m 11,9 C 1,6 km/h (1 Bft)
06.08.2016 22:38 13,2 C 13,2 C 92 % 1028,2 hPa 0,0 mm 0,0 km/h (0 Bft) N 355 0 min 0,000 mm 0,0 UV-I 0 W/m 11,9 C 0,0 km/h (0 Bft)
06.08.2016 22:39 13,2 C 13,2 C 92 % 1028,2 hPa 0,0 mm 1,0 km/h (0 Bft) N 355 0 min 0,000 mm 0,0 UV-I 0 W/m 11,9 C 1,6 km/h (1 Bft)
06.08.2016 22:40 13,2 C 13,2 C 92 % 1028,2 hPa 0,0 mm 0,1 km/h (0 Bft) N 355 0 min 0,000 mm 0,0 UV-I 0 W/m 11,9 C 1,6 km/h (1 Bft)
06.08.2016 22:41 13,2 C 13,2 C 92 % 1028,2 hPa 0,0 mm 0,3 km/h (0 Bft) N 355 0 min 0,000 mm 0,0 UV-I 0 W/m 11,9 C 1,6 km/h (1 Bft)
06.08.2016 22:42 13,1 C 13,2 C 92 % 1028,2 hPa 0,0 mm 1,3 km/h (1 Bft) N 355 0 min 0,000 mm 0,0 UV-I 0 W/m 11,8 C 3,2 km/h (1 Bft)
06.08.2016 22:43 13,2 C 13,2 C 92 % 1028,2 hPa 0,0 mm 0,0 km/h (0 Bft) N 355 0 min 0,000 mm 0,0 UV-I 0 W/m 11,9 C 0,0 km/h (0 Bft)
06.08.2016 22:44 13,1 C 13,2 C 92 % 1028,2 hPa 0,0 mm 0,0 km/h (0 Bft) N 355 0 min 0,000 mm 0,0 UV-I 0 W/m 11,8 C 0,0 km/h (0 Bft)
06.08.2016 22:45 13,1 C 13,2 C 92 % 1028,2 hPa 0,0 mm 0,1 km/h (0 Bft) N 355 0 min 0,000 mm 0,0 UV-I 0 W/m 11,8 C 1,6 km/h (1 Bft)
06.08.2016 22:46 13,1 C 13,2 C 92 % 1028,2 hPa 0,0 mm 1,3 km/h (1 Bft) N 360 0 min 0,000 mm 0,0 UV-I 0 W/m 11,8 C 1,6 km/h (1 Bft)
06.08.2016 22:47 13,1 C 13,1 C 92 % 1028,2 hPa 0,0 mm 0,3 km/h (0 Bft) N 360 0 min 0,000 mm 0,0 UV-I 0 W/m 11,8 C 1,6 km/h (1 Bft)
06.08.2016 22:48 13,1 C 13,1 C 92 % 1028,2 hPa 0,0 mm 1,1 km/h (1 Bft) W-NW 292 0 min 0,000 mm 0,0 UV-I 0 W/m 11,8 C 3,2 km/h (1 Bft)
06.08.2016 22:49 13,1 C 13,2 C 92 % 1028,2 hPa 0,0 mm 2,5 km/h (1 Bft) S-SO 158 0 min 0,000 mm 0,0 UV-I 0 W/m 11,8 C 3,2 km/h (1 Bft)
06.08.2016 22:50 13,2 C 13,2 C 92 % 1028,2 hPa 0,0 mm 1,3 km/h (1 Bft) S-SO 163 0 min 0,000 mm 0,0 UV-I 0 W/m 11,9 C 3,2 km/h (1 Bft)
06.08.2016 22:51 13,2 C 13,2 C 92 % 1028,2 hPa 0,0 mm 0,3 km/h (0 Bft) S-SO 163 0 min 0,000 mm 0,0 UV-I 0 W/m 11,9 C 1,6 km/h (1 Bft)
06.08.2016 22:52 13,2 C 13,2 C 92 % 1028,2 hPa 0,0 mm 1,3 km/h (1 Bft) S-SO 163 0 min 0,000 mm 0,0 UV-I 0 W/m 11,9 C 3,2 km/h (1 Bft)
06.08.2016 22:53 13,2 C 13,2 C 92 % 1028,1 hPa 0,0 mm 0,5 km/h (0 Bft) S-SO 163 0 min 0,000 mm 0,0 UV-I 0 W/m 11,9 C 1,6 km/h (1 Bft)
06.08.2016 22:54 13,1 C 13,2 C 92 % 1028,1 hPa 0,0 mm 0,3 km/h (0 Bft) SO 133 0 min 0,000 mm 0,0 UV-I 0 W/m 11,8 C 1,6 km/h (1 Bft)
06.08.2016 22:55 13,1 C 13,2 C 92 % 1028,2 hPa 0,0 mm 2,5 km/h (1 Bft) S 187 0 min 0,000 mm 0,0 UV-I 0 W/m 11,8 C 4,8 km/h (1 Bft)
06.08.2016 22:56 13,1 C 13,1 C 92 % 1028,2 hPa 0,0 mm 0,5 km/h (0 Bft) S 187 0 min 0,000 mm 0,0 UV-I 0 W/m 11,8 C 1,6 km/h (1 Bft)
06.08.2016 22:57 13,1 C 13,1 C 91 % 1028,1 hPa 0,0 mm 0,7 km/h (0 Bft) S 187 0 min 0,000 mm 0,0 UV-I 0 W/m 11,7 C 1,6 km/h (1 Bft)
06.08.2016 22:58 13,1 C 13,1 C 91 % 1028,2 hPa 0,0 mm 0,2 km/h (0 Bft) S 187 0 min 0,000 mm 0,0 UV-I 0 W/m 11,7 C 1,6 km/h (1 Bft)
06.08.2016 22:59 13,2 C 13,2 C 92 % 1028,1 hPa 0,0 mm 0,9 km/h (0 Bft) SW 223 0 min 0,000 mm 0,0 UV-I 0 W/m 11,9 C 1,6 km/h (1 Bft)
06.08.2016 23:00 13,1 C 13,2 C 92 % 1028,2 hPa 0,0 mm 0,6 km/h (0 Bft) SW 223 0 min 0,000 mm 0,0 UV-I 0 W/m 11,8 C 1,6 km/h (1 Bft)
06.08.2016 23:01 13,1 C 13,1 C 92 % 1028,1 hPa 0,0 mm 0,0 km/h (0 Bft) SW 223 0 min 0,000 mm 0,0 UV-I 0 W/m 11,8 C 0,0 km/h (0 Bft)
06.08.2016 23:02 13,1 C 13,1 C 92 % 1028,1 hPa 0,0 mm 0,0 km/h (0 Bft) SW 223 0 min 0,000 mm 0,0 UV-I 0 W/m 11,8 C 0,0 km/h (0 Bft)
06.08.2016 23:03 13,1 C 13,1 C 92 % 1028,2 hPa 0,0 mm 2,2 km/h (1 Bft) SO 130 0 min 0,000 mm 0,0 UV-I 0 W/m 11,8 C 4,8 km/h (1 Bft)
06.08.2016 23:04 13,1 C 13,1 C 92 % 1028,2 hPa 0,0 mm 1,0 km/h (0 Bft) SO 130 0 min 0,000 mm 0,0 UV-I 0 W/m 11,8 C 3,2 km/h (1 Bft)
06.08.2016 23:05 13,1 C 13,1 C 92 % 1028,2 hPa 0,0 mm 0,5 km/h (0 Bft) SO 130 0 min 0,000 mm 0,0 UV-I 0 W/m 11,8 C 1,6 km/h (1 Bft)
06.08.2016 23:06 13,0 C 13,1 C 92 % 1028,2 hPa 0,0 mm 0,2 km/h (0 Bft) O-SO 110 0 min 0,000 mm 0,0 UV-I 0 W/m 11,7 C 1,6 km/h (1 Bft)
06.08.2016 23:07 13,1 C 13,1 C 92 % 1028,2 hPa 0,0 mm 1,3 km/h (1 Bft) O-NO 73 0 min 0,000 mm 0,0 UV-I 0 W/m 11,8 C 1,6 km/h (1 Bft)
06.08.2016 23:08 13,0 C 13,1 C 92 % 1028,2 hPa 0,0 mm 0,4 km/h (0 Bft) O-NO 73 0 min 0,000 mm 0,0 UV-I 0 W/m 11,7 C 1,6 km/h (1 Bft)
06.08.2016 23:09 12,9 C 13,0 C 92 % 1028,2 hPa 0,0 mm 1,3 km/h (1 Bft) O-NO 73 0 min 0,000 mm 0,0 UV-I 0 W/m 11,6 C 3,2 km/h (1 Bft)
06.08.2016 23:10 12,9 C 13,0 C 92 % 1028,2 hPa 0,0 mm 0,6 km/h (0 Bft) O-NO 73 0 min 0,000 mm 0,0 UV-I 0 W/m 11,6 C 1,6 km/h (1 Bft)
06.08.2016 23:11 12,9 C 12,9 C 92 % 1028,2 hPa 0,0 mm 1,7 km/h (1 Bft) O 81 0 min 0,000 mm 0,0 UV-I 0 W/m 11,6 C 4,8 km/h (1 Bft)
06.08.2016 23:12 12,9 C 12,9 C 92 % 1028,2 hPa 0,0 mm 1,7 km/h (1 Bft) O 88 0 min 0,000 mm 0,0 UV-I 0 W/m 11,6 C 3,2 km/h (1 Bft)
06.08.2016 23:13 13,0 C 13,0 C 92 % 1028,2 hPa 0,0 mm 0,9 km/h (0 Bft) O 88 0 min 0,000 mm 0,0 UV-I 0 W/m 11,7 C 1,6 km/h (1 Bft)
06.08.2016 23:14 13,0 C 13,0 C 92 % 1028,1 hPa 0,0 mm 1,3 km/h (1 Bft) N-NW 331 0 min 0,000 mm 0,0 UV-I 0 W/m 11,7 C 3,2 km/h (1 Bft)
06.08.2016 23:15 13,0 C 13,0 C 92 % 1028,1 hPa 0,0 mm 0,5 km/h (0 Bft) N-NW 331 0 min 0,000 mm 0,0 UV-I 0 W/m 11,7 C 1,6 km/h (1 Bft)
06.08.2016 23:16 13,0 C 13,0 C 92 % 1028,2 hPa 0,0 mm 0,1 km/h (0 Bft) N-NW 331 0 min 0,000 mm 0,0 UV-I 0 W/m 11,7 C 1,6 km/h (1 Bft)
06.08.2016 23:17 13,0 C 13,0 C 92 % 1028,2 hPa 0,0 mm 0,1 km/h (0 Bft) N-NW 331 0 min 0,000 mm 0,0 UV-I 0 W/m 11,7 C 1,6 km/h (1 Bft)
06.08.2016 23:18 13,0 C 13,0 C 92 % 1028,2 hPa 0,0 mm 0,6 km/h (0 Bft) N-NW 331 0 min 0,000 mm 0,0 UV-I 0 W/m 11,7 C 1,6 km/h (1 Bft)
06.08.2016 23:19 13,0 C 13,1 C 92 % 1028,2 hPa 0,0 mm 0,3 km/h (0 Bft) N-NW 331 0 min 0,000 mm 0,0 UV-I 0 W/m 11,7 C 1,6 km/h (1 Bft)
06.08.2016 23:20 13,0 C 13,0 C 92 % 1028,2 hPa 0,0 mm 2,0 km/h (1 Bft) NW 319 0 min 0,000 mm 0,0 UV-I 0 W/m 11,7 C 3,2 km/h (1 Bft)
06.08.2016 23:21 13,1 C 13,1 C 92 % 1028,1 hPa 0,0 mm 1,0 km/h (0 Bft) NW 319 0 min 0,000 mm 0,0 UV-I 0 W/m 11,8 C 3,2 km/h (1 Bft)
06.08.2016 23:22 13,1 C 13,1 C 92 % 1028,2 hPa 0,0 mm 0,1 km/h (0 Bft) NW 319 0 min 0,000 mm 0,0 UV-I 0 W/m 11,8 C 1,6 km/h (1 Bft)
06.08.2016 23:23 13,1 C 13,1 C 92 % 1028,2 hPa 0,0 mm 0,0 km/h (0 Bft) NW 319 0 min 0,000 mm 0,0 UV-I 0 W/m 11,8 C 0,0 km/h (0 Bft)
06.08.2016 23:24 13,1 C 13,1 C 92 % 1028,2 hPa 0,0 mm 0,3 km/h (0 Bft) NW 319 0 min 0,000 mm 0,0 UV-I 0 W/m 11,8 C 1,6 km/h (1 Bft)
06.08.2016 23:25 13,1 C 13,1 C 92 % 1028,3 hPa 0,0 mm 1,4 km/h (1 Bft) NW 319 0 min 0,000 mm 0,0 UV-I 0 W/m 11,8 C 3,2 km/h (1 Bft)
06.08.2016 23:26 13,1 C 13,1 C 92 % 1028,3 hPa 0,0 mm 1,1 km/h (1 Bft) NW 319 0 min 0,000 mm 0,0 UV-I 0 W/m 11,8 C 3,2 km/h (1 Bft)
06.08.2016 23:27 13,1 C 13,1 C 92 % 1028,3 hPa 0,0 mm 2,0 km/h (1 Bft) NW 319 0 min 0,000 mm 0,0 UV-I 0 W/m 11,8 C 3,2 km/h (1 Bft)
06.08.2016 23:28 13,1 C 13,1 C 92 % 1028,3 hPa 0,0 mm 0,9 km/h (0 Bft) NW 319 0 min 0,000 mm 0,0 UV-I 0 W/m 11,8 C 1,6 km/h (1 Bft)
06.08.2016 23:29 13,1 C 13,1 C 92 % 1028,3 hPa 0,0 mm 0,0 km/h (0 Bft) NW 319 0 min 0,000 mm 0,0 UV-I 0 W/m 11,8 C 0,0 km/h (0 Bft)
06.08.2016 23:30 13,1 C 13,1 C 92 % 1028,3 hPa 0,0 mm 0,0 km/h (0 Bft) NW 319 0 min 0,000 mm 0,0 UV-I 0 W/m 11,8 C 0,0 km/h (0 Bft)
06.08.2016 23:31 13,2 C 13,2 C 92 % 1028,4 hPa 0,0 mm 0,0 km/h (0 Bft) NW 319 0 min 0,000 mm 0,0 UV-I 0 W/m 11,9 C 0,0 km/h (0 Bft)
06.08.2016 23:32 13,1 C 13,2 C 92 % 1028,4 hPa 0,0 mm 0,0 km/h (0 Bft) NW 319 0 min 0,000 mm 0,0 UV-I 0 W/m 11,8 C 0,0 km/h (0 Bft)
06.08.2016 23:33 13,1 C 13,2 C 92 % 1028,4 hPa 0,0 mm 0,1 km/h (0 Bft) NW 319 0 min 0,000 mm 0,0 UV-I 0 W/m 11,8 C 1,6 km/h (1 Bft)
06.08.2016 23:34 13,1 C 13,2 C 92 % 1028,4 hPa 0,0 mm 0,7 km/h (0 Bft) W 268 0 min 0,000 mm 0,0 UV-I 0 W/m 11,8 C 3,2 km/h (1 Bft)
06.08.2016 23:35 13,2 C 13,2 C 91 % 1028,4 hPa 0,0 mm 1,9 km/h (1 Bft) W-SW 239 0 min 0,000 mm 0,0 UV-I 0 W/m 11,8 C 3,2 km/h (1 Bft)
06.08.2016 23:36 13,2 C 13,2 C 91 % 1028,4 hPa 0,0 mm 1,4 km/h (1 Bft) S-SW 194 0 min 0,000 mm 0,0 UV-I 0 W/m 11,8 C 4,8 km/h (1 Bft)
06.08.2016 23:37 13,2 C 13,2 C 91 % 1028,4 hPa 0,0 mm 1,6 km/h (1 Bft) S 191 0 min 0,000 mm 0,0 UV-I 0 W/m 11,8 C 3,2 km/h (1 Bft)
06.08.2016 23:38 13,2 C 13,2 C 91 % 1028,5 hPa 0,0 mm 2,1 km/h (1 Bft) S-SO 156 0 min 0,000 mm 0,0 UV-I 0 W/m 11,8 C 4,8 km/h (1 Bft)
06.08.2016 23:39 13,2 C 13,2 C 91 % 1028,4 hPa 0,0 mm 2,5 km/h (1 Bft) S 191 0 min 0,000 mm 0,0 UV-I 0 W/m 11,8 C 3,2 km/h (1 Bft)
06.08.2016 23:40 13,2 C 13,3 C 90 % 1028,4 hPa 0,0 mm 0,2 km/h (0 Bft) S 191 0 min 0,000 mm 0,0 UV-I 0 W/m 11,6 C 1,6 km/h (1 Bft)
06.08.2016 23:41 13,3 C 13,3 C 91 % 1028,4 hPa 0,0 mm 0,2 km/h (0 Bft) S 191 0 min 0,000 mm 0,0 UV-I 0 W/m 11,9 C 1,6 km/h (1 Bft)
06.08.2016 23:42 13,3 C 13,3 C 91 % 1028,4 hPa 0,0 mm 0,0 km/h (0 Bft) S 191 0 min 0,000 mm 0,0 UV-I 0 W/m 11,9 C 0,0 km/h (0 Bft)
06.08.2016 23:43 13,2 C 13,3 C 91 % 1028,4 hPa 0,0 mm 0,0 km/h (0 Bft) S 191 0 min 0,000 mm 0,0 UV-I 0 W/m 11,8 C 0,0 km/h (0 Bft)
06.08.2016 23:44 13,2 C 13,2 C 91 % 1028,5 hPa 0,0 mm 0,0 km/h (0 Bft) S 191 0 min 0,000 mm 0,0 UV-I 0 W/m 11,8 C 0,0 km/h (0 Bft)
06.08.2016 23:45 13,2 C 13,2 C 91 % 1028,5 hPa 0,0 mm 0,0 km/h (0 Bft) S 191 0 min 0,000 mm 0,0 UV-I 0 W/m 11,8 C 0,0 km/h (0 Bft)
06.08.2016 23:46 13,2 C 13,2 C 91 % 1028,5 hPa 0,0 mm 0,0 km/h (0 Bft) S-SW 192 0 min 0,000 mm 0,0 UV-I 0 W/m 11,8 C 0,0 km/h (0 Bft)
06.08.2016 23:47 13,2 C 13,2 C 91 % 1028,5 hPa 0,2 mm 0,0 km/h (0 Bft) S-SW 192 0 min 0,000 mm 0,0 UV-I 0 W/m 11,8 C 0,0 km/h (0 Bft)
06.08.2016 23:48 13,2 C 13,2 C 91 % 1028,5 hPa 0,0 mm 0,0 km/h (0 Bft) S 185 0 min 0,000 mm 0,0 UV-I 0 W/m 11,8 C 0,0 km/h (0 Bft)
06.08.2016 23:49 13,2 C 13,2 C 92 % 1028,5 hPa 0,0 mm 1,1 km/h (1 Bft) S-SO 157 0 min 0,000 mm 0,0 UV-I 0 W/m 11,9 C 6,4 km/h (2 Bft)
06.08.2016 23:50 13,2 C 13,2 C 91 % 1028,5 hPa 0,0 mm 6,2 km/h (2 Bft) W-NW 283 0 min 0,000 mm 0,0 UV-I 0 W/m 11,8 C 11,3 km/h (2 Bft)
06.08.2016 23:51 13,3 C 13,3 C 90 % 1028,5 hPa 0,0 mm 2,1 km/h (1 Bft) W 271 0 min 0,000 mm 0,0 UV-I 0 W/m 11,7 C 6,4 km/h (2 Bft)
06.08.2016 23:52 13,3 C 13,3 C 90 % 1028,4 hPa 0,0 mm 0,9 km/h (0 Bft) SW 227 0 min 0,000 mm 0,0 UV-I 0 W/m 11,7 C 3,2 km/h (1 Bft)
06.08.2016 23:53 13,3 C 13,3 C 90 % 1028,5 hPa 0,0 mm 2,5 km/h (1 Bft) S 188 0 min 0,000 mm 0,0 UV-I 0 W/m 11,7 C 4,8 km/h (1 Bft)
06.08.2016 23:54 13,3 C 13,3 C 90 % 1028,5 hPa 0,0 mm 1,1 km/h (1 Bft) S 188 0 min 0,000 mm 0,0 UV-I 0 W/m 11,7 C 3,2 km/h (1 Bft)
06.08.2016 23:55 13,3 C 13,3 C 90 % 1028,5 hPa 0,0 mm 0,5 km/h (0 Bft) S 188 0 min 0,000 mm 0,0 UV-I 0 W/m 11,7 C 1,6 km/h (1 Bft)
06.08.2016 23:56 13,3 C 13,3 C 90 % 1028,5 hPa 0,0 mm 0,0 km/h (0 Bft) S 188 0 min 0,000 mm 0,0 UV-I 0 W/m 11,7 C 0,0 km/h (0 Bft)
06.08.2016 23:57 13,2 C 13,3 C 91 % 1028,5 hPa 0,0 mm 0,0 km/h (0 Bft) S 188 0 min 0,000 mm 0,0 UV-I 0 W/m 11,8 C 0,0 km/h (0 Bft)
06.08.2016 23:58 13,2 C 13,2 C 91 % 1028,4 hPa 0,0 mm 0,7 km/h (0 Bft) S 174 0 min 0,000 mm 0,0 UV-I 0 W/m 11,8 C 1,6 km/h (1 Bft)
06.08.2016 23:59 13,1 C 13,2 C 91 % 1028,4 hPa 0,0 mm 2,7 km/h (1 Bft) SW 226 0 min 0,000 mm 0,0 UV-I 0 W/m 11,7 C 4,8 km/h (1 Bft)
_ Min-Zeit 00:13 00:13 16:55 00:05 - 23:57 - - - - - - 00:13 23:57
Minimum _ 9,8 C 9,8 C 62 % 1023,0 hPa - 0,0 km/h (0 Bft) - - - - - - 9,0 C 0,0 km/h (0 Bft)
_ Max-Zeit 16:38 16:39 07:44 23:57 23:47 11:14 - - 16:33 11:00 13:08 13:11 11:24 10:46
Maximum _ 18,7 C 18,7 C 96 % 1028,5 hPa 0,2 mm 9,7 km/h
W-NW (2 Bft)
- - 1 min 0,330 mm 7,3 UV-I 1167 W/m 14,4 C 14,5 km/h
W (3 Bft)
Durchschnitt _ 13,7 C 13,8 C 87 % 1025,8 hPa #0,4 mm 2,2 km/h (1 Bft) W-SW - #2:55 h #1,803 mm 2,4 UV-I 134 W/m 11,4 C 4,0 km/h (1 Bft)